[[{"header":{"parameterUnit":"m.s-1","parameterCategory":1,"la1":31.0,"la2":29.5877,"lo1":-88.7671,"lo2":-86.6584,"dy":0.0162,"dx":0.0185,"nx":115,"ny":88,"refTime":"2026-03-03T00:00:00:Z","depth":0,"parameterNumber":2,"parameterNumberName":"U-component_of_WINDS"},"data":[0.0,0.0,0.0,0.0,0.0,0.0,0.0,0.0,0.0,0.0,0.0,0.0,0.0,0.0,0.0,0.0,0.0,0.0,0.0,0.0,0.0,0.0,0.0,0.0,0.0,0.0,0.0,0.0,0.0,0.0,0.0,0.0,0.0,0.0,0.0,0.0,0.0,0.0,0.0,0.0,0.0,0.0,0.0,0.0,0.0,0.0,0.0,0.0,0.0,0.0,0.0,0.0,0.0,0.0,0.0,0.0,0.0,0.0,0.0,0.0,0.0,0.0,0.0,0.0,0.0,0.0,0.0,0.0,0.0,0.0,0.0,0.0,0.0,0.0,0.0,0.0,0.0,0.0,0.0,0.0,0.0,0.0,0.0,0.0,0.0,0.0,0.0,0.0,0.0,0.0,0.0,0.0,0.0,0.0,0.0,0.0,0.0,0.0,0.0,0.0,0.0,0.0,0.0,0.0,0.0,0.0,0.0,0.0,0.0,0.0,0.0,0.0,0.0,0.0,0.0,0.0,0.0,0.0,0.0,0.0,0.0,0.0,0.0,0.0,0.0,0.0,0.0,0.0,0.0,0.0,0.0,0.0,0.0,0.0,0.0,0.0,0.0,0.0,0.0,0.0,0.0,0.0,0.0,0.0,0.0,0.0,0.0,0.0,0.0,0.0,0.0,0.0,0.0,0.0,0.0,0.0,0.0,0.0,0.0,0.0,0.0,0.0,0.0,0.0,0.0,0.0,0.0,0.0,0.0,0.0,0.0,0.0,0.0,0.0,0.0,0.0,0.0,0.0,0.0,0.0,0.0,0.0,0.0,0.0,0.0,0.0,0.0,0.0,0.0,0.0,0.0,0.0,0.0,0.0,0.0,0.0,0.0,0.0,0.0,0.0,0.0,0.0,0.0,0.0,0.0,0.0,0.0,0.0,0.0,0.0,0.0,0.0,0.0,0.0,0.0,0.0,0.0,0.0,0.0,0.0,0.0,0.0,0.0,0.0,0.0,0.0,0.0,0.0,0.0,0.0,0.0,0.0,0.0,0.0,0.0,0.0,0.0,0.0,0.0,0.0,0.0,0.0,0.0,0.0,0.0,0.0,0.0,0.0,0.0,0.0,0.0,0.0,0.0,0.0,0.0,0.0,0.0,0.0,0.0,0.0,0.0,0.0,0.0,0.0,0.0,0.0,0.0,0.0,0.0,0.0,0.0,0.0,0.0,0.0,0.0,0.0,0.0,0.0,0.0,0.0,0.0,0.0,0.0,0.0,0.0,0.0,0.0,0.0,0.0,0.0,0.0,0.0,0.0,0.0,0.0,0.0,0.0,0.0,0.0,0.0,0.0,0.0,0.0,0.0,0.0,0.0,0.0,0.0,0.0,0.0,0.0,0.0,0.0,0.0,0.0,0.0,0.0,0.0,0.0,0.0,0.0,0.0,0.0,0.0,0.0,0.0,0.0,0.0,0.0,0.0,0.0,0.0,0.0,0.0,0.0,0.0,0.0,0.0,0.0,0.0,0.0,0.0,0.0,0.0,0.0,0.0,0.0,0.0,0.0,0.0,0.0,0.0,0.0,0.0,0.0,0.0,0.0,0.0,0.0,0.0,0.0,0.0,0.0,0.0,0.0,0.0,0.0,0.0,0.0,0.0,0.0,0.0,0.0,0.0,0.0,0.0,0.0,0.0,0.0,0.0,0.0,0.0,0.0,0.0,0.0,0.0,0.0,0.0,0.0,0.0,0.0,0.0,0.0,0.0,0.0,0.0,0.0,0.0,0.0,0.0,0.0,0.0,0.0,0.0,0.0,0.0,0.0,0.0,0.0,0.0,0.0,0.0,0.0,0.0,0.0,0.0,0.0,0.0,0.0,0.0,0.0,0.0,0.0,0.0,0.0,0.0,0.0,0.0,0.0,0.0,0.0,0.0,0.0,0.0,0.0,0.0,0.0,0.0,0.0,0.0,0.0,0.0,0.0,0.0,0.0,0.0,0.0,0.0,0.0,0.0,0.0,0.0,0.0,0.0,0.0,0.0,0.0,0.0,0.0,0.0,0.0,0.0,0.0,0.0,0.0,0.0,0.0,0.0,0.0,0.0,0.0,0.0,0.0,0.0,0.0,0.0,0.0,0.0,0.0,0.0,0.0,0.0,0.0,0.0,0.0,0.0,0.0,0.0,0.0,0.0,0.0,0.0,0.0,0.0,0.0,0.0,0.0,0.0,0.0,0.0,0.0,0.0,0.0,0.0,0.0,0.0,0.0,0.0,0.0,0.0,0.0,0.0,0.0,0.0,0.0,0.0,0.0,0.0,0.0,0.0,0.0,0.0,0.0,0.0,0.0,0.0,0.0,0.0,0.0,0.0,0.0,0.0,0.0,0.0,0.0,0.0,0.0,0.0,0.0,0.0,0.0,0.0,0.0,0.0,0.0,0.0,0.0,0.0,0.0,0.0,0.0,0.0,0.0,0.0,0.0,0.0,0.0,0.0,0.0,0.0,0.0,0.0,0.0,0.0,0.0,0.0,0.0,0.0,0.0,0.0,0.0,0.0,0.0,0.0,0.0,0.0,0.0,0.0,0.0,0.0,0.0,0.0,0.0,0.0,0.0,0.0,0.0,0.0,0.0,0.0,0.0,0.0,0.0,0.0,0.0,0.0,0.0,0.0,0.0,0.0,0.0,0.0,0.0,0.0,0.0,0.0,0.0,0.0,0.0,0.0,0.0,0.0,0.0,0.0,0.0,0.0,0.0,0.0,0.0,0.0,0.0,0.0,0.0,0.0,0.0,0.0,0.0,0.0,0.0,0.0,0.0,0.0,0.0,0.0,0.0,0.0,0.0,0.0,0.0,0.0,0.0,0.0,0.0,0.0,0.0,0.0,0.0,0.0,0.0,0.0,0.0,0.0,0.0,0.0,0.0,0.0,0.0,0.0,0.0,0.0,0.0,0.0,0.0,0.0,0.0,0.0,0.0,0.0,0.0,0.0,0.0,0.0,0.0,0.0,0.0,0.0,0.0,0.0,0.0,0.0,0.0,0.0,0.0,0.0,0.0,0.0,0.0,0.0,0.0,0.0,0.0,0.0,0.0,0.0,0.0,0.0,0.0,0.0,0.0,0.0,0.0,0.0,0.0,0.0,0.0,0.0,0.0,0.0,0.0,0.0,0.0,0.0,0.0,0.0,0.0,0.0,0.0,0.0,0.0,0.0,0.0,0.0,0.0,0.0,0.0,0.0,0.0,0.0,0.0,0.0,0.0,0.0,0.0,0.0,0.0,0.0,0.0,0.0,0.0,0.0,0.0,0.0,0.0,0.0,0.0,0.0,0.0,0.0,0.0,0.0,0.0,0.0,0.0,0.0,0.0,0.0,0.0,0.0,0.0,0.0,0.0,0.0,0.0,0.0,0.0,0.0,0.0,0.0,0.0,0.0,0.0,0.0,0.0,0.0,0.0,0.0,0.0,0.0,0.0,0.0,0.0,0.0,0.0,0.0,0.0,0.0,0.0,0.0,0.0,0.0,0.0,0.0,0.0,0.0,0.0,0.0,0.0,0.0,0.0,0.0,0.0,0.0,0.0,0.0,0.0,0.0,0.0,0.0,0.0,0.0,0.0,0.0,0.0,0.0,0.0,0.0,0.0,0.0,0.0,0.0,0.0,0.0,0.0,0.0,0.0,0.0,0.0,0.0,0.0,0.0,0.0,0.0,0.0,0.0,0.0,0.0,0.0,0.0,0.0,0.0,0.0,0.0,0.0,0.0,0.0,0.0,0.0,0.0,0.0,0.0,0.0,0.0,0.0,0.0,0.0,0.0,0.0,0.0,0.0,0.0,0.0,0.0,0.0,0.0,0.0,0.0,0.0,0.0,0.0,0.0,0.0,0.0,0.0,0.0,0.0,0.0,0.0,0.0,0.0,0.0,0.0,0.0,0.0,0.0,0.0,0.0,0.0,0.0,0.0,0.0,0.0,0.0,0.0,0.0,0.0,0.0,0.0,0.0,0.0,0.0,0.0,0.0,0.0,0.0,0.0,0.0,0.0,0.0,0.0,0.0,0.0,0.0,0.0,0.0,0.0,0.0,0.0,0.0,0.0,0.0,0.0,0.0,0.0,0.0,0.0,0.0,0.0,0.0,0.0,0.0,0.0,0.0,0.0,0.0,0.0,0.0,0.0,0.0,0.0,0.0,0.0,0.0,0.0,0.0,0.0,0.0,0.0,0.0,0.0,0.0,0.0,0.0,0.0,0.0,0.0,0.0,0.0,0.0,0.0,0.0,0.0,0.0,0.0,0.0,0.0,0.0,-1.3782,0.0,0.0,0.0,0.0,0.0,0.0,0.0,0.0,0.0,0.0,0.0,0.0,0.0,0.0,0.0,0.0,0.0,0.0,0.0,0.0,0.0,0.0,0.0,0.0,0.0,0.0,0.0,0.0,0.0,0.0,0.0,0.0,0.0,0.0,0.0,0.0,0.0,0.0,0.0,0.0,0.0,0.0,0.0,0.0,0.0,0.0,0.0,0.0,0.0,0.0,0.0,0.0,0.0,0.0,0.0,0.0,0.0,0.0,0.0,0.0,0.0,0.0,0.0,0.0,0.0,0.0,0.0,0.0,0.0,0.0,0.0,0.0,0.0,0.0,0.0,0.0,0.0,0.0,0.0,0.0,0.0,0.0,0.0,0.0,0.0,0.0,0.0,0.0,0.0,0.0,0.0,0.0,0.0,0.0,0.0,0.0,0.0,0.0,0.0,0.0,0.0,0.0,0.0,0.0,0.0,0.0,0.0,0.0,0.0,0.0,-1.5814,-1.5784,-1.4526,-1.3797,-1.3782,0.0,0.0,0.0,0.0,0.0,0.0,0.0,0.0,0.0,0.0,0.0,0.0,0.0,0.0,0.0,0.0,0.0,0.0,0.0,0.0,0.0,0.0,0.0,0.0,0.0,0.0,0.0,0.0,0.0,0.0,0.0,0.0,0.0,0.0,0.0,0.0,0.0,0.0,0.0,0.0,0.0,0.0,0.0,0.0,0.0,0.0,0.0,0.0,0.0,0.0,0.0,0.0,0.0,0.0,0.0,0.0,0.0,0.0,0.0,0.0,0.0,0.0,0.0,0.0,0.0,0.0,0.0,0.0,0.0,0.0,0.0,0.0,0.0,0.0,0.0,0.0,0.0,0.0,0.0,0.0,0.0,0.0,0.0,0.0,0.0,0.0,0.0,0.0,0.0,0.0,0.0,0.0,0.0,0.0,0.0,0.0,0.0,0.0,0.0,0.0,0.0,0.0,0.0,0.0,0.0,0.0,0.0,0.0,0.0,0.0,0.0,0.0,-1.4796,-1.4145,-1.3918,0.0,0.0,0.0,0.0,0.0,0.0,0.0,0.0,0.0,0.0,0.0,0.0,0.0,0.0,0.0,0.0,0.0,0.0,0.0,0.0,0.0,0.0,0.0,0.0,0.0,0.0,0.0,0.0,0.0,0.0,0.0,0.0,0.0,0.0,0.0,0.0,0.0,0.0,0.0,0.0,0.0,0.0,0.0,0.0,0.0,0.0,0.0,0.0,0.0,0.0,0.0,0.0,0.0,0.0,0.0,0.0,0.0,0.0,0.0,0.0,0.0,0.0,0.0,0.0,0.0,0.0,0.0,0.0,0.0,0.0,0.0,0.0,0.0,0.0,0.0,0.0,0.0,0.0,0.0,0.0,0.0,0.0,0.0,0.0,0.0,0.0,0.0,0.0,0.0,0.0,0.0,0.0,0.0,0.0,0.0,0.0,0.0,0.0,0.0,0.0,0.0,0.0,0.0,0.0,0.0,0.0,0.0,0.0,0.0,0.0,-1.5814,-1.5799,-1.5664,0.0,-1.431,0.0,0.0,0.0,0.0,0.0,0.0,0.0,0.0,0.0,0.0,0.0,0.0,0.0,0.0,0.0,0.0,0.0,0.0,0.0,0.0,0.0,0.0,0.0,0.0,0.0,0.0,0.0,0.0,0.0,0.0,0.0,0.0,0.0,0.0,0.0,0.0,0.0,0.0,0.0,0.0,0.0,0.0,0.0,0.0,0.0,0.0,0.0,0.0,0.0,0.0,0.0,0.0,0.0,0.0,0.0,0.0,0.0,0.0,0.0,0.0,0.0,0.0,0.0,0.0,0.0,0.0,0.0,0.0,0.0,0.0,0.0,0.0,0.0,0.0,0.0,0.0,0.0,0.0,0.0,0.0,0.0,0.0,0.0,0.0,0.0,0.0,0.0,0.0,0.0,0.0,0.0,0.0,0.0,0.0,0.0,0.0,0.0,0.0,0.0,0.0,0.0,0.0,0.0,0.0,0.0,0.0,0.0,0.0,0.0,0.0,0.0,-1.5014,-1.4656,-1.4254,0.0,0.0,0.0,0.0,0.0,0.0,0.0,0.0,0.0,0.0,0.0,0.0,0.0,0.0,0.0,0.0,0.0,0.0,0.0,0.0,0.0,0.0,0.0,0.0,0.0,0.0,0.0,0.0,0.0,0.0,0.0,0.0,0.0,0.0,0.0,0.0,0.0,0.0,0.0,0.0,0.0,0.0,0.0,0.0,0.0,0.0,0.0,0.0,0.0,0.0,0.0,0.0,0.0,0.0,0.0,0.0,0.0,0.0,0.0,0.0,0.0,0.0,0.0,0.0,0.0,0.0,0.0,0.0,0.0,0.0,0.0,0.0,0.0,0.0,0.0,0.0,0.0,0.0,0.0,0.0,0.0,0.0,0.0,0.0,0.0,0.0,0.0,0.0,0.0,0.0,0.0,0.0,0.0,0.0,0.0,0.0,0.0,0.0,0.0,0.0,0.0,0.0,0.0,0.0,0.0,0.0,0.0,0.0,0.0,0.0,-1.493,0.0,-1.477,-1.3969,-1.3445,-1.3207,0.0,0.0,0.0,0.0,0.0,0.0,0.0,0.0,0.0,0.0,0.0,0.0,0.0,0.0,0.0,0.0,0.0,0.0,0.0,0.0,0.0,0.0,0.0,0.0,0.0,0.0,0.0,0.0,0.0,0.0,0.0,0.0,0.0,0.0,0.0,0.0,0.0,0.0,0.0,0.0,0.0,0.0,0.0,0.0,0.0,0.0,0.0,0.0,0.0,0.0,0.0,0.0,0.0,0.0,0.0,0.0,0.0,0.0,0.0,0.0,0.0,0.0,0.0,0.0,0.0,0.0,0.0,0.0,0.0,0.0,0.0,0.0,0.0,0.0,0.0,0.0,0.0,0.0,0.0,0.0,0.0,0.0,0.0,0.0,0.0,0.0,0.0,0.0,0.0,0.0,0.0,0.0,0.0,0.0,0.0,0.0,0.0,0.0,0.0,0.0,0.0,0.0,0.0,0.0,0.0,0.0,0.0,0.0,0.0,-1.527,-1.5128,-1.5397,-1.4303,-1.3298,0.0,0.0,0.0,0.0,0.0,0.0,0.0,0.0,0.0,0.0,0.0,0.0,0.0,0.0,0.0,0.0,0.0,0.0,0.0,0.0,0.0,0.0,0.0,0.0,0.0,0.0,0.0,0.0,0.0,0.0,0.0,0.0,0.0,0.0,0.0,0.0,0.0,0.0,0.0,0.0,0.0,0.0,0.0,0.0,0.0,0.0,0.0,0.0,0.0,0.0,0.0,0.0,0.0,0.0,0.0,0.0,0.0,0.0,0.0,0.0,0.0,0.0,0.0,0.0,0.0,0.0,0.0,0.0,0.0,0.0,0.0,0.0,0.0,0.0,0.0,0.0,0.0,0.0,0.0,0.0,0.0,0.0,0.0,0.0,0.0,0.0,0.0,0.0,0.0,0.0,0.0,0.0,0.0,0.0,0.0,0.0,0.0,0.0,0.0,0.0,0.0,0.0,0.0,0.0,0.0,0.0,0.0,0.0,0.0,-1.3375,-1.2995,-1.3562,-1.4954,-1.3325,-1.2526,0.0,0.0,0.0,0.0,0.0,0.0,0.0,0.0,0.0,0.0,0.0,0.0,0.0,0.0,0.0,0.0,0.0,0.0,0.0,0.0,0.0,0.0,0.0,0.0,0.0,0.0,0.0,0.0,0.0,0.0,0.0,0.0,0.0,0.0,0.0,0.0,0.0,0.0,0.0,0.0,0.0,0.0,0.0,0.0,0.0,0.0,0.0,0.0,0.0,0.0,0.0,0.0,0.0,0.0,0.0,0.0,0.0,0.0,0.0,0.0,0.0,0.0,0.0,0.0,0.0,0.0,0.0,0.0,0.0,0.0,0.0,0.0,0.0,0.0,0.0,0.0,0.0,0.0,0.0,0.0,0.0,0.0,0.0,0.0,0.0,0.0,0.0,0.0,0.0,0.0,0.0,0.0,0.0,0.0,0.0,0.0,0.0,0.0,0.0,0.0,0.0,0.0,0.0,0.0,0.0,0.0,0.0,0.0,0.0,-1.2511,0.0,-1.3224,0.0,-1.2893,-1.2112,0.0,0.0,0.0,0.0,0.0,0.0,0.0,0.0,0.0,0.0,0.0,0.0,0.0,0.0,0.0,0.0,0.0,0.0,0.0,0.0,0.0,0.0,0.0,0.0,0.0,0.0,0.0,0.0,0.0,0.0,0.0,0.0,0.0,0.0,0.0,0.0,0.0,0.0,0.0,0.0,0.0,0.0,0.0,0.0,0.0,0.0,0.0,0.0,0.0,0.0,0.0,0.0,0.0,0.0,0.0,0.0,0.0,0.0,0.0,0.0,0.0,0.0,0.0,0.0,0.0,0.0,0.0,0.0,0.0,0.0,0.0,0.0,0.0,0.0,0.0,0.0,0.0,0.0,0.0,0.0,0.0,0.0,0.0,0.0,0.0,0.0,0.0,0.0,0.0,0.0,0.0,0.0,0.0,0.0,0.0,0.0,0.0,0.0,0.0,0.0,0.0,0.0,0.0,0.0,0.0,0.0,0.0,0.0,-1.3402,-1.3683,-1.4401,-1.4268,-1.3273,-1.3178,-1.2146,0.0,0.0,0.0,0.0,0.0,0.0,0.0,0.0,0.0,0.0,0.0,0.0,0.0,0.0,0.0,0.0,0.0,0.0,0.0,0.0,0.0,0.0,0.0,0.0,0.0,0.0,0.0,0.0,0.0,0.0,0.0,0.0,0.0,0.0,0.0,0.0,0.0,0.0,0.0,0.0,0.0,0.0,0.0,0.0,0.0,0.0,0.0,0.0,0.0,0.0,0.0,0.0,0.0,0.0,0.0,0.0,0.0,0.0,0.0,0.0,0.0,0.0,0.0,0.0,0.0,0.0,0.0,0.0,0.0,0.0,0.0,0.0,0.0,0.0,0.0,0.0,0.0,0.0,0.0,0.0,0.0,0.0,0.0,0.0,0.0,0.0,0.0,0.0,0.0,0.0,0.0,0.0,0.0,0.0,0.0,0.0,0.0,0.0,0.0,0.0,0.0,0.0,0.0,0.0,0.0,0.0,0.0,0.0,0.0,-1.2831,-1.3405,-1.393,-1.4305,-1.2881,-1.2112,0.0,0.0,0.0,0.0,0.0,0.0,0.0,0.0,0.0,0.0,0.0,0.0,0.0,0.0,0.0,0.0,0.0,0.0,0.0,0.0,0.0,0.0,0.0,0.0,0.0,0.0,0.0,0.0,0.0,0.0,0.0,0.0,0.0,0.0,0.0,0.0,0.0,0.0,0.0,0.0,0.0,0.0,0.0,0.0,0.0,0.0,0.0,0.0,0.0,0.0,0.0,0.0,0.0,0.0,0.0,0.0,0.0,0.0,0.0,0.0,0.0,0.0,0.0,0.0,0.0,0.0,0.0,0.0,0.0,0.0,0.0,0.0,0.0,0.0,0.0,0.0,0.0,0.0,0.0,0.0,0.0,0.0,0.0,0.0,0.0,0.0,0.0,0.0,0.0,0.0,0.0,0.0,0.0,0.0,0.0,0.0,0.0,0.0,0.0,0.0,0.0,0.0,0.0,0.0,0.0,0.0,0.0,0.0,0.0,-1.393,-1.4256,-1.4676,-1.5185,-1.3481,-1.263,-1.2852,0.0,0.0,0.0,0.0,0.0,0.0,0.0,0.0,0.0,0.0,0.0,0.0,0.0,0.0,0.0,0.0,0.0,0.0,0.0,0.0,0.0,0.0,0.0,0.0,0.0,0.0,0.0,0.0,0.0,0.0,0.0,0.0,0.0,0.0,0.0,0.0,0.0,0.0,0.0,0.0,0.0,0.0,0.0,0.0,0.0,0.0,0.0,0.0,0.0,0.0,0.0,0.0,0.0,0.0,0.0,0.0,0.0,0.0,0.0,0.0,0.0,0.0,0.0,0.0,0.0,0.0,0.0,0.0,0.0,0.0,0.0,0.0,0.0,0.0,0.0,0.0,0.0,0.0,0.0,0.0,0.0,0.0,0.0,0.0,0.0,0.0,0.0,0.0,0.0,0.0,0.0,0.0,0.0,0.0,0.0,0.0,0.0,0.0,0.0,0.0,0.0,0.0,0.0,0.0,0.0,0.0,0.0,0.0,-1.6575,-1.6588,-1.6312,-1.5793,-1.4714,-1.3614,0.0,0.0,0.0,0.0,0.0,0.0,0.0,0.0,0.0,0.0,0.0,0.0,0.0,0.0,0.0,0.0,0.0,0.0,0.0,0.0,0.0,0.0,0.0,0.0,0.0,0.0,0.0,0.0,0.0,0.0,0.0,0.0,0.0,0.0,0.0,0.0,0.0,0.0,0.0,0.0,0.0,0.0,0.0,0.0,0.0,0.0,0.0,0.0,0.0,0.0,0.0,0.0,0.0,0.0,0.0,0.0,0.0,0.0,0.0,0.0,0.0,0.0,0.0,0.0,0.0,0.0,0.0,0.0,0.0,0.0,0.0,0.0,0.0,0.0,0.0,0.0,0.0,0.0,0.0,0.0,0.0,0.0,0.0,0.0,0.0,0.0,0.0,0.0,0.0,0.0,0.0,0.0,0.0,0.0,0.0,0.0,0.0,0.0,0.0,0.0,0.0,0.0,0.0,0.0,0.0,0.0,0.0,0.0,0.0,-1.7641,-1.7741,-1.7501,-1.6958,-1.5475,-1.4374,0.0,0.0,0.0,0.0,0.0,0.0,0.0,0.0,0.0,0.0,0.0,0.0,0.0,0.0,0.0,0.0,0.0,0.0,0.0,0.0,0.0,0.0,0.0,0.0,0.0,0.0,0.0,0.0,0.0,0.0,0.0,0.0,0.0,0.0,0.0,0.0,0.0,0.0,0.0,0.0,0.0,0.0,0.0,0.0,0.0,0.0,0.0,0.0,0.0,0.0,0.0,0.0,0.0,0.0,0.0,0.0,0.0,0.0,0.0,0.0,0.0,0.0,0.0,0.0,0.0,0.0,0.0,0.0,0.0,0.0,0.0,0.0,0.0,0.0,0.0,0.0,0.0,0.0,0.0,0.0,0.0,0.0,0.0,0.0,0.0,0.0,0.0,0.0,0.0,0.0,0.0,0.0,0.0,0.0,0.0,0.0,0.0,0.0,0.0,0.0,0.0,0.0,0.0,0.0,0.0,0.0,0.0,0.0,-1.6522,-1.8481,-1.8995,-1.897,-1.8417,-1.682,-1.5575,0.0,0.0,0.0,0.0,0.0,0.0,0.0,0.0,0.0,0.0,0.0,0.0,0.0,0.0,0.0,0.0,0.0,0.0,0.0,0.0,0.0,0.0,0.0,0.0,0.0,0.0,0.0,0.0,0.0,0.0,0.0,0.0,0.0,0.0,0.0,0.0,0.0,0.0,0.0,0.0,0.0,0.0,0.0,0.0,0.0,0.0,0.0,0.0,0.0,0.0,0.0,0.0,0.0,0.0,0.0,0.0,0.0,0.0,0.0,0.0,0.0,0.0,0.0,0.0,0.0,0.0,0.0,0.0,0.0,0.0,0.0,0.0,0.0,0.0,0.0,0.0,0.0,0.0,0.0,0.0,0.0,0.0,0.0,0.0,0.0,0.0,0.0,0.0,0.0,0.0,0.0,0.0,0.0,0.0,0.0,0.0,0.0,0.0,0.0,0.0,0.0,0.0,0.0,0.0,0.0,0.0,0.0,0.0,-1.7491,-1.9146,-2.0213,-2.0528,-1.9962,-1.8342,-1.6933,0.0,0.0,0.0,0.0,0.0,0.0,0.0,0.0,0.0,0.0,0.0,0.0,0.0,0.0,0.0,0.0,0.0,0.0,0.0,0.0,0.0,0.0,0.0,0.0,0.0,0.0,0.0,0.0,0.0,0.0,0.0,0.0,0.0,0.0,0.0,0.0,0.0,0.0,0.0,0.0,0.0,0.0,0.0,0.0,0.0,0.0,0.0,0.0,0.0,0.0,0.0,0.0,0.0,0.0,0.0,0.0,0.0,0.0,0.0,0.0,0.0,0.0,0.0,0.0,0.0,0.0,0.0,0.0,0.0,0.0,0.0,0.0,0.0,0.0,0.0,0.0,0.0,0.0,0.0,0.0,0.0,0.0,0.0,0.0,0.0,0.0,0.0,0.0,0.0,0.0,0.0,0.0,0.0,0.0,0.0,0.0,0.0,0.0,0.0,0.0,0.0,0.0,0.0,0.0,0.0,0.0,0.0,0.0,-1.8643,-2.0302,-2.0993,-2.1282,-2.1129,-1.912,-1.7287,0.0,0.0,0.0,0.0,0.0,0.0,0.0,0.0,0.0,0.0,0.0,0.0,0.0,0.0,0.0,0.0,0.0,0.0,0.0,0.0,0.0,0.0,0.0,0.0,0.0,0.0,0.0,0.0,0.0,0.0,0.0,0.0,0.0,0.0,0.0,0.0,0.0,0.0,0.0,0.0,0.0,0.0,0.0,0.0,0.0,0.0,0.0,0.0,-0.7216,0.0,0.0,0.0,0.0,0.0,0.0,0.0,0.0,0.0,0.0,0.0,0.0,0.0,0.0,0.0,0.0,0.0,0.0,0.0,0.0,0.0,0.0,0.0,0.0,0.0,0.0,0.0,0.0,0.0,0.0,0.0,0.0,0.0,0.0,0.0,0.0,0.0,0.0,0.0,0.0,0.0,0.0,0.0,0.0,0.0,0.0,0.0,0.0,0.0,0.0,0.0,0.0,0.0,0.0,0.0,0.0,0.0,0.0,0.0,-1.9007,-2.0641,-2.1483,-2.1757,-2.1443,-2.0126,-1.8329,0.0,0.0,0.0,0.0,0.0,0.0,0.0,0.0,0.0,0.0,0.0,0.0,0.0,0.0,0.0,0.0,0.0,0.0,0.0,0.0,0.0,0.0,0.0,0.0,0.0,0.0,0.0,0.0,0.0,0.0,0.0,0.0,0.0,0.0,0.0,0.0,0.0,0.0,0.0,0.0,0.0,0.0,0.0,0.0,0.0,0.0,0.0,0.0,0.0,0.0,0.0,0.0,0.0,0.0,0.0,0.0,0.0,0.0,0.0,0.0,0.0,0.0,0.0,0.0,0.0,0.0,0.0,0.0,0.0,0.0,0.0,0.0,0.0,0.0,0.0,0.0,0.0,0.0,0.0,0.0,0.0,0.0,0.0,0.0,0.0,0.0,0.0,0.0,0.0,0.0,0.0,0.0,0.0,0.0,0.0,0.0,0.0,0.0,0.0,0.0,0.0,0.0,0.0,0.0,0.0,0.0,0.0,-1.7287,-1.9133,-2.0767,-2.187,-2.2133,-2.1506,-2.0981,-1.9384,-1.66,0.0,0.0,0.0,0.0,0.0,0.0,0.0,0.0,0.0,0.0,0.0,0.0,0.0,0.0,0.0,0.0,0.0,0.0,0.0,0.0,0.0,0.0,0.0,0.0,0.0,0.0,0.0,0.0,0.0,0.0,0.0,0.0,0.0,0.0,0.0,0.0,0.0,0.0,-0.7868,-0.9353,0.0,0.0,0.0,0.0,0.0,0.0,0.0,0.0,-0.8462,0.0,0.0,0.0,0.0,0.0,0.0,0.0,0.0,0.0,0.0,0.0,0.0,0.0,0.0,0.0,0.0,0.0,0.0,0.0,0.0,0.0,0.0,0.0,0.0,0.0,0.0,0.0,0.0,0.0,0.0,0.0,0.0,0.0,0.0,0.0,0.0,0.0,0.0,0.0,0.0,0.0,0.0,0.0,0.0,0.0,0.0,0.0,0.0,0.0,0.0,0.0,0.0,0.0,0.0,0.0,0.0,-1.6936,-1.8205,-1.966,-2.1345,-2.2406,-2.2481,-2.1559,-2.0981,-1.9384,-1.6626,0.0,0.0,0.0,0.0,0.0,0.0,0.0,0.0,0.0,0.0,0.0,0.0,0.0,0.0,0.0,0.0,0.0,0.0,0.0,0.0,0.0,0.0,0.0,0.0,0.0,0.0,0.0,0.0,0.0,0.0,0.0,0.0,0.0,0.0,0.0,0.0,0.0,0.0,0.0,-1.161,-1.2484,0.0,0.0,0.0,0.0,0.0,0.0,0.0,0.0,-0.855,0.0,0.0,0.0,0.0,0.0,0.0,0.0,0.0,0.0,0.0,0.0,0.0,0.0,0.0,0.0,0.0,0.0,0.0,0.0,0.0,0.0,0.0,0.0,0.0,0.0,0.0,0.0,0.0,0.0,0.0,0.0,0.0,0.0,0.0,0.0,0.0,0.0,0.0,0.0,0.0,0.0,0.0,0.0,0.0,0.0,0.0,0.0,0.0,0.0,0.0,0.0,0.0,0.0,0.0,0.0,-1.6848,-1.8581,-2.01,-2.1468,-2.2531,-2.2581,-2.1518,-2.0691,-1.9082,0.0,0.0,0.0,0.0,0.0,0.0,0.0,0.0,0.0,0.0,0.0,0.0,0.0,0.0,0.0,0.0,0.0,0.0,0.0,0.0,0.0,0.0,0.0,0.0,0.0,0.0,0.0,0.0,0.0,0.0,0.0,0.0,0.0,0.0,0.0,0.0,0.0,0.0,0.0,0.0,-1.2134,-1.2998,-1.2479,0.0,0.0,0.0,0.0,0.0,0.0,-0.9654,-0.9215,0.0,0.0,0.0,0.0,0.0,0.0,0.0,0.0,0.0,0.0,0.0,0.0,0.0,0.0,0.0,0.0,0.0,0.0,0.0,0.0,0.0,0.0,0.0,0.0,0.0,0.0,0.0,0.0,0.0,0.0,0.0,0.0,0.0,0.0,0.0,0.0,0.0,0.0,0.0,0.0,0.0,0.0,0.0,0.0,0.0,0.0,0.0,0.0,0.0,0.0,0.0,0.0,0.0,0.0,0.0,-1.6475,-1.8681,-2.0338,-2.1468,-2.2431,-2.2468,-2.1506,-2.0388,-1.8756,0.0,0.0,0.0,0.0,0.0,0.0,0.0,0.0,0.0,0.0,0.0,0.0,0.0,0.0,0.0,0.0,0.0,0.0,0.0,0.0,0.0,0.0,0.0,0.0,0.0,0.0,0.0,0.0,0.0,0.0,0.0,0.0,0.0,0.0,0.0,0.0,0.0,0.0,0.0,0.0,0.0,-1.3328,-1.2427,-1.2179,0.0,0.0,0.0,0.0,-1.0802,-1.0507,0.0,0.0,0.0,0.0,0.0,0.0,0.0,0.0,0.0,0.0,0.0,0.0,0.0,0.0,0.0,0.0,0.0,0.0,0.0,0.0,0.0,0.0,0.0,0.0,0.0,0.0,0.0,0.0,0.0,0.0,0.0,0.0,0.0,0.0,0.0,0.0,0.0,0.0,0.0,0.0,0.0,0.0,0.0,0.0,0.0,0.0,0.0,0.0,0.0,0.0,0.0,0.0,0.0,0.0,0.0,0.0,-1.6488,-1.8657,-2.0338,-2.1455,-2.2083,-2.2108,-2.1493,-2.0388,-1.8769,0.0,0.0,0.0,0.0,0.0,0.0,0.0,0.0,0.0,0.0,0.0,0.0,0.0,0.0,0.0,0.0,0.0,0.0,0.0,0.0,0.0,0.0,0.0,0.0,0.0,0.0,0.0,0.0,0.0,0.0,0.0,0.0,0.0,0.0,0.0,0.0,0.0,0.0,0.0,0.0,0.0,-1.4491,-1.219,-1.2974,-1.3398,0.0,0.0,-1.1367,-1.148,-1.1349,0.0,0.0,0.0,0.0,0.0,0.0,0.0,0.0,0.0,0.0,0.0,0.0,0.0,0.0,0.0,0.0,0.0,0.0,0.0,0.0,0.0,0.0,0.0,0.0,0.0,0.0,0.0,0.0,0.0,0.0,0.0,0.0,0.0,0.0,0.0,0.0,0.0,0.0,0.0,0.0,0.0,0.0,0.0,0.0,0.0,0.0,0.0,0.0,0.0,0.0,0.0,0.0,0.0,0.0,0.0,-1.4626,-1.65,-1.9007,-2.0717,-2.1496,-2.2033,-2.2046,-2.1521,-1.9463,-1.7784,0.0,0.0,0.0,0.0,0.0,0.0,0.0,0.0,0.0,0.0,0.0,0.0,0.0,0.0,0.0,0.0,0.0,0.0,0.0,0.0,0.0,0.0,0.0,0.0,0.0,0.0,0.0,0.0,0.0,0.0,0.0,0.0,0.0,0.0,0.0,0.0,0.0,0.0,0.0,0.0,0.0,0.0,-1.3092,-1.3271,0.0,0.0,0.0,-1.2449,-1.2881,0.0,0.0,0.0,0.0,0.0,0.0,0.0,0.0,0.0,0.0,0.0,0.0,0.0,0.0,0.0,0.0,0.0,0.0,0.0,0.0,0.0,0.0,0.0,0.0,0.0,0.0,0.0,0.0,0.0,0.0,0.0,0.0,0.0,0.0,0.0,0.0,0.0,0.0,0.0,0.0,0.0,0.0,0.0,0.0,0.0,0.0,0.0,0.0,0.0,0.0,0.0,0.0,0.0,0.0,0.0,0.0,0.0,-1.65,-1.9384,-2.1106,-2.1509,-2.1882,-2.1907,-2.1455,-1.8916,0.0,0.0,0.0,0.0,0.0,0.0,0.0,0.0,0.0,0.0,0.0,0.0,0.0,0.0,0.0,0.0,0.0,0.0,0.0,0.0,0.0,0.0,0.0,0.0,0.0,0.0,0.0,-0.6058,0.0,0.0,0.0,0.0,0.0,0.0,0.0,0.0,0.0,0.0,0.0,0.0,0.0,0.0,-1.3305,-1.3455,-1.3423,-1.3324,0.0,0.0,-1.3073,-1.3495,-1.2888,-1.2115,0.0,0.0,0.0,0.0,0.0,0.0,0.0,0.0,0.0,0.0,0.0,0.0,0.0,0.0,0.0,0.0,0.0,0.0,0.0,0.0,0.0,0.0,0.0,0.0,0.0,0.0,0.0,0.0,0.0,0.0,0.0,0.0,0.0,0.0,0.0,0.0,0.0,0.0,0.0,0.0,0.0,0.0,0.0,0.0,0.0,0.0,0.0,0.0,0.0,0.0,0.0,0.0,0.0,0.0,0.0,-1.6563,-1.9761,-2.1471,-2.1493,-2.1518,-2.1531,-2.1455,-1.9309,-1.7631,0.0,0.0,0.0,0.0,0.0,0.0,0.0,0.0,0.0,0.0,0.0,0.0,0.0,0.0,0.0,0.0,0.0,0.0,0.0,0.0,0.0,0.0,0.0,0.0,0.0,0.0,0.0,0.0,0.0,0.0,0.0,0.0,0.0,0.0,0.0,0.0,0.0,0.0,0.0,0.0,0.0,-1.339,-1.2451,-1.3491,-1.4174,0.0,0.0,-1.2853,-1.2397,-1.2641,-1.2145,-1.0092,0.0,0.0,0.0,0.0,0.0,0.0,0.0,0.0,0.0,0.0,0.0,0.0,0.0,0.0,0.0,0.0,0.0,0.0,0.0,0.0,0.0,0.0,0.0,0.0,0.0,0.0,0.0,0.0,0.0,0.0,0.0,0.0,0.0,0.0,0.0,0.0,0.0,0.0,0.0,0.0,0.0,0.0,0.0,0.0,0.0,0.0,0.0,0.0,0.0,0.0,0.0,0.0,0.0,-1.56,-1.7049,-1.9974,-2.1656,-2.1983,-2.1995,-2.1832,-2.1493,-1.8964,-1.7412,0.0,0.0,0.0,0.0,0.0,0.0,0.0,0.0,0.0,0.0,0.0,0.0,0.0,0.0,0.0,0.0,0.0,0.0,0.0,0.0,0.0,0.0,0.0,0.0,0.0,0.0,0.0,0.0,-0.6707,-0.6534,-0.6238,0.0,0.0,0.0,0.0,0.0,0.0,0.0,0.0,0.0,0.0,-1.3144,-1.3008,-1.3711,0.0,0.0,-1.3842,-1.3902,-1.3277,-1.3018,-1.2454,-1.1164,-1.0289,0.0,0.0,0.0,0.0,0.0,0.0,0.0,0.0,0.0,0.0,0.0,0.0,0.0,0.0,0.0,0.0,0.0,0.0,0.0,0.0,0.0,0.0,0.0,0.0,0.0,0.0,0.0,0.0,0.0,0.0,0.0,0.0,0.0,0.0,0.0,0.0,0.0,0.0,0.0,0.0,0.0,0.0,0.0,0.0,0.0,0.0,0.0,0.0,0.0,0.0,0.0,0.0,-1.5801,-1.7614,-2.0201,-2.1757,-2.2268,-2.2322,-2.1959,-2.1147,-1.889,-1.7394,0.0,0.0,0.0,0.0,0.0,0.0,0.0,0.0,0.0,0.0,0.0,0.0,0.0,0.0,0.0,0.0,0.0,0.0,0.0,0.0,0.0,0.0,0.0,0.0,0.0,0.0,0.0,0.0,-0.7134,-0.6709,-0.627,0.0,0.0,0.0,0.0,0.0,0.0,0.0,0.0,0.0,0.0,-1.331,-1.4185,-1.4307,-1.4299,-1.423,-1.433,-1.4241,-1.3771,-1.3366,-1.2794,-1.1891,0.0,0.0,0.0,0.0,0.0,0.0,0.0,0.0,0.0,0.0,0.0,0.0,0.0,0.0,0.0,0.0,0.0,0.0,0.0,0.0,0.0,0.0,0.0,0.0,0.0,0.0,0.0,0.0,0.0,0.0,-1.3248,0.0,0.0,0.0,0.0,0.0,0.0,0.0,0.0,0.0,0.0,0.0,0.0,0.0,0.0,0.0,0.0,0.0,0.0,0.0,0.0,0.0,0.0,-1.599,-1.8166,-2.0376,-2.1757,-2.2309,-2.2322,-2.1741,-2.0505,-1.9289,-1.7632,-1.5413,0.0,0.0,0.0,0.0,0.0,0.0,0.0,0.0,0.0,0.0,0.0,0.0,0.0,0.0,0.0,0.0,0.0,0.0,0.0,0.0,0.0,0.0,0.0,0.0,0.0,0.0,-0.7632,-0.692,-0.6279,0.0,0.0,0.0,0.0,0.0,0.0,0.0,0.0,0.0,0.0,-1.2778,-1.4124,-1.581,-1.5339,-1.5014,-1.5675,-1.4528,-1.3545,-1.3531,-1.3496,-1.3071,0.0,0.0,0.0,0.0,0.0,0.0,0.0,0.0,0.0,0.0,0.0,0.0,0.0,0.0,0.0,0.0,0.0,0.0,0.0,0.0,0.0,0.0,0.0,0.0,0.0,0.0,0.0,-1.73,-1.6329,0.0,0.0,0.0,0.0,0.0,0.0,0.0,0.0,0.0,0.0,0.0,-1.9321,-2.0037,0.0,0.0,0.0,0.0,0.0,0.0,0.0,0.0,0.0,0.0,0.0,0.0,-1.6522,-1.8694,-2.0564,-2.1933,-2.2794,-2.2819,-2.2468,-2.1675,-2.0173,-1.7678,-1.4074,0.0,0.0,0.0,0.0,0.0,0.0,0.0,0.0,0.0,0.0,0.0,0.0,0.0,0.0,0.0,0.0,0.0,0.0,0.0,0.0,0.0,0.0,0.0,0.0,0.0,-0.741,0.0,0.0,0.0,0.0,0.0,0.0,0.0,0.0,0.0,0.0,0.0,-1.0311,-1.1548,-1.2953,-1.4097,-1.4736,-1.5041,-1.5183,0.0,0.0,0.0,0.0,0.0,0.0,0.0,0.0,0.0,0.0,0.0,0.0,0.0,0.0,-1.2031,-1.0175,-0.9707,-0.9596,-0.9632,0.0,0.0,0.0,0.0,0.0,0.0,0.0,0.0,0.0,0.0,0.0,0.0,0.0,0.0,-1.9472,0.0,-1.863,0.0,0.0,0.0,0.0,0.0,0.0,0.0,0.0,-2.0075,-2.1029,-2.1543,-2.2259,-2.192,0.0,-2.05,-1.8732,0.0,0.0,0.0,0.0,0.0,0.0,0.0,0.0,-1.7275,-1.9233,-2.063,-2.1777,-2.261,-2.2414,-2.1995,-2.1438,-1.9653,-1.7066,-1.3683,-1.2852,-1.1634,0.0,0.0,0.0,0.0,0.0,0.0,0.0,0.0,0.0,0.0,0.0,0.0,0.0,0.0,0.0,0.0,0.0,0.0,0.0,0.0,0.0,0.0,0.0,-0.8174,0.0,0.0,0.0,0.0,0.0,0.0,0.0,0.0,0.0,-0.9397,-1.0312,-1.1414,-1.2672,-1.3683,-1.4508,-1.4981,0.0,0.0,0.0,0.0,0.0,0.0,0.0,-1.4072,-1.3779,-1.3398,-1.3115,-1.3096,-1.3447,-1.3723,-1.3786,0.0,0.0,-1.1726,-1.1216,-1.1126,-1.1138,-1.1267,-1.1643,-1.2557,-1.2955,-1.3324,0.0,0.0,0.0,0.0,0.0,0.0,0.0,0.0,-2.1597,-2.1587,0.0,-2.0974,0.0,0.0,0.0,0.0,0.0,-1.9345,0.0,0.0,-2.28,-2.3604,-2.3062,-2.313,-2.2872,-2.2401,-2.2882,-2.1979,-1.9773,-1.6732,0.0,0.0,0.0,0.0,0.0,0.0,-1.8242,-1.9771,-2.06,-2.1258,-2.1822,-2.1037,-2.0407,-1.989,-1.7901,-1.5984,-1.427,-1.34,-1.2152,-1.0479,-1.0145,0.0,0.0,0.0,0.0,0.0,0.0,0.0,0.0,0.0,0.0,0.0,0.0,0.0,0.0,0.0,0.0,0.0,0.0,0.0,0.0,-0.9123,0.0,0.0,0.0,0.0,0.0,0.0,0.0,0.0,0.0,0.0,-1.1377,-1.1891,-1.294,-1.478,0.0,0.0,0.0,0.0,-1.5889,-1.7052,-1.6244,-1.5488,-1.5508,-1.5459,-1.5146,-1.4392,0.0,0.0,-1.3864,-1.4034,-1.4404,-1.4494,-1.4982,-1.498,-1.4297,-1.3696,-1.3415,-1.3461,-1.3386,-1.3443,-1.3605,-1.3979,-1.4202,-2.6088,0.0,0.0,0.0,0.0,-2.215,-2.2538,-2.3702,-2.381,-2.3386,-2.2635,-2.2599,0.0,0.0,0.0,0.0,0.0,0.0,-2.0083,-2.0873,-2.1884,-2.2523,-2.2844,-2.3956,-2.4177,-2.367,-2.4112,-2.3559,-2.2142,-2.084,-1.8618,-1.561,0.0,0.0,0.0,0.0,-1.9068,-2.0049,-2.0682,-2.0984,-2.0962,-2.0719,-2.0344,-1.9778,-1.838,-1.7066,-1.5848,-1.4487,-1.3271,-1.2201,-1.1197,0.0,0.0,0.0,0.0,0.0,0.0,0.0,0.0,0.0,0.0,0.0,0.0,0.0,0.0,0.0,0.0,0.0,0.0,0.0,-0.9143,-0.9456,-0.9562,0.0,0.0,0.0,0.0,0.0,0.0,0.0,0.0,0.0,-1.3633,-1.34,-1.3439,0.0,0.0,-1.5368,-1.5748,-1.6641,-1.7366,-1.7714,0.0,0.0,0.0,-1.6487,-1.6128,-1.6773,-1.7507,-1.7933,-1.766,-1.7737,-1.7637,-1.7053,-1.7082,-1.6922,-1.6108,-1.5237,-1.4677,-1.462,-1.4264,-1.4392,-1.5526,-1.5616,-1.5606,-2.9365,-2.7523,-2.5117,-2.4026,-2.3831,-2.3212,-2.3632,-2.4692,-2.477,-2.4805,-2.4755,-2.4614,-2.3833,-2.2565,-2.1874,0.0,0.0,0.0,-2.2236,-2.3129,-2.3477,-2.3816,-2.4272,-2.5179,-2.5423,-2.5129,-2.512,-2.4782,-2.4073,-2.3577,-2.1879,-1.9183,0.0,0.0,-1.8416,-1.9635,-2.0519,-2.103,-2.1451,-2.1447,-2.0892,-2.0368,-1.9771,-1.903,-1.8491,-1.7697,-1.6595,-1.5325,-1.4248,-1.3408,-1.2305,-1.1296,0.0,0.0,0.0,0.0,0.0,0.0,0.0,0.0,0.0,0.0,0.0,-0.6831,0.0,0.0,0.0,0.0,-0.8135,-0.9172,-1.0293,-1.0244,0.0,0.0,0.0,0.0,0.0,0.0,0.0,-1.2798,-1.3256,-1.3936,-1.5127,-1.499,-1.4855,-1.5098,-1.5586,-1.5907,-1.5898,0.0,-1.7574,-1.7758,-1.7747,-1.7758,-1.7747,-1.7126,-1.6809,-1.7368,-1.8199,-1.8613,-1.8332,-1.8533,-1.8473,-1.7719,-1.7482,-1.7336,-1.6801,-1.6148,-1.5725,-1.5735,-1.5413,-1.5531,-1.6566,-1.6464,-1.6453,-3.1759,-3.173,-2.7695,-2.5449,-2.4513,-2.448,-2.4709,-2.5104,-2.52,-2.6009,-2.7296,-2.6868,-2.6577,-2.6421,-2.48,0.0,-2.4884,-2.5301,-2.5669,-2.6175,-2.6175,-2.6161,-2.6087,-2.6121,-2.6236,-2.622,-2.5777,-2.5594,-2.5624,-2.5172,-2.4374,-2.3271,-2.1807,-2.0754,-2.0175,-2.1644,-2.2372,-2.2275,-2.2592,-2.2297,-2.1385,-2.0028,-1.8911,-1.8134,-1.834,-1.788,-1.676,-1.5879,-1.5001,-1.4182,-1.3379,-1.2363,-1.1113,0.0,0.0,0.0,0.0,0.0,0.0,0.0,0.0,0.0,0.0,0.0,0.0,0.0,0.0,0.0,-0.9695,0.0,-1.1614,-1.127,0.0,0.0,0.0,-1.1359,-1.179,-1.2592,-1.3389,-1.4172,0.0,0.0,-1.6144,0.0,-1.6765,-1.6804,-1.6775,-1.6746,-1.6755,-1.688,-1.7037,-1.7602,-1.7596,-1.7563,-1.7717,-1.772,-1.772,-1.7579,-1.7771,-1.8216,-1.7645,-1.7854,-1.7885,-1.7256,-1.6941,-1.6919,-1.6836,-1.6816,-1.6794,-1.6787,-1.6719,-1.6648,-1.6694,-1.6674,-1.6674,-3.2012,-3.0876,-2.9822,-2.9207,-2.8867,-2.8533,-2.8203,-2.7901,-2.8375,-2.8332,-2.7905,-2.7877,-2.7387,-2.6516,-2.5421,-2.5079,-2.5386,-2.4815,-2.4147,-2.3471,-2.3471,-2.3106,-2.2527,-2.3253,-2.3798,-2.4228,-2.4826,-2.5538,-2.6239,-2.616,-2.5732,-2.5021,-2.4607,-2.3728,-2.2393,-2.3175,-2.3098,-2.2086,-2.2871,-2.2692,-2.1429,-2.0028,-1.9199,-1.8977,-1.7797,-1.7017,-1.6687,-1.5879,-1.5166,-1.4648,-1.3818,-1.3076,-1.2432,-1.089,0.0,0.0,0.0,0.0,0.0,0.0,0.0,0.0,0.0,-0.905,-0.761,0.0,-1.0176,0.0,-1.0723,-1.1643,-1.2504,-1.2168,0.0,0.0,-1.3344,-1.351,-1.3975,-1.4492,-1.5019,-1.5547,-1.5811,-1.6242,-1.7005,-1.7158,-1.7353,-1.7646,-1.7432,-1.7227,-1.7236,-1.8072,-1.8721,-1.8781,-1.8802,-1.8823,-1.8812,-1.9435,-1.9963,-2.058,-2.0795,-2.0881,-2.0682,-2.0243,-1.9715,-1.8876,-1.869,-1.8438,-1.7809,-1.7672,-1.7695,-1.7656,-1.7165,-1.6697,-1.6697,-1.6707,-1.6707,-3.2885,-3.2042,-3.181,-3.1669,-3.1466,-2.9773,-2.8847,-2.8552,-2.8899,-2.8967,-2.8838,-2.8629,-2.7919,-2.6839,-2.6579,-2.6546,-2.6697,-2.6422,-2.5961,-2.5359,-2.5098,-2.4713,-2.4282,-2.4846,-2.5147,-2.5229,-2.5744,-2.6177,-2.6512,-2.6487,-2.6323,-2.6021,-2.6021,-2.5556,-2.4657,-2.4682,-2.4345,-2.3643,-2.379,-2.3384,-2.2336,-2.0941,-2.006,-1.966,-1.8508,-1.7486,-1.6748,-1.6055,-1.542,-1.4842,-1.3965,-1.332,-1.2915,-1.1623,-1.0586,0.0,0.0,0.0,0.0,0.0,0.0,0.0,0.0,0.0,0.0,0.0,-1.1281,-1.1447,-1.2207,-1.2988,-1.3662,-1.3672,-1.3909,-1.4601,-1.4883,-1.5078,-1.5361,-1.5742,-1.6172,-1.6633,-1.6682,-1.7086,-1.8099,-1.8233,-1.8479,-1.9079,-1.8968,-1.8671,-1.8408,-1.9185,-1.9748,-1.9365,-1.9299,-1.9144,-1.8821,-1.9464,-2.0171,-2.0687,-2.1396,-2.1772,-2.1408,-2.127,-2.089,-2.0074,-1.9562,-1.9177,-1.8664,-1.8236,-1.8008,-1.7949,-1.7637,-1.7334,-1.7272,-1.7305,-1.7262,-3.401,-3.396,-3.3495,-3.3244,-3.2977,-3.0064,-2.8809,-2.874,-2.874,-2.9234,-3.0098,-2.9503,-2.8621,-2.7721,-2.8285,-2.8383,-2.8247,-2.8713,-2.8773,-2.8572,-2.8101,-2.7891,-2.7817,-2.7817,-2.7568,-2.7239,-2.7151,-2.6912,-2.6612,-2.6524,-2.6487,-2.6487,-2.6487,-2.6487,-2.6474,-2.595,-2.5699,-2.5711,-2.4779,-2.4118,-2.3775,-2.2425,-2.1286,-2.047,-1.9743,-1.8622,-1.7063,-1.6455,-1.5812,-1.5033,-1.4155,-1.3531,-1.316,-1.2308,-1.1477,0.0,-1.0186,0.0,0.0,0.0,0.0,0.0,0.0,0.0,0.0,-1.1516,-1.2396,-1.3169,-1.3867,-1.4465,-1.499,-1.5361,-1.5595,-1.5742,-1.6163,-1.6427,-1.6437,-1.6787,-1.7178,-1.751,-1.7638,-1.8154,-1.9104,-1.9365,-1.9781,-2.0365,-2.06,-2.0417,-1.9868,-2.016,-2.0268,-1.9562,-1.9464,-1.9398,-1.8977,-1.9299,-1.9814,-2.0009,-2.0846,-2.1491,-2.0985,-2.1164,-2.1302,-2.0655,-1.9977,-1.9529,-1.9464,-1.8844,-1.8405,-1.8462,-1.8321,-1.8099,-1.7973,-1.7939,-1.8008,-3.4562,-3.4562,-3.4449,-3.4161,-3.369,-3.3102,-3.2568,-3.2173,-3.2173,-3.1999,-3.1722,-3.1174,-3.0803,-3.0614,-3.0732,-3.0029,-2.8767,-2.8834,-2.8196,-2.6938,-2.6858,-2.6582,-2.6244,-2.6232,-2.6434,-2.6683,-2.6286,-2.6455,-2.7118,-2.6713,-2.6487,-2.6487,-2.6487,-2.6487,-2.6487,0.0,0.0,0.0,-2.4929,-2.4548,-2.5112,-2.3821,-2.2815,-2.2185,-2.0647,0.0,-1.8643,-1.7233,-1.6345,-1.6169,-1.5139,0.0,0.0,0.0,0.0,0.0,0.0,0.0,0.0,0.0,0.0,0.0,-1.3884,-1.3418,-1.2543,-1.3799,-1.4756,-1.4922,-1.5078,-1.5478,-1.6258,-1.6436,-1.6736,-1.7441,-1.7857,-1.8144,-1.813,-1.8525,-1.8711,-1.8428,-1.899,-1.9367,-1.9407,-1.9879,-2.0398,-2.0687,-2.1195,-2.1585,-2.1428,-2.0974,-2.0558,-2.0365,-2.0333,-2.0558,-2.108,-2.1207,-2.1459,-2.2082,-2.1353,-2.1164,-2.1459,-2.0602,-2.0171,-2.0462,-2.0462,-2.0333,-2.0333,-2.0204,-1.9944,-2.0107,-1.9529,-1.8811,-1.8178,-1.8008,-1.8008,-3.5094,0.0,-3.4793,-3.4562,0.0,-3.4311,-3.4148,-3.3847,-3.3307,-3.258,-3.1687,-3.1204,-3.0664,-3.0131,-3.0439,-3.0172,-2.9356,-2.9905,-2.9544,-2.8524,-2.8512,-2.8238,-2.7778,-2.7767,-2.7765,-2.7714,-2.747,-2.7483,-2.767,-2.713,-2.6901,-2.6901,-2.6637,-2.6487,-2.6487,-2.6487,-2.6487,-2.6487,-2.5706,-2.5571,-2.6,-2.5049,-2.4077,-2.3108,0.0,0.0,0.0,0.0,0.0,0.0,0.0,0.0,0.0,0.0,0.0,-1.4121,-1.3926,-1.3896,-1.4121,-1.4353,-1.4764,-1.539,-1.6016,-1.5928,-1.4863,-1.5576,-1.621,-1.666,-1.6875,-1.7155,-1.7584,-1.7828,-1.8174,-1.8594,-1.8838,-1.8919,-1.901,-1.9599,-1.9809,-1.9438,-2.0083,-2.0598,-2.0593,-2.091,-2.1428,-2.1772,-2.2218,-2.2476,-2.2445,-2.2125,-2.1741,-2.1302,-2.0814,-2.0751,-2.1195,-2.1678,-2.2013,-2.231,-2.2125,-2.1865,-2.1877,-2.151,-2.1089,-2.0814,-2.0942,-2.1132,-2.0655,-2.0268,-2.0074,-2.0398,-1.9911,-1.9398,-1.9177,-1.863,-1.8008,-3.5646,-3.5608,-3.5215,-3.4964,-3.4818,-3.4818,-3.4768,-3.465,0.0,0.0,0.0,-3.1223,-3.0517,-2.9604,-3.0153,-3.035,-3.0296,-3.1154,-3.1248,-3.0758,-3.0758,-3.0457,-2.9955,-2.993,-2.9641,-2.9063,-2.8938,-2.8687,-2.8235,-2.7695,-2.7404,-2.7243,-2.6864,-2.6587,-2.6499,-2.6487,-2.6487,-2.6487,-2.6487,-2.6487,-2.6487,-2.6034,-2.514,-2.3878,-2.3328,-2.1946,-1.9669,-1.9699,-1.907,-1.7557,-1.7136,-1.6826,-1.6529,-1.5965,-1.579,-1.6098,-1.5949,-1.5968,-1.6217,-1.6616,-1.6854,-1.6934,-1.775,-1.791,-1.7096,-1.7106,-1.748,-1.8139,-1.852,-1.8734,-1.8822,-1.917,-1.9468,-1.9614,-1.965,-1.9657,-1.9821,-2.0481,-2.0775,-2.0349,-2.0985,-2.1663,-2.1804,-2.2002,-2.2353,-2.2902,-2.3005,-2.3095,-2.3095,-2.3005,-2.275,-2.2187,-2.1616,-2.1121,-2.1164,-2.1678,-2.2075,-2.2249,-2.2567,-2.2659,-2.2353,-2.2537,-2.2341,-2.1385,-2.169,-2.1741,-2.1195,-2.0655,-2.0236,-2.091,-2.0365,-1.9944,-2.0505,-1.9595,-1.8529,-3.6292,-3.6279,-3.6204,-3.5868,-3.5382,-3.5382,-3.5107,-3.4675,-3.406,-3.3696,-3.3457,-3.2965,-3.2642,-3.25,-3.261,-3.2354,-3.1893,-3.2018,-3.18,0.0,-3.1273,-3.0997,-3.052,-3.0495,-3.0218,-2.9666,-2.9164,-2.885,-2.8725,-2.8223,-2.7758,-2.7379,-2.7241,-2.6964,-2.6524,-2.6487,-2.6487,-2.6487,-2.6487,-2.6487,-2.6487,-2.6411,-2.6029,-2.5319,-2.4763,-2.4139,-2.3287,-2.2185,-2.1488,-2.1212,-2.0584,-1.9854,-1.9041,-1.8849,-1.8868,-1.8888,-1.8124,-1.8151,-1.9323,-1.9504,-1.9703,-2.0066,-1.952,-1.8887,-1.8403,-1.8711,-1.8984,-1.9102,-1.9189,-1.9346,-1.9678,-1.9822,-2.0188,-2.0822,-2.0932,-2.1068,-2.1396,-2.1609,-2.1549,-2.1107,-2.1814,-2.2212,-2.2047,-2.2506,-2.2914,-2.3065,-2.3095,-2.3095,-2.3095,-2.3095,-2.3065,-2.2944,-2.2854,-2.275,-2.2598,-2.2793,-2.2854,-2.2944,-2.2445,-2.2384,-2.2689,-2.2476,-2.2279,-2.2567,-2.2659,-2.275,-2.2586,-2.2689,-2.2402,-2.2463,-2.1896,-2.1491,-2.1647,-2.0846,-1.9977,-3.6417,-3.6417,-3.6417,-3.6219,-3.5994,-3.5981,-3.5855,-3.5567,-3.5027,-3.458,-3.4299,-3.3759,-3.352,-3.3495,-3.325,-3.2943,-3.2679,-3.2679,-3.2378,-3.1863,-3.1825,-3.1549,-3.1035,-3.0758,-3.0482,-3.0206,-2.9666,-2.939,-2.9352,-2.8825,-2.8423,-2.8147,-2.7595,-2.719,-2.6952,-2.665,-2.6487,-2.6487,-2.6487,-2.6487,-2.6487,-2.6487,-2.621,-2.5611,-2.536,-2.4743,-2.3778,-2.3597,-2.3157,-2.24,-2.2143,-2.1748,-2.1255,-2.0852,-2.051,-2.0215,-1.9755,-1.9778,-2.0418,-2.0695,-2.1211,-2.2129,-2.0849,-2.0396,-2.1222,-2.0246,-1.9727,-1.9951,-1.998,-2.0303,-2.0974,-2.1032,-2.1424,-2.2341,-2.2186,-2.2081,-2.2321,-2.2537,-2.2465,-2.2082,-2.2735,-2.3105,-2.261,-2.2884,-2.3108,-2.3095,-2.3108,-2.3108,-2.3108,-2.3108,-2.3108,-2.3095,-2.3095,-2.3095,-2.3095,-2.3095,-2.3095,-2.3095,-2.2793,-2.2537,-2.2598,-2.2384,-2.2341,-2.1928,-2.2433,-2.2854,-2.2598,-2.2457,-2.261,-2.2975,-2.2445,-2.2094,-2.2292,-2.1908,-2.1037,-3.6417,-3.6417,-3.6417,-3.6417,-3.6417,-3.6417,-3.6417,-3.6367,-3.5893,-3.5445,-3.5039,-3.4387,-3.4085,-3.4035,-3.3508,-3.3269,-3.3244,-3.3131,-3.2872,-3.2441,-3.2403,-3.2114,-3.1587,-3.1148,-3.0909,-3.0746,-3.0231,-2.998,-2.9917,-2.9402,-2.9013,-2.8813,-2.7946,-2.7457,-2.7457,-2.7077,-2.6813,-2.6688,-2.6675,-2.6625,-2.6499,-2.6487,-2.6273,-2.5837,-2.582,-2.5306,-2.4265,-2.4843,-2.4677,-2.366,-2.3644,-2.3579,-2.3218,-2.2698,-2.2185,-2.18,-2.1524,-2.1524,-2.1759,-2.1811,-2.2433,-2.3663,-2.2274,-2.1897,-2.3125,-2.1824,-2.0848,-2.1209,-2.1306,-2.1573,-2.2157,-2.2317,-2.2696,-2.3503,-2.3319,-2.3118,-2.3202,-2.3447,-2.349,-2.3192,-2.37,-2.3985,-2.3622,-2.3484,-2.3534,-2.3559,-2.3484,-2.3446,-2.3346,-2.3296,-2.3271,-2.3133,-2.3095,-2.3095,-2.3095,-2.3095,-2.3095,-2.3095,-2.3065,-2.2823,-2.2506,-2.2763,-2.2659,-2.1803,-2.2279,-2.2781,-2.2341,-2.2218,-2.2476,-2.2944,-2.2641,-2.2414,-2.2854,-2.2598,-2.1908,-3.6417,-3.6417,-3.6417,-3.6417,-3.6417,-3.6417,-3.6417,-3.6405,-3.6342,-3.6317,-3.6103,-3.5115,-3.465,-3.4575,-3.4073,-3.3834,-3.3784,-3.3307,-3.3099,-3.3006,-3.2993,-3.2692,-3.2164,-3.2064,-3.18,-3.1311,-3.0796,-3.052,-3.0457,-2.9955,-2.944,-2.8888,-2.8323,-2.8034,-2.8009,-2.7959,-2.7695,-2.7266,-2.7218,-2.7002,-2.6524,-2.6487,-2.6461,-2.6424,-2.6399,-2.6364,-2.609,-2.6314,-2.6264,-2.6158,-2.6074,-2.5743,-2.4895,-2.4696,-2.4649,-2.4507,-2.3731,-2.3646,-2.4412,-2.38,-2.375,-2.466,-2.3806,-2.3246,-2.3562,-2.3312,-2.3165,-2.322,-2.322,-2.3158,-2.3379,-2.3368,-2.3623,-2.4155,-2.4164,-2.4178,-2.4464,-2.4638,-2.4621,-2.4628,-2.4586,-2.4675,-2.4525,-2.4499,-2.455,-2.4462,-2.4437,-2.4299,-2.4004,-2.3916,-2.3715,-2.3283,-2.312,-2.312,-2.3108,-2.3095,-2.3095,-2.3095,-2.3095,-2.3005,-2.2944,-2.2944,-2.2975,-2.2659,-2.2811,-2.2975,-2.2975,-2.2975,-2.2944,-2.3005,-2.2975,-2.2975,-2.3078,-2.2987,-2.2567,-3.6417,-3.6417,-3.6417,-3.6417,-3.6417,-3.6417,-3.6417,-3.6417,-3.6417,-3.6417,-3.6367,-3.5881,-3.5516,-3.5132,-3.4638,-3.4387,-3.4349,-3.3809,-3.3558,-3.3533,-3.3232,-3.2943,-3.2717,-3.2353,-3.2077,-3.1851,-3.1336,-3.0909,-3.057,-3.0068,-2.9666,-2.9402,-2.8863,-2.8549,-2.8537,-2.8273,-2.7984,-2.7783,-2.777,-2.7657,-2.7429,-2.6826,-2.6487,-2.6487,-2.6487,-2.6487,-2.6487,-2.6487,-2.6487,-2.6487,-2.6487,-2.6302,-2.5908,-2.5873,-2.5629,-2.504,-2.4636,-2.4564,-2.4969,-2.4588,-2.4826,-2.5838,-2.4397,-2.3952,-2.5134,-2.4731,-2.4588,-2.5016,-2.4205,-2.3708,-2.4264,-2.4373,-2.4684,-2.5335,-2.5271,-2.5098,-2.5244,-2.5021,-2.48,-2.48,-2.48,-2.4813,-2.48,-2.48,-2.48,-2.48,-2.48,-2.4713,-2.4506,-2.4481,-2.423,-2.3791,-2.364,-2.3446,-2.3195,-2.3095,-2.3095,-2.3095,-2.3095,-2.3095,-2.3095,-2.3095,-2.3095,-2.3095,-2.3095,-2.3095,-2.3065,-2.3095,-2.3095,-2.3095,-2.3095,-2.3095,-2.3095,-2.3095,-2.2914,-3.6417,-3.6417,-3.6417,-3.6417,-3.6417,-3.6417,-3.6417,-3.6417,-3.6417,-3.6417,-3.6417,-3.6417,-3.6144,-3.5683,-3.519,-3.4906,-3.4831,-3.4374,-3.4123,-3.406,-3.3558,-3.3294,-3.3232,-3.2717,-3.2453,-3.2365,-3.1888,-3.1348,-3.0821,-3.0281,-3.0018,-2.993,-2.9414,-2.9164,-2.9126,-2.875,-2.8486,-2.8335,-2.8335,-2.826,-2.8021,-2.7354,-2.6864,-2.6738,-2.6713,-2.6663,-2.6499,-2.6487,-2.6487,-2.6487,-2.6487,-2.6487,-2.6487,-2.6487,-2.6176,-2.5511,-2.5406,-2.5406,-2.5406,-2.5406,-2.5734,-2.6267,-2.5063,-2.4909,-2.6037,-2.5938,-2.5903,-2.6223,-2.5289,-2.4931,-2.5264,-2.5406,-2.5734,-2.6358,-2.6097,-2.5837,-2.5833,-2.5473,-2.531,-2.5259,-2.5385,-2.5272,-2.5285,-2.5322,-2.536,-2.5347,-2.5322,-2.5159,-2.5071,-2.5021,-2.4845,-2.4318,-2.423,-2.3873,-2.3283,-2.3095,-2.3095,-2.3095,-2.3095,-2.3095,-2.3095,-2.3095,-2.3095,-2.3095,-2.3095,-2.3095,-2.3095,-2.3095,-2.3095,-2.3095,-2.3095,-2.3095,-2.3095,-2.3095,-2.3095,-3.6417,-3.643,-3.6417,-3.643,-3.6417,-3.6417,-3.6417,-3.6417,-3.6417,-3.6417,-3.6417,-3.6417,-3.6392,-3.6304,-3.5683,-3.547,-3.5395,-3.4893,-3.4688,-3.4593,-3.4123,-3.3859,-3.3822,-3.3307,-3.3074,-3.2993,-3.2453,-3.1901,-3.1361,-3.0834,-3.057,-3.0505,-3.003,-2.9754,-2.9741,-2.9666,-2.9428,-2.8913,-2.89,-2.8624,-2.8222,-2.8097,-2.7783,-2.7356,-2.7278,-2.7052,-2.6625,-2.6512,-2.6524,-2.6512,-2.6562,-2.6549,-2.6524,-2.6537,-2.654,-2.6446,-2.6433,-2.6433,-2.6424,-2.6449,-2.6471,-2.6527,-2.6405,-2.6386,-2.6606,-2.6899,-2.6937,-2.6587,-2.6779,-2.6733,-2.6467,-2.6308,-2.6314,-2.6452,-2.6461,-2.6411,-2.6424,-2.6311,-2.6399,-2.6336,-2.6273,-2.6235,-2.6336,-2.6424,-2.6298,-2.6285,-2.6348,-2.6185,-2.5686,-2.5561,-2.5335,-2.4958,-2.4687,-2.4374,-2.3396,-2.3233,-2.3208,-2.3183,-2.3233,-2.3108,-2.3108,-2.3095,-2.3108,-2.3095,-2.3095,-2.3095,-2.3095,-2.3095,-2.3095,-2.3095,-2.3095,-2.3095,-2.3095,-2.3095,-2.3095,-3.6945,-3.6908,-3.6556,-3.6606,-3.6895,-3.6568,-3.6417,-3.6417,-3.6417,-3.6417,-3.6417,-3.6417,-3.6417,-3.6345,-3.6157,-3.6069,-3.6019,-3.5445,-3.5207,-3.5144,-3.463,-3.4424,-3.4361,-3.3859,-3.3596,-3.352,-3.3018,-3.2478,-3.1901,-3.1373,-3.111,-3.1022,-3.0583,-3.0319,-3.0256,-2.9967,-2.9679,-2.9503,-2.949,-2.9365,-2.9176,-2.9189,-2.8913,-2.836,-2.7984,-2.772,-2.7519,-2.7507,-2.7519,-2.7507,-2.7542,-2.7519,-2.7507,-2.7519,-2.7507,-2.7542,-2.7519,-2.7507,-2.7507,-2.7519,-2.7519,-2.7519,-2.7519,-2.7469,-2.7544,-2.7695,-2.7708,-2.7544,-2.7341,-2.7293,-2.7369,-2.6939,-2.6487,-2.6487,-2.6487,-2.6487,-2.6487,-2.6487,-2.6487,-2.6487,-2.6487,-2.6487,-2.6487,-2.6487,-2.6487,-2.6487,-2.6487,-2.6386,-2.626,-2.6185,-2.5925,-2.5473,-2.5297,-2.5071,-2.4349,-2.3847,-2.3665,-2.3565,-2.3459,-2.3233,-2.3145,-2.317,-2.3195,-2.3108,-2.3095,-2.3095,-2.3095,-2.3095,-2.3095,-2.3095,-2.3095,-2.3095,-2.3095,-2.3095,-2.3095,-3.745,-3.7387,-3.7048,-3.7098,-3.7362,-3.6908,-3.6669,-3.6656,-3.6493,-3.6417,-3.6417,-3.6417,-3.6417,-3.6417,-3.6417,-3.6417,-3.638,-3.5968,-3.5759,-3.5768,-3.524,-3.4944,-3.4843,-3.4424,-3.406,-3.3834,-3.3332,-3.2855,-3.2466,-3.1926,-3.1662,-3.1625,-3.1122,-3.0871,-3.0796,-3.0482,-3.0256,-3.0105,-3.0055,-2.998,-2.9829,-2.9779,-2.9616,-2.9214,-2.8837,-2.8461,-2.8147,-2.8109,-2.8109,-2.8109,-2.8109,-2.8109,-2.8109,-2.8109,-2.8109,-2.8109,-2.8097,-2.8109,-2.8109,-2.8109,-2.8097,-2.8097,-2.8109,-2.8109,-2.8109,-2.8223,-2.8285,-2.8109,-2.8009,-2.7971,-2.7896,-2.7419,-2.6964,-2.6776,-2.66,-2.6499,-2.6487,-2.6487,-2.6487,-2.6487,-2.6487,-2.6487,-2.6487,-2.6487,-2.6487,-2.6487,-2.6487,-2.6487,-2.6487,-2.6474,-2.6399,-2.5996,-2.5921,-2.5749,-2.5335,-2.4921,-2.4431,-2.4255,-2.4054,-2.3672,-2.3396,-2.3384,-2.3296,-2.317,-2.3095,-2.3095,-2.3095,-2.3095,-2.3095,-2.3095,-2.3095,-2.3095,-2.3095,-2.3095,-2.3095,-3.8015,-3.8002,-3.799,-3.7939,-3.7927,-3.7425,-3.7186,-3.7111,-3.6732,-3.6568,-3.6543,-3.6468,-3.648,-3.6417,-3.6417,-3.6417,-3.6405,-3.6342,-3.6329,-3.6279,-3.578,-3.552,-3.5458,-3.4931,-3.4449,-3.3972,-3.337,-3.3106,-3.3043,-3.2516,-3.2215,-3.2127,-3.1662,-3.1411,-3.1386,-3.1273,-3.1072,-3.0721,-3.0608,-3.0382,-2.9892,-2.988,-2.9854,-2.9792,-2.9716,-2.9202,-2.8247,-2.821,-2.8273,-2.8235,-2.8222,-2.8134,-2.826,-2.826,-2.8185,-2.826,-2.8197,-2.8172,-2.8197,-2.8247,-2.8298,-2.8298,-2.821,-2.831,-2.8398,-2.8687,-2.8725,-2.8461,-2.8561,-2.865,-2.8298,-2.8047,-2.777,-2.7344,-2.6964,-2.67,-2.6575,-2.6499,-2.6487,-2.6487,-2.6487,-2.6487,-2.6487,-2.6487,-2.6487,-2.6487,-2.6487,-2.6487,-2.6487,-2.6487,-2.6487,-2.6449,-2.6348,-2.6185,-2.6122,-2.5963,-2.5448,-2.4996,-2.4745,-2.4412,-2.4073,-2.3948,-2.3697,-2.3534,-2.3158,-2.3133,-2.3095,-2.3095,-2.3095,-2.3095,-2.3095,-2.3095,-2.3095,-2.3095,-2.3095,-3.8605,-3.8542,-3.8165,-3.8241,-3.8504,-3.799,-3.7764,-3.7739,-3.755,-3.7287,-3.6973,-3.6923,-3.6769,-3.6468,-3.6417,-3.6417,-3.6417,-3.6417,-3.6417,-3.638,-3.6182,-3.6094,-3.5994,-3.5495,-3.4944,-3.4449,-3.3897,-3.3646,-3.3545,-3.3081,-3.2805,-3.2704,-3.224,-3.1976,-3.1938,-3.1587,-3.1273,-3.1173,-3.1148,-3.1047,-3.0859,-3.0532,-3.0369,-3.0306,-2.9993,-2.9591,-2.9289,-2.9264,-2.9264,-2.9239,-2.9277,-2.9277,-2.9264,-2.9264,-2.9277,-2.9264,-2.9264,-2.9264,-2.9264,-2.9239,-2.9227,-2.9252,-2.9239,-2.9264,-2.9264,-2.9377,-2.9415,-2.9202,-2.9101,-2.895,-2.9101,-2.8536,-2.8109,-2.7871,-2.7682,-2.7381,-2.709,-2.6763,-2.6524,-2.6487,-2.6487,-2.6487,-2.6499,-2.6499,-2.6487,-2.6487,-2.6487,-2.6487,-2.6487,-2.6487,-2.6487,-2.6487,-2.6487,-2.6487,-2.6361,-2.6273,-2.6021,-2.5586,-2.5335,-2.5034,-2.4732,-2.4487,-2.4243,-2.3866,-2.3446,-2.3208,-2.317,-2.3095,-2.3095,-2.3095,-2.3095,-2.3095,-2.3095,-2.3095,-2.3095,-3.917,-3.9132,-3.8793,-3.8831,-3.9094,-3.8567,-3.8329,-3.8291,-3.809,-3.7814,-3.7525,-3.7487,-3.7312,-3.7071,-3.7021,-3.6895,-3.6697,-3.6719,-3.6593,-3.643,-3.6417,-3.6417,-3.6329,-3.5805,-3.5345,-3.4956,-3.4474,-3.4211,-3.4173,-3.3671,-3.3395,-3.3282,-3.2805,-3.2528,-3.2516,-3.2202,-3.1938,-3.1738,-3.17,-3.1599,-3.1373,-3.1072,-3.0896,-3.0846,-3.0557,-3.0407,-3.0382,-3.0382,-3.0193,-2.988,-2.9779,-2.9779,-2.9779,-2.9767,-2.9779,-2.9779,-2.9779,-2.9767,-2.9779,-2.9716,-2.9779,-2.9779,-2.9779,-2.9767,-2.9779,-2.9779,-2.9779,-2.9716,-2.949,-2.9402,-2.9591,-2.9227,-2.8762,-2.8725,-2.831,-2.7984,-2.7595,-2.7329,-2.7118,-2.7092,-2.6977,-2.6839,-2.6801,-2.6562,-2.6512,-2.6487,-2.6487,-2.6487,-2.6487,-2.6487,-2.6512,-2.6512,-2.6487,-2.6487,-2.6487,-2.6474,-2.6474,-2.6197,-2.5921,-2.5548,-2.5222,-2.5109,-2.4921,-2.4381,-2.3923,-2.3678,-2.359,-2.3221,-2.3095,-2.3095,-2.3158,-2.3095,-2.3095,-2.3095,-2.3095,-3.9685,-3.9697,-3.9685,-3.9622,-3.9584,-3.912,-3.8969,-3.8831,-3.8404,-3.8153,-3.8078,-3.8065,-3.8002,-3.7965,-3.7826,-3.7588,-3.7312,-3.7236,-3.701,-3.6707,-3.6556,-3.6505,-3.6342,-3.5893,-3.5608,-3.5516,-3.5039,-3.4776,-3.4738,-3.4211,-3.3947,-3.3884,-3.3407,-3.3106,-3.3081,-3.3124,-3.2704,-3.2328,-3.2265,-3.2026,-3.1599,-3.1461,-3.1436,-3.1424,-3.1336,-3.1248,-3.1223,-3.1198,-3.0821,-3.0005,-2.9905,-2.988,-2.9804,-2.9779,-2.9779,-2.9779,-2.9779,-2.9779,-2.9779,-2.9779,-2.9779,-2.9779,-2.9779,-2.9779,-2.9779,-2.9779,-2.9779,-2.9779,-2.9729,-2.9741,-2.9779,-2.9691,-2.9654,-2.9616,-2.8812,-2.826,-2.8172,-2.8072,-2.7908,-2.7883,-2.7632,-2.7318,-2.7341,-2.6964,-2.6776,-2.6725,-2.6751,-2.6801,-2.6801,-2.6864,-2.665,-2.6637,-2.67,-2.6562,-2.6587,-2.6487,-2.6487,-2.6411,-2.621,-2.6009,-2.5661,-2.5561,-2.5423,-2.4895,-2.4443,-2.418,-2.3979,-2.3697,-2.3421,-2.3371,-2.3321,-2.317,-2.3108,-2.312,-2.3158,-3.9697,-3.9697,-3.9697,-3.9697,-3.9685,-3.9521,-3.9471,-3.9459,-3.9308,-3.8956,-3.8718,-3.8655,-3.8429,-3.8052,-3.804,-3.7914,-3.7826,-3.7801,-3.7751,-3.7525,-3.7136,-3.6782,-3.6468,-3.6232,-3.6132,-3.6044,-3.5592,-3.5282,-3.5245,-3.4731,-3.4512,-3.4487,-3.396,-3.3684,-3.3646,-3.3307,-3.3031,-3.288,-3.2885,-3.278,-3.2566,-3.2177,-3.2001,-3.1964,-3.1637,-3.1449,-3.1399,-3.1386,-3.111,-3.0495,-3.0407,-3.0193,-2.9905,-2.9854,-2.9892,-2.988,-2.9842,-2.9817,-2.9817,-2.9842,-2.9817,-2.9779,-2.9905,-2.9792,-2.9779,-2.9792,-2.9792,-2.9779,-2.9779,-2.9804,-2.9804,-2.9792,-2.9792,-2.9704,-2.9126,-2.8675,-2.8649,-2.8348,-2.8109,-2.8084,-2.7996,-2.7908,-2.7846,-2.7708,-2.757,-2.7582,-2.757,-2.7557,-2.7457,-2.7469,-2.7369,-2.7143,-2.7067,-2.6839,-2.6663,-2.6549,-2.6487,-2.6487,-2.6411,-2.6373,-2.6097,-2.5862,-2.5674,-2.5347,-2.4921,-2.4619,-2.4594,-2.4449,-2.4148,-2.376,-2.3747,-2.3697,-2.3296,-2.3158,-2.3246,-3.9697,-3.9697,-3.9697,-3.9697,-3.9697,-3.9697,-3.9697,-3.9697,-3.9685,-3.9534,-3.9258,-3.9258,-3.9032,-3.873,-3.8718,-3.8567,-3.8391,-3.8366,-3.8228,-3.7939,-3.7663,-3.7111,-3.6581,-3.6417,-3.6417,-3.638,-3.6044,-3.5906,-3.5793,-3.5295,-3.5056,-3.4919,-3.4512,-3.4261,-3.4211,-3.3721,-3.342,-3.3413,-3.3275,-3.3124,-3.3074,-3.2767,-3.2616,-3.2528,-3.224,-3.2102,-3.2102,-3.2102,-3.1763,-3.1148,-3.0922,-3.0783,-3.052,-3.047,-3.047,-3.0457,-3.047,-3.0482,-3.0457,-3.047,-3.047,-3.047,-3.047,-3.047,-3.0482,-3.0457,-3.0457,-3.0495,-3.0294,-3.0156,-3.0093,-2.9942,-2.9804,-2.9754,-2.9478,-2.9289,-2.9289,-2.9038,-2.885,-2.8775,-2.8612,-2.8411,-2.8436,-2.8273,-2.8147,-2.8084,-2.8009,-2.8021,-2.8021,-2.8109,-2.8072,-2.7783,-2.757,-2.7356,-2.7128,-2.6964,-2.6688,-2.665,-2.66,-2.6587,-2.6373,-2.6126,-2.605,-2.5799,-2.541,-2.5146,-2.5146,-2.5021,-2.46,-2.4349,-2.4356,-2.423,-2.3873,-2.3572,-2.3609,-3.9697,-3.9697,-3.9697,-3.9697,-3.9697,-3.9697,-3.9697,-3.9697,-3.9697,-3.9685,-3.9647,-3.9685,-3.9584,-3.9697,-3.9471,-3.9383,-3.9007,-3.8956,-3.8592,-3.8304,-3.8027,-3.76,-3.6845,-3.6644,-3.6531,-3.643,-3.6417,-3.6367,-3.6182,-3.5818,-3.5608,-3.5458,-3.5031,-3.4781,-3.47,-3.4274,-3.401,-3.3922,-3.3633,-3.3426,-3.3338,-3.3181,-3.3106,-3.2998,-3.2986,-3.2935,-3.2973,-3.2973,-3.2554,-3.1625,-3.1512,-3.1411,-3.1373,-3.1348,-3.1336,-3.1273,-3.1223,-3.1248,-3.1323,-3.1223,-3.1298,-3.1248,-3.1273,-3.1386,-3.1248,-3.1198,-3.1198,-3.1185,-3.0947,-3.0733,-3.0645,-3.0269,-3.0143,-3.0118,-2.9993,-2.988,-2.9867,-2.9829,-2.9779,-2.9767,-2.9289,-2.9038,-2.885,-2.8637,-2.8323,-2.8737,-2.8674,-2.8687,-2.8687,-2.8712,-2.8561,-2.8273,-2.8097,-2.7959,-2.767,-2.7394,-2.7055,-2.6864,-2.6801,-2.6725,-2.6524,-2.6386,-2.6436,-2.6273,-2.5908,-2.5711,-2.5686,-2.5448,-2.5121,-2.4933,-2.4895,-2.4845,-2.4732,-2.4399,-2.4311,-3.9697,-3.9697,-3.9697,-3.9697,-3.9697,-3.9697,-3.9697,-3.9697,-3.9697,-3.9697,-3.9697,-3.9697,-3.9697,-3.9697,-3.9697,-3.9622,-3.9484,-3.9446,-3.9207,-3.8793,-3.868,-3.8304,-3.7651,-3.7249,-3.6845,-3.6568,-3.643,-3.6417,-3.6342,-3.6279,-3.6182,-3.6081,-3.5642,-3.532,-3.5245,-3.4839,-3.4537,-3.4525,-3.4387,-3.4085,-3.3771,-3.3709,-3.3533,-3.3194,-3.3162,-3.3093,-3.3124,-3.3124,-3.2998,-3.2667,-3.2277,-3.1888,-3.1599,-3.1486,-3.1499,-3.1512,-3.1474,-3.1436,-3.1411,-3.1486,-3.1411,-3.154,-3.1537,-3.1386,-3.1399,-3.1461,-3.1436,-3.1386,-3.1273,-3.1223,-3.1135,-3.111,-3.0947,-3.0846,-3.0633,-3.0432,-3.0369,-3.0055,-2.9817,-2.9754,-2.9679,-2.9603,-2.9591,-2.9465,-2.9327,-2.9402,-2.9377,-2.9402,-2.9352,-2.9264,-2.9063,-2.8787,-2.8725,-2.8561,-2.8122,-2.7821,-2.7494,-2.7243,-2.7155,-2.6964,-2.6751,-2.6587,-2.6625,-2.6562,-2.6411,-2.6273,-2.6109,-2.616,-2.5883,-2.5682,-2.5423,-2.5322,-2.5222,-2.5059,-2.5046,-3.9697,-3.9697,-3.9697,-3.9697,-3.9697,-3.9697,-3.9697,-3.9697,-3.9697,-3.9697,-3.9697,-3.9697,-3.9697,-3.9697,-3.9697,-3.9697,-3.9697,-3.9697,-3.9546,-3.9295,-3.9233,-3.8944,-3.8492,-3.8065,-3.7637,-3.6885,-3.6795,-3.6681,-3.648,-3.643,-3.638,-3.6405,-3.6056,-3.5931,-3.5843,-3.5391,-3.5094,-3.4981,-3.4781,-3.4562,-3.4336,-3.4274,-3.4022,-3.3571,-3.3445,-3.337,-3.3119,-3.3124,-3.3124,-3.3036,-3.278,-3.2503,-3.2265,-3.2164,-3.2164,-3.219,-3.2231,-3.219,-3.219,-3.2177,-3.2202,-3.2194,-3.2177,-3.2219,-3.2219,-3.2177,-3.2177,-3.2114,-3.1938,-3.17,-3.1424,-3.1373,-3.1386,-3.1348,-3.116,-3.0984,-3.0859,-3.0294,-2.9779,-2.9779,-2.9767,-2.9754,-2.9779,-2.9779,-2.9754,-2.9591,-2.9591,-2.9603,-2.9616,-2.9553,-2.9541,-2.9377,-2.9352,-2.9126,-2.8624,-2.8247,-2.7946,-2.777,-2.7695,-2.7381,-2.7067,-2.6952,-2.6826,-2.6663,-2.6474,-2.6474,-2.6373,-2.6461,-2.6449,-2.621,-2.5971,-2.5799,-2.5737,-2.5749,-2.5762,-3.9697,-3.9697,-3.9697,-3.9697,-3.9697,-3.9697,-3.9697,-3.9697,-3.9697,-3.9697,-3.9697,-3.9697,-3.9697,-3.9697,-3.9697,-3.9697,-3.9697,-3.9697,-3.9634,-3.9622,-3.9597,-3.9371,-3.9032,-3.8843,-3.8442,-3.7513,-3.7337,-3.7048,-3.6707,-3.6518,-3.6556,-3.6443,-3.6405,-3.6317,-3.6241,-3.5943,-3.5667,-3.5617,-3.5328,-3.5014,-3.4831,-3.4839,-3.4517,-3.4123,-3.401,-3.3859,-3.3583,-3.3483,-3.3395,-3.3319,-3.33,-3.325,-3.3224,-3.3136,-3.3124,-3.3086,-3.2973,-3.2935,-3.291,-3.2998,-3.3011,-3.3124,-3.3086,-3.3074,-3.3036,-3.2973,-3.2948,-3.286,-3.2591,-3.2202,-3.1725,-3.1788,-3.1763,-3.1687,-3.1625,-3.1524,-3.1348,-3.062,-3.0218,-2.998,-3.003,-3.0043,-2.9867,-2.9779,-2.9779,-2.9779,-2.9779,-2.9779,-2.9779,-2.9779,-2.9716,-2.9691,-2.9616,-2.9578,-2.9139,-2.8925,-2.8599,-2.831,-2.8235,-2.7908,-2.7544,-2.7419,-2.7266,-2.6675,-2.6487,-2.6499,-2.6499,-2.6474,-2.6474,-2.6487,-2.6411,-2.6197,-2.6273,-2.6461,-2.6399,-3.9697,-3.9697,-3.9697,-3.9697,-3.9697,-3.9697,-3.9697,-3.9697,-3.9697,-3.9697,-3.9697,-3.9697,-3.9697,-3.9697,-3.9697,-3.9697,-3.9697,-3.9697,-3.9697,-3.9697,-3.9697,-3.9559,-3.9509,-3.9433,-3.912,-3.8617,-3.8165,-3.7651,-3.7161,-3.7084,-3.6883,-3.6543,-3.6455,-3.6455,-3.6405,-3.6304,-3.6144,-3.6119,-3.5956,-3.5755,-3.5445,-3.5332,-3.5094,-3.465,-3.4542,-3.4474,-3.4424,-3.4367,-3.4405,-3.4424,-3.401,-3.3809,-3.3684,-3.3395,-3.3237,-3.3124,-3.3124,-3.3124,-3.3124,-3.3124,-3.3124,-3.3124,-3.3124,-3.3124,-3.3124,-3.3124,-3.3124,-3.3099,-3.3036,-3.2885,-3.2872,-3.2671,-3.2772,-3.2654,-3.234,-3.2089,-3.1951,-3.1549,-3.0947,-3.067,-3.0532,-3.0306,-3.0093,-2.988,-2.9779,-2.9779,-2.9779,-2.9779,-2.9779,-2.9779,-2.9767,-2.9767,-2.9754,-2.9741,-2.9641,-2.9553,-2.934,-2.8938,-2.875,-2.8461,-2.821,-2.8034,-2.7695,-2.7178,-2.6725,-2.6575,-2.6562,-2.6512,-2.6487,-2.6487,-2.6487,-2.6487,-2.6487,-2.6487,-2.6487,-3.9697,-3.9697,-3.9697,-3.9697,-3.9697,-3.9697,-3.9697,-3.9697,-3.9697,-3.9697,-3.9697,-3.9697,-3.9697,-3.9697,-3.9697,-3.9697,-3.9697,-3.9697,-3.9697,-3.9697,-3.9697,-3.9697,-3.9697,-3.9697,-3.9559,-3.9283,-3.8969,-3.8379,-3.7676,-3.7613,-3.7348,-3.6971,-3.6832,-3.6707,-3.6468,-3.6405,-3.6417,-3.6417,-3.6392,-3.6292,-3.5994,-3.5956,-3.5655,-3.5257,-3.5069,-3.4956,-3.4705,-3.468,-3.4668,-3.4618,-3.4462,-3.4349,-3.4236,-3.4048,-3.3658,-3.3287,-3.3149,-3.3124,-3.3124,-3.3124,-3.3124,-3.3124,-3.3124,-3.3124,-3.3124,-3.3124,-3.3124,-3.3124,-3.3124,-3.3124,-3.3086,-3.3124,-3.3124,-3.3086,-3.2805,-3.2667,-3.2591,-3.239,-3.1951,-3.1386,-3.0934,-3.0608,-3.0306,-3.0093,-2.9854,-2.9779,-2.9779,-2.9779,-2.9779,-2.9779,-2.9779,-2.9779,-2.9779,-2.9779,-2.9779,-2.9767,-2.9741,-2.944,-2.9227,-2.895,-2.88,-2.8599,-2.8185,-2.767,-2.7291,-2.6989,-2.6587,-2.6524,-2.6499,-2.6499,-2.6487,-2.6487,-2.6487,-2.6487,-2.6487,-3.9697,-3.9697,-3.9697,-3.9697,-3.9697,-3.9697,-3.9697,-3.9697,-3.9697,-3.9697,-3.9697,-3.9697,-3.9697,-3.9697,-3.9697,-3.9697,-3.9697,-3.9697,-3.9697,-3.9697,-3.9697,-3.9697,-3.9697,-3.9697,-3.9659,-3.9609,-3.9559,-3.9157,-3.8366,-3.8191,-3.7864,-3.75,-3.7349,-3.7121,-3.6732,-3.6669,-3.6556,-3.6417,-3.6417,-3.6417,-3.6417,-3.638,-3.6169,-3.5768,-3.5658,-3.5458,-3.524,-3.5203,-3.519,-3.5127,-3.4989,-3.4856,-3.4864,-3.4731,-3.4311,-3.3571,-3.3375,-3.3206,-3.3136,-3.3124,-3.3124,-3.3124,-3.3124,-3.3124,-3.3124,-3.3124,-3.3124,-3.3124,-3.3124,-3.3124,-3.3124,-3.3124,-3.3124,-3.3124,-3.3111,-3.3099,-3.3048,-3.2923,-3.2704,-3.2114,-3.1399,-3.0909,-3.062,-3.0344,-3.0118,-2.9792,-2.9779,-2.9779,-2.9779,-2.9779,-2.9779,-2.9779,-2.9779,-2.9779,-2.9779,-2.9779,-2.9767,-2.9666,-2.9553,-2.9428,-2.9264,-2.9114,-2.8674,-2.826,-2.8034,-2.7695,-2.714,-2.6625,-2.6663,-2.665,-2.6549,-2.6487,-2.6487,-2.6487,-2.6487,-3.9697,-3.9697,-3.9697,-3.9697,-3.9697,-3.9697,-3.9697,-3.9697,-3.9697,-3.9697,-3.9697,-3.9697,-3.9697,-3.9697,-3.9697,-3.9697,-3.9697,-3.9697,-3.9697,-3.9697,-3.9697,-3.9697,-3.9697,-3.9697,-3.9697,-3.9697,-3.9697,-3.9358,-3.8894,-3.8768,-3.8467,-3.8027,-3.7877,-3.7638,-3.7149,-3.7098,-3.6883,-3.6531,-3.643,-3.6417,-3.6417,-3.6417,-3.6355,-3.6292,-3.6241,-3.6132,-3.5981,-3.5956,-3.604,-3.6053,-3.5655,-3.5433,-3.5332,-3.4919,-3.4751,-3.4424,-3.4085,-3.3608,-3.3338,-3.3312,-3.3282,-3.3307,-3.3287,-3.3162,-3.33,-3.3312,-3.33,-3.3124,-3.3162,-3.3136,-3.3136,-3.3124,-3.3124,-3.3124,-3.3124,-3.3124,-3.3124,-3.3124,-3.2986,-3.286,-3.2102,-3.1424,-3.0934,-3.0658,-3.0382,-3.0043,-2.9804,-2.9867,-2.9892,-2.998,-2.9804,-2.9792,-2.9792,-2.9779,-2.9779,-2.9779,-2.9779,-2.9779,-2.9767,-2.9741,-2.9603,-2.9428,-2.9315,-2.895,-2.8725,-2.8335,-2.7708,-2.7291,-2.7014,-2.6876,-2.6851,-2.6675,-2.6487,-2.6487,-2.6512,-3.9697,-3.9697,-3.9697,-3.9697,-3.9697,-3.9697,-3.9697,-3.9697,-3.9697,-3.9697,-3.9697,-3.9697,-3.9697,-3.9697,-3.9697,-3.9697,-3.9697,-3.9697,-3.9697,-3.9697,-3.9697,-3.9697,-3.9697,-3.9697,-3.9697,-3.9697,-3.9685,-3.9634,-3.9358,-3.9258,-3.9044,-3.858,-3.8467,-3.8203,-3.7713,-3.7651,-3.7324,-3.6971,-3.6619,-3.643,-3.6417,-3.6417,-3.6417,-3.6417,-3.6417,-3.6417,-3.6417,-3.6417,-3.6417,-3.638,-3.6081,-3.6019,-3.5981,-3.5768,-3.5554,-3.5119,-3.4944,-3.4587,-3.4135,-3.4022,-3.3947,-3.3985,-3.3985,-3.4048,-3.401,-3.396,-3.3796,-3.3558,-3.3545,-3.342,-3.3181,-3.3124,-3.3124,-3.3136,-3.3212,-3.3136,-3.3136,-3.3124,-3.3074,-3.2986,-3.286,-3.2139,-3.1537,-3.1298,-3.106,-3.0733,-3.0595,-3.0658,-3.0583,-3.0507,-3.0206,-2.9804,-2.9792,-2.9779,-2.9779,-2.9779,-2.9779,-2.9779,-2.9779,-2.9767,-2.9767,-2.9666,-2.9541,-2.9528,-2.9377,-2.8888,-2.8285,-2.7908,-2.762,-2.7417,-2.719,-2.7065,-2.6914,-2.66,-2.66,-3.9697,-3.9697,-3.9697,-3.9697,-3.9697,-3.9697,-3.9697,-3.9697,-3.9697,-3.9697,-3.9697,-3.9697,-3.9697,-3.9697,-3.9697,-3.9697,-3.9697,-3.9697,-3.9697,-3.9697,-3.9697,-3.9697,-3.9697,-3.9697,-3.9697,-3.9697,-3.9697,-3.9659,-3.9672,-3.9622,-3.9421,-3.9094,-3.9069,-3.8743,-3.8366,-3.8178,-3.7952,-3.7412,-3.7109,-3.6857,-3.6694,-3.6609,-3.6543,-3.6468,-3.6417,-3.6417,-3.6417,-3.6417,-3.6417,-3.6405,-3.638,-3.6329,-3.6329,-3.6254,-3.6116,-3.5805,-3.568,-3.5529,-3.5102,-3.4864,-3.4731,-3.468,-3.468,-3.4517,-3.458,-3.4668,-3.458,-3.4123,-3.411,-3.3884,-3.3621,-3.3558,-3.3495,-3.3458,-3.3388,-3.3275,-3.3119,-3.3136,-3.3124,-3.3074,-3.2986,-3.2867,-3.2353,-3.2051,-3.1763,-3.1449,-3.1386,-3.1424,-3.1248,-3.1022,-3.0658,-3.0218,-3.0131,-3.0043,-2.9829,-2.9817,-2.9804,-2.9804,-2.9804,-2.9779,-2.9779,-2.9779,-2.9704,-2.9741,-2.9779,-2.9528,-2.8976,-2.8612,-2.8235,-2.7896,-2.7607,-2.7544,-2.7356,-2.704,-2.6813,-3.9697,-3.9697,-3.9697,-3.9697,-3.9697,-3.9697,-3.9697,-3.9697,-3.9697,-3.9697,-3.9697,-3.9697,-3.9697,-3.9697,-3.9697,-3.9697,-3.9697,-3.9697,-3.9697,-3.9697,-3.9697,-3.9697,-3.9697,-3.9697,-3.9697,-3.9697,-3.9697,-3.9697,-3.9697,-3.9697,-3.9659,-3.9634,-3.9496,-3.9233,-3.8931,-3.8693,-3.8454,-3.8015,-3.7726,-3.7462,-3.7236,-3.7086,-3.6971,-3.6593,-3.6468,-3.6417,-3.643,-3.643,-3.6417,-3.6417,-3.6417,-3.6417,-3.6417,-3.6417,-3.6304,-3.6254,-3.6169,-3.6128,-3.5881,-3.5366,-3.4876,-3.4718,-3.4793,-3.4964,-3.5027,-3.4839,-3.47,-3.4713,-3.463,-3.4587,-3.4525,-3.4537,-3.4161,-3.3935,-3.3721,-3.3483,-3.3319,-3.3106,-3.3136,-3.3124,-3.3074,-3.2955,-3.293,-3.2621,-3.2328,-3.2014,-3.1863,-3.1888,-3.1625,-3.1386,-3.1085,-3.0758,-3.062,-3.0394,-2.9967,-2.993,-3.003,-2.9955,-2.9892,-2.9829,-2.9779,-2.9779,-2.9779,-2.9779,-2.9779,-2.9741,-2.9666,-2.9202,-2.875,-2.831,-2.8047,-2.7996,-2.7896,-2.7632,-2.7419,-3.9697,-3.9697,-3.9697,-3.9697,-3.9697,-3.9697,-3.9697,-3.9697,-3.9697,-3.9697,-3.9697,-3.9697,-3.9697,-3.9697,-3.9697,-3.9697,-3.9697,-3.9697,-3.9697,-3.9697,-3.9697,-3.9697,-3.9697,-3.9697,-3.9697,-3.9697,-3.9697,-3.9697,-3.9697,-3.9697,-3.9697,-3.9697,-3.9697,-3.9597,-3.9358,-3.912,-3.8768,-3.8542,-3.8216,-3.7864,-3.7789,-3.7688,-3.7588,-3.7412,-3.696,-3.6897,-3.6883,-3.6556,-3.6455,-3.6417,-3.643,-3.6417,-3.6417,-3.6417,-3.6417,-3.6417,-3.6417,-3.6417,-3.6417,-3.599,-3.5755,-3.573,-3.5742,-3.568,-3.5617,-3.5692,-3.5504,-3.5345,-3.5182,-3.5165,-3.4763,-3.4713,-3.455,-3.4361,-3.4148,-3.3897,-3.3646,-3.3445,-3.3232,-3.3325,-3.3212,-3.3086,-3.3099,-3.3074,-3.2847,-3.2579,-3.2453,-3.2303,-3.2064,-3.1851,-3.1574,-3.1298,-3.1148,-3.1009,-3.062,-3.0444,-3.0306,-3.0181,-3.0055,-2.9967,-2.9917,-2.9779,-2.9779,-2.9779,-2.9779,-2.9754,-2.9704,-2.9591,-2.9315,-2.8976,-2.8674,-2.8461,-2.8335,-2.8247,-2.8059,-3.9546,-3.9685,-3.9697,-3.9697,-3.9697,-3.9697,-3.9697,-3.9697,-3.9697,-3.9697,-3.9697,-3.9697,-3.9697,-3.9697,-3.9697,-3.9697,-3.9697,-3.9697,-3.9697,-3.9697,-3.9697,-3.9697,-3.9697,-3.9697,-3.9697,-3.9697,-3.9697,-3.9697,-3.9697,-3.9697,-3.9697,-3.9697,-3.9697,-3.9672,-3.9584,-3.9346,-3.917,-3.8994,-3.8781,-3.8366,-3.8329,-3.8266,-3.8078,-3.7965,-3.7575,-3.745,-3.7287,-3.6985,-3.6697,-3.6644,-3.6556,-3.643,-3.6417,-3.6417,-3.6417,-3.6417,-3.6417,-3.6417,-3.6417,-3.6405,-3.6392,-3.6267,-3.6304,-3.6329,-3.6417,-3.6405,-3.6044,-3.5855,-3.5768,-3.5604,-3.5177,-3.5328,-3.5203,-3.5039,-3.4826,-3.4517,-3.4236,-3.3985,-3.3684,-3.3495,-3.3395,-3.3332,-3.3136,-3.3149,-3.3061,-3.2898,-3.2835,-3.2692,-3.2591,-3.2378,-3.219,-3.1913,-3.165,-3.1524,-3.1361,-3.1085,-3.0821,-3.0708,-3.0545,-3.0244,-3.0118,-2.998,-2.9817,-2.9779,-2.9779,-2.9779,-2.9741,-2.9679,-2.9704,-2.9704,-2.9365,-2.9001,-2.9038,-2.8938,-2.8662,-3.922,-3.9672,-3.9697,-3.9697,-3.9697,-3.9697,-3.9697,-3.9697,-3.9697,-3.9697,-3.9697,-3.9697,-3.9697,-3.9697,-3.9697,-3.9697,-3.9697,-3.9697,-3.9697,-3.9697,-3.9697,-3.9697,-3.9697,-3.9697,-3.9697,-3.9697,-3.9697,-3.9697,-3.9697,-3.9697,-3.9697,-3.9697,-3.9697,-3.9697,-3.9697,-3.9685,-3.9672,-3.9659,-3.9546,-3.9233,-3.8956,-3.8843,-3.8617,-3.8366,-3.8103,-3.8002,-3.7889,-3.7462,-3.7199,-3.7136,-3.6709,-3.6593,-3.6543,-3.6443,-3.6417,-3.6417,-3.6417,-3.6417,-3.6417,-3.6417,-3.6417,-3.6417,-3.6417,-3.6417,-3.6417,-3.6405,-3.6392,-3.6144,-3.6254,-3.6304,-3.6279,-3.6241,-3.5855,-3.5629,-3.5357,-3.5069,-3.4731,-3.4424,-3.411,-3.3935,-3.3859,-3.3721,-3.3357,-3.3119,-3.3119,-3.3081,-3.3111,-3.3074,-3.2943,-3.283,-3.2616,-3.2478,-3.2202,-3.2114,-3.1938,-3.1587,-3.1336,-3.1235,-3.1035,-3.0721,-3.0432,-3.0244,-3.0068,-2.9892,-2.9779,-2.9779,-2.9779,-2.9767,-2.9779,-2.9779,-2.9779,-2.9591,-2.9654,-2.9566,-2.9227,-3.9195,-3.9697,-3.9697,-3.9697,-3.9697,-3.9697,-3.9697,-3.9697,-3.9697,-3.9697,-3.9697,-3.9697,-3.9697,-3.9697,-3.9697,-3.9697,-3.9697,-3.9697,-3.9697,-3.9697,-3.9697,-3.9697,-3.9697,-3.9697,-3.9697,-3.9697,-3.9697,-3.9697,-3.9697,-3.9697,-3.9697,-3.9697,-3.9697,-3.9697,-3.9697,-3.9697,-3.9697,-3.9697,-3.9659,-3.9584,-3.9421,-3.9383,-3.9283,-3.9044,-3.8743,-3.8592,-3.8542,-3.8027,-3.7764,-3.7663,-3.7211,-3.6983,-3.6857,-3.6744,-3.6455,-3.643,-3.6417,-3.6417,-3.6417,-3.6417,-3.6417,-3.6417,-3.6417,-3.6417,-3.6417,-3.6417,-3.6417,-3.6417,-3.6417,-3.6417,-3.638,-3.6367,-3.6119,-3.6031,-3.5818,-3.547,-3.5132,-3.4781,-3.4525,-3.4487,-3.4424,-3.4135,-3.3796,-3.3596,-3.3533,-3.3282,-3.3275,-3.3162,-3.3031,-3.3018,-3.2948,-3.2905,-3.2767,-3.2692,-3.2516,-3.2152,-3.1951,-3.1876,-3.1574,-3.1198,-3.0909,-3.0645,-3.0419,-3.0281,-3.0018,-2.9779,-2.9779,-2.9779,-2.9779,-2.9779,-2.9779,-2.9779,-2.9741,-2.9729,-2.9641,-3.9007,-3.9672,-3.9697,-3.9697,-3.9697,-3.9697,-3.9697,-3.9697,-3.9697,-3.9697,-3.9697,-3.9697,-3.9697,-3.9697,-3.9697,-3.9697,-3.9697,-3.9697,-3.9697,-3.9697,-3.9697,-3.9697,-3.9697,-3.9697,-3.9697,-3.9697,-3.9697,-3.9697,-3.9697,-3.9697,-3.9697,-3.9697,-3.9697,-3.9697,-3.9697,-3.9697,-3.9697,-3.9697,-3.9685,-3.9685,-3.9647,-3.9659,-3.9659,-3.9534,-3.9346,-3.9145,-3.9045,-3.8693,-3.8304,-3.814,-3.7839,-3.7487,-3.7312,-3.7059,-3.6744,-3.6681,-3.648,-3.6455,-3.6417,-3.6417,-3.6417,-3.6417,-3.6417,-3.6417,-3.6417,-3.6417,-3.6417,-3.6417,-3.6417,-3.6417,-3.6417,-3.6417,-3.638,-3.6279,-3.6132,-3.5818,-3.5717,-3.5366,-3.5165,-3.5115,-3.4964,-3.465,-3.4311,-3.4161,-3.4035,-3.3709,-3.3395,-3.3269,-3.3131,-3.3136,-3.3124,-3.3111,-3.3056,-3.2943,-3.2842,-3.2704,-3.2554,-3.2516,-3.2139,-3.17,-3.1486,-3.1248,-3.0959,-3.0618,-3.0407,-3.0131,-2.9867,-2.9792,-2.9829,-2.9817,-2.9779,-2.9779,-2.9779,-2.9779,-2.9779,-3.8668,-3.9597,-3.9697,-3.9697,-3.9697,-3.9697,-3.9697,-3.9697,-3.9697,-3.9697,-3.9697,-3.9697,-3.9697,-3.9697,-3.9697,-3.9697,-3.9697,-3.9697,-3.9697,-3.9697,-3.9697,-3.9697,-3.9697,-3.9697,-3.9697,-3.9697,-3.9697,-3.9697,-3.9697,-3.9697,-3.9697,-3.9697,-3.9697,-3.9697,-3.9697,-3.9697,-3.9697,-3.9697,-3.9697,-3.9697,-3.9697,-3.9697,-3.9697,-3.9647,-3.9584,-3.9546,-3.9408,-3.9145,-3.8944,-3.8705,-3.8354,-3.8128,-3.7864,-3.7513,-3.7312,-3.7134,-3.6782,-3.6707,-3.6669,-3.6719,-3.6681,-3.6782,-3.6669,-3.6531,-3.6417,-3.6417,-3.6417,-3.6417,-3.6417,-3.6417,-3.6417,-3.6417,-3.6405,-3.6392,-3.6392,-3.6304,-3.6304,-3.6128,-3.5906,-3.5768,-3.5604,-3.527,-3.4843,-3.4675,-3.455,-3.411,-3.3784,-3.3533,-3.3382,-3.3149,-3.3136,-3.3124,-3.3111,-3.3124,-3.3048,-3.293,-3.2905,-3.278,-3.2591,-3.2227,-3.2039,-3.1813,-3.1499,-3.116,-3.0821,-3.0557,-3.0407,-3.0156,-2.993,-2.9905,-2.993,-2.9779,-2.9779,-2.9779,-2.9779,-3.8442,-3.9132,-3.9521,-3.9697,-3.9697,-3.9697,-3.9697,-3.9697,-3.9697,-3.9697,-3.9697,-3.9697,-3.9697,-3.9697,-3.9697,-3.9697,-3.9697,-3.9697,-3.9697,-3.9697,-3.9697,-3.9697,-3.9697,-3.9697,-3.9697,-3.9697,-3.9697,-3.9722,-3.9735,-3.9722,-3.9735,-3.9697,-3.971,-3.971,-3.9697,-3.9697,-3.9697,-3.9697,-3.9697,-3.9697,-3.9697,-3.9697,-3.9697,-3.9697,-3.9697,-3.9697,-3.9597,-3.9521,-3.9396,-3.932,-3.8894,-3.8642,-3.858,-3.8103,-3.7764,-3.7764,-3.7613,-3.755,-3.7525,-3.7525,-3.7462,-3.7387,-3.7425,-3.6973,-3.6732,-3.6493,-3.6505,-3.6518,-3.6443,-3.6417,-3.6417,-3.6417,-3.6417,-3.6417,-3.6417,-3.6417,-3.6417,-3.6367,-3.6157,-3.6119,-3.5981,-3.5818,-3.5403,-3.5257,-3.5115,-3.46,-3.4211,-3.3972,-3.3596,-3.3363,-3.3149,-3.3124,-3.3124,-3.3124,-3.3124,-3.3061,-3.3086,-3.3061,-3.2817,-3.2692,-3.2591,-3.2353,-3.2014,-3.1637,-3.126,-3.1122,-3.106,-3.0758,-3.0382,-3.0218,-3.0193,-2.9955,-2.9792,-2.9829,-2.9804,-3.814,-3.8932,-3.922,-3.9484,-3.9685,-3.9697,-3.9697,-3.9697,-3.9697,-3.9697,-3.9697,-3.9697,-3.9697,-3.9697,-3.9697,-3.9697,-3.9697,-3.9697,-3.9697,-3.9697,-3.9697,-3.9697,-3.9697,-3.9697,-3.9697,-3.9697,-3.9747,-3.9835,-3.9948,-4.0023,-4.0036,-4.0036,-3.9873,-3.9735,-3.9697,-3.9697,-3.9697,-3.9697,-3.9697,-3.9697,-3.9697,-3.9697,-3.9697,-3.9697,-3.9697,-3.9697,-3.9697,-3.9697,-3.9697,-3.9697,-3.9283,-3.9207,-3.9158,-3.868,-3.814,-3.8078,-3.7939,-3.7889,-3.7877,-3.7914,-3.7977,-3.8015,-3.804,-3.7676,-3.7249,-3.696,-3.6847,-3.6807,-3.6581,-3.6417,-3.6417,-3.6417,-3.6417,-3.6417,-3.6417,-3.6417,-3.6417,-3.6417,-3.6405,-3.6392,-3.6317,-3.6157,-3.6006,-3.5918,-3.5692,-3.5169,-3.4806,-3.4568,-3.4073,-3.3514,-3.3262,-3.3124,-3.3124,-3.3124,-3.3124,-3.3124,-3.3124,-3.3124,-3.3074,-3.2943,-3.3036,-3.283,-3.2453,-3.2064,-3.1662,-3.1549,-3.1449,-3.1198,-3.0896,-3.0758,-3.067,-3.0595,-3.0331,-2.9993,-2.9942,-3.7876,-3.8856,-3.8894,-3.9283,-3.9659,-3.9697,-3.9697,-3.9697,-3.9697,-3.9697,-3.9697,-3.9697,-3.9697,-3.9697,-3.9697,-3.9697,-3.9697,-3.9697,-3.9697,-3.9697,-3.9697,-3.9697,-3.9697,-3.9697,-3.9785,-3.976,-3.9873,-4.0149,-4.0475,-4.0576,-4.0576,-4.0551,-4.0199,-4.0011,-3.9923,-3.9898,-3.9848,-3.9697,-3.9697,-3.9697,-3.9697,-3.9697,-3.9697,-3.9697,-3.9697,-3.9697,-3.9697,-3.9697,-3.9697,-3.9697,-3.9685,-3.9647,-3.9459,-3.922,-3.8693,-3.8479,-3.8417,-3.8404,-3.8429,-3.8429,-3.8366,-3.8291,-3.814,-3.8253,-3.809,-3.7525,-3.7299,-3.6998,-3.682,-3.6556,-3.6493,-3.6443,-3.6417,-3.6417,-3.6417,-3.6417,-3.6417,-3.6417,-3.6417,-3.6417,-3.6392,-3.6304,-3.6292,-3.6119,-3.6056,-3.5646,-3.532,-3.5082,-3.4713,-3.3947,-3.3558,-3.3307,-3.3149,-3.3149,-3.3124,-3.3124,-3.3124,-3.3124,-3.3124,-3.3124,-3.3086,-3.3011,-3.2923,-3.2528,-3.2202,-3.1913,-3.1738,-3.1574,-3.1486,-3.1399,-3.1336,-3.1323,-3.1009,-3.052,-3.0231,-3.7588,-3.8291,-3.9145,-3.9584,-3.9685,-3.9697,-3.9697,-3.9697,-3.9697,-3.9697,-3.9697,-3.9697,-3.9697,-3.9697,-3.9697,-3.9697,-3.9697,-3.9697,-3.9697,-3.9697,-3.9697,-3.9772,-3.9735,-3.981,-3.9961,-4.0212,-4.04,-4.0626,-4.1015,-4.1087,-4.1087,-4.1075,-4.0852,-4.0651,-4.0325,-4.0312,-4.0187,-3.9848,-3.9798,-3.9747,-3.9697,-3.9697,-3.9697,-3.9697,-3.9697,-3.9697,-3.9697,-3.9697,-3.9697,-3.9697,-3.9697,-3.9697,-3.9672,-3.9546,-3.9433,-3.9308,-3.9157,-3.912,-3.9107,-3.9094,-3.9094,-3.9182,-3.9195,-3.9258,-3.9007,-3.8266,-3.7713,-3.7362,-3.7036,-3.682,-3.6581,-3.6518,-3.643,-3.643,-3.6417,-3.6417,-3.6417,-3.6417,-3.6417,-3.6417,-3.6417,-3.6417,-3.6417,-3.6392,-3.6295,-3.6044,-3.5633,-3.537,-3.5219,-3.4738,-3.4248,-3.3897,-3.3269,-3.3156,-3.3149,-3.3124,-3.3124,-3.3124,-3.3124,-3.3124,-3.3124,-3.3074,-3.3011,-3.3011,-3.2767,-3.2466,-3.2252,-3.219,-3.2102,-3.2014,-3.1876,-3.1813,-3.1625,-3.1198,-3.0846,-3.7136,-3.7764,-3.8856,-3.9471,-3.9672,-3.9697,-3.9697,-3.9697,-3.9697,-3.9697,-3.9697,-3.9697,-3.9697,-3.9697,-3.9697,-3.9697,-3.9697,-3.9697,-3.9697,-3.9697,-3.9772,-3.991,-3.9948,-4.0061,-4.045,-4.0764,-4.1153,-4.1455,-4.1668,-4.1693,-4.1693,-4.1656,-4.153,-4.1175,-4.089,-4.084,-4.0614,-4.0111,-4.0061,-3.9936,-3.9785,-3.971,-3.9697,-3.9697,-3.9697,-3.9697,-3.9697,-3.9697,-3.9697,-3.9697,-3.9697,-3.9697,-3.9697,-3.9659,-3.9672,-3.9647,-3.9622,-3.9697,-3.9697,-3.9697,-3.9697,-3.9697,-3.9697,-3.9534,-3.9534,-3.8868,-3.8617,-3.8253,-3.7713,-3.74,-3.7046,-3.6883,-3.6619,-3.6518,-3.6455,-3.6417,-3.6417,-3.6417,-3.6417,-3.6417,-3.6417,-3.6417,-3.6417,-3.6417,-3.6367,-3.6355,-3.5956,-3.5893,-3.5717,-3.5454,-3.4989,-3.4492,-3.3935,-3.3319,-3.3149,-3.3124,-3.3124,-3.3124,-3.3124,-3.3124,-3.3124,-3.3124,-3.3111,-3.3086,-3.3074,-3.3036,-3.2817,-3.2654,-3.2654,-3.2591,-3.2416,-3.2252,-3.2039,-3.1876,-3.1612,-3.6795,-3.74,-3.8442,-3.9195,-3.9647,-3.9697,-3.9697,-3.9697,-3.9697,-3.9697,-3.9697,-3.9697,-3.9697,-3.9697,-3.9697,-3.9697,-3.9697,-3.9697,-3.9697,-3.9735,-3.9835,-4.0074,-4.035,-4.0588,-4.0978,-4.1455,-4.1907,-4.2095,-4.2313,-4.2313,-4.2221,-4.2145,-4.1869,-4.1463,-4.1413,-4.1379,-4.1178,-4.0764,-4.0538,-4.03,-4.0036,-3.9722,-3.971,-3.9697,-3.9697,-3.9697,-3.9697,-3.9697,-3.9697,-3.9697,-3.9697,-3.9697,-3.9697,-3.9697,-3.9697,-3.9697,-3.9697,-3.9697,-3.9697,-3.9697,-3.9697,-3.9697,-3.9697,-3.9685,-3.9672,-3.9546,-3.9283,-3.8969,-3.8417,-3.7939,-3.7525,-3.7123,-3.6847,-3.6631,-3.6543,-3.6417,-3.6417,-3.6417,-3.6417,-3.6417,-3.6417,-3.6417,-3.6417,-3.6417,-3.6417,-3.6417,-3.6417,-3.6417,-3.6304,-3.5918,-3.5529,-3.5094,-3.4643,-3.406,-3.3395,-3.3162,-3.3174,-3.3124,-3.3124,-3.3124,-3.3124,-3.3124,-3.3124,-3.3124,-3.3124,-3.3124,-3.3124,-3.2986,-3.3036,-3.2993,-3.2885,-3.2671,-3.2629,-3.2478,-3.2378,-3.6996,-3.7902,-3.8605,-3.9182,-3.9647,-3.9697,-3.9697,-3.9697,-3.9697,-3.9697,-3.9697,-3.9697,-3.9697,-3.9697,-3.9697,-3.9697,-3.9697,-3.9697,-3.9697,-3.9722,-4.0086,-4.035,-4.0714,-4.1204,-4.153,-4.1995,-4.2472,-4.2748,-4.2728,-4.2778,-4.2798,-4.2723,-4.2748,-4.2409,-4.2062,-4.1919,-4.1756,-4.1354,-4.1103,-4.0915,-4.0388,-4.0061,-3.9735,-3.9697,-3.9697,-3.9697,-3.9697,-3.9697,-3.9697,-3.9697,-3.9697,-3.9697,-3.9697,-3.9697,-3.9697,-3.9697,-3.9697,-3.9697,-3.9697,-3.9697,-3.9697,-3.9697,-3.9697,-3.9697,-3.9685,-3.9685,-3.9509,-3.9446,-3.8944,-3.8454,-3.8015,-3.7525,-3.7186,-3.6897,-3.6769,-3.6543,-3.6417,-3.6417,-3.6417,-3.6417,-3.6417,-3.6417,-3.6417,-3.6417,-3.6417,-3.6417,-3.6417,-3.6417,-3.6417,-3.6182,-3.6006,-3.5667,-3.5257,-3.4663,-3.3947,-3.3345,-3.325,-3.3187,-3.3124,-3.3124,-3.3124,-3.3124,-3.3124,-3.3124,-3.3124,-3.3124,-3.3124,-3.3124,-3.3111,-3.3086,-3.3099,-3.3048,-3.3074,-3.3011,-3.2767]},{"header":{"parameterUnit":"m.s-1","parameterCategory":1,"la1":31.0,"la2":29.5877,"lo1":-88.7671,"lo2":-86.6584,"dy":0.0162,"dx":0.0185,"nx":115,"ny":88,"refTime":"2026-03-03T00:00:00:Z","depth":0,"parameterNumber":3,"parameterNumberName":"V-component_of_WINDS"},"data":[0.0,0.0,0.0,0.0,0.0,0.0,0.0,0.0,0.0,0.0,0.0,0.0,0.0,0.0,0.0,0.0,0.0,0.0,0.0,0.0,0.0,0.0,0.0,0.0,0.0,0.0,0.0,0.0,0.0,0.0,0.0,0.0,0.0,0.0,0.0,0.0,0.0,0.0,0.0,0.0,0.0,0.0,0.0,0.0,0.0,0.0,0.0,0.0,0.0,0.0,0.0,0.0,0.0,0.0,0.0,0.0,0.0,0.0,0.0,0.0,0.0,0.0,0.0,0.0,0.0,0.0,0.0,0.0,0.0,0.0,0.0,0.0,0.0,0.0,0.0,0.0,0.0,0.0,0.0,0.0,0.0,0.0,0.0,0.0,0.0,0.0,0.0,0.0,0.0,0.0,0.0,0.0,0.0,0.0,0.0,0.0,0.0,0.0,0.0,0.0,0.0,0.0,0.0,0.0,0.0,0.0,0.0,0.0,0.0,0.0,0.0,0.0,0.0,0.0,0.0,0.0,0.0,0.0,0.0,0.0,0.0,0.0,0.0,0.0,0.0,0.0,0.0,0.0,0.0,0.0,0.0,0.0,0.0,0.0,0.0,0.0,0.0,0.0,0.0,0.0,0.0,0.0,0.0,0.0,0.0,0.0,0.0,0.0,0.0,0.0,0.0,0.0,0.0,0.0,0.0,0.0,0.0,0.0,0.0,0.0,0.0,0.0,0.0,0.0,0.0,0.0,0.0,0.0,0.0,0.0,0.0,0.0,0.0,0.0,0.0,0.0,0.0,0.0,0.0,0.0,0.0,0.0,0.0,0.0,0.0,0.0,0.0,0.0,0.0,0.0,0.0,0.0,0.0,0.0,0.0,0.0,0.0,0.0,0.0,0.0,0.0,0.0,0.0,0.0,0.0,0.0,0.0,0.0,0.0,0.0,0.0,0.0,0.0,0.0,0.0,0.0,0.0,0.0,0.0,0.0,0.0,0.0,0.0,0.0,0.0,0.0,0.0,0.0,0.0,0.0,0.0,0.0,0.0,0.0,0.0,0.0,0.0,0.0,0.0,0.0,0.0,0.0,0.0,0.0,0.0,0.0,0.0,0.0,0.0,0.0,0.0,0.0,0.0,0.0,0.0,0.0,0.0,0.0,0.0,0.0,0.0,0.0,0.0,0.0,0.0,0.0,0.0,0.0,0.0,0.0,0.0,0.0,0.0,0.0,0.0,0.0,0.0,0.0,0.0,0.0,0.0,0.0,0.0,0.0,0.0,0.0,0.0,0.0,0.0,0.0,0.0,0.0,0.0,0.0,0.0,0.0,0.0,0.0,0.0,0.0,0.0,0.0,0.0,0.0,0.0,0.0,0.0,0.0,0.0,0.0,0.0,0.0,0.0,0.0,0.0,0.0,0.0,0.0,0.0,0.0,0.0,0.0,0.0,0.0,0.0,0.0,0.0,0.0,0.0,0.0,0.0,0.0,0.0,0.0,0.0,0.0,0.0,0.0,0.0,0.0,0.0,0.0,0.0,0.0,0.0,0.0,0.0,0.0,0.0,0.0,0.0,0.0,0.0,0.0,0.0,0.0,0.0,0.0,0.0,0.0,0.0,0.0,0.0,0.0,0.0,0.0,0.0,0.0,0.0,0.0,0.0,0.0,0.0,0.0,0.0,0.0,0.0,0.0,0.0,0.0,0.0,0.0,0.0,0.0,0.0,0.0,0.0,0.0,0.0,0.0,0.0,0.0,0.0,0.0,0.0,0.0,0.0,0.0,0.0,0.0,0.0,0.0,0.0,0.0,0.0,0.0,0.0,0.0,0.0,0.0,0.0,0.0,0.0,0.0,0.0,0.0,0.0,0.0,0.0,0.0,0.0,0.0,0.0,0.0,0.0,0.0,0.0,0.0,0.0,0.0,0.0,0.0,0.0,0.0,0.0,0.0,0.0,0.0,0.0,0.0,0.0,0.0,0.0,0.0,0.0,0.0,0.0,0.0,0.0,0.0,0.0,0.0,0.0,0.0,0.0,0.0,0.0,0.0,0.0,0.0,0.0,0.0,0.0,0.0,0.0,0.0,0.0,0.0,0.0,0.0,0.0,0.0,0.0,0.0,0.0,0.0,0.0,0.0,0.0,0.0,0.0,0.0,0.0,0.0,0.0,0.0,0.0,0.0,0.0,0.0,0.0,0.0,0.0,0.0,0.0,0.0,0.0,0.0,0.0,0.0,0.0,0.0,0.0,0.0,0.0,0.0,0.0,0.0,0.0,0.0,0.0,0.0,0.0,0.0,0.0,0.0,0.0,0.0,0.0,0.0,0.0,0.0,0.0,0.0,0.0,0.0,0.0,0.0,0.0,0.0,0.0,0.0,0.0,0.0,0.0,0.0,0.0,0.0,0.0,0.0,0.0,0.0,0.0,0.0,0.0,0.0,0.0,0.0,0.0,0.0,0.0,0.0,0.0,0.0,0.0,0.0,0.0,0.0,0.0,0.0,0.0,0.0,0.0,0.0,0.0,0.0,0.0,0.0,0.0,0.0,0.0,0.0,0.0,0.0,0.0,0.0,0.0,0.0,0.0,0.0,0.0,0.0,0.0,0.0,0.0,0.0,0.0,0.0,0.0,0.0,0.0,0.0,0.0,0.0,0.0,0.0,0.0,0.0,0.0,0.0,0.0,0.0,0.0,0.0,0.0,0.0,0.0,0.0,0.0,0.0,0.0,0.0,0.0,0.0,0.0,0.0,0.0,0.0,0.0,0.0,0.0,0.0,0.0,0.0,0.0,0.0,0.0,0.0,0.0,0.0,0.0,0.0,0.0,0.0,0.0,0.0,0.0,0.0,0.0,0.0,0.0,0.0,0.0,0.0,0.0,0.0,0.0,0.0,0.0,0.0,0.0,0.0,0.0,0.0,0.0,0.0,0.0,0.0,0.0,0.0,0.0,0.0,0.0,0.0,0.0,0.0,0.0,0.0,0.0,0.0,0.0,0.0,0.0,0.0,0.0,0.0,0.0,0.0,0.0,0.0,0.0,0.0,0.0,0.0,0.0,0.0,0.0,0.0,0.0,0.0,0.0,0.0,0.0,0.0,0.0,0.0,0.0,0.0,0.0,0.0,0.0,0.0,0.0,0.0,0.0,0.0,0.0,0.0,0.0,0.0,0.0,0.0,0.0,0.0,0.0,0.0,0.0,0.0,0.0,0.0,0.0,0.0,0.0,0.0,0.0,0.0,0.0,0.0,0.0,0.0,0.0,0.0,0.0,0.0,0.0,0.0,0.0,0.0,0.0,0.0,0.0,0.0,0.0,0.0,0.0,0.0,0.0,0.0,0.0,0.0,0.0,0.0,0.0,0.0,0.0,0.0,0.0,0.0,0.0,0.0,0.0,0.0,0.0,0.0,0.0,0.0,0.0,0.0,0.0,0.0,0.0,0.0,0.0,0.0,0.0,0.0,0.0,0.0,0.0,0.0,0.0,0.0,0.0,0.0,0.0,0.0,0.0,0.0,0.0,0.0,0.0,0.0,0.0,0.0,0.0,0.0,0.0,0.0,0.0,0.0,0.0,0.0,0.0,0.0,0.0,0.0,0.0,0.0,0.0,0.0,0.0,0.0,0.0,0.0,0.0,0.0,0.0,0.0,0.0,0.0,0.0,0.0,0.0,0.0,0.0,0.0,0.0,0.0,0.0,0.0,0.0,0.0,0.0,0.0,0.0,0.0,0.0,0.0,0.0,0.0,0.0,0.0,0.0,0.0,0.0,0.0,0.0,0.0,0.0,0.0,0.0,0.0,0.0,0.0,0.0,0.0,0.0,0.0,0.0,0.0,0.0,0.0,0.0,0.0,0.0,0.0,0.0,0.0,0.0,0.0,0.0,0.0,0.0,0.0,0.0,0.0,0.0,0.0,0.0,0.0,0.0,0.0,0.0,0.0,0.0,0.0,0.0,0.0,0.0,0.0,0.0,0.0,0.0,0.0,0.0,0.0,0.0,0.0,0.0,0.0,0.0,0.0,0.0,0.0,0.0,0.0,0.0,0.0,0.0,0.0,0.0,0.0,0.0,0.0,0.0,0.0,0.0,0.0,0.0,0.0,0.0,0.0,0.0,0.0,0.0,0.0,0.0,0.0,0.0,0.0,0.0,0.0,0.0,0.0,0.0,0.0,0.0,0.0,0.0,0.0,0.0,0.0,0.0,0.0,0.0,0.0,0.0,0.0,0.0,0.0,0.0,0.0,0.0,0.0,0.0,0.0,0.0,0.0,0.0,0.0,0.0,0.0,0.0,0.0,0.0,0.0,1.159,0.0,0.0,0.0,0.0,0.0,0.0,0.0,0.0,0.0,0.0,0.0,0.0,0.0,0.0,0.0,0.0,0.0,0.0,0.0,0.0,0.0,0.0,0.0,0.0,0.0,0.0,0.0,0.0,0.0,0.0,0.0,0.0,0.0,0.0,0.0,0.0,0.0,0.0,0.0,0.0,0.0,0.0,0.0,0.0,0.0,0.0,0.0,0.0,0.0,0.0,0.0,0.0,0.0,0.0,0.0,0.0,0.0,0.0,0.0,0.0,0.0,0.0,0.0,0.0,0.0,0.0,0.0,0.0,0.0,0.0,0.0,0.0,0.0,0.0,0.0,0.0,0.0,0.0,0.0,0.0,0.0,0.0,0.0,0.0,0.0,0.0,0.0,0.0,0.0,0.0,0.0,0.0,0.0,0.0,0.0,0.0,0.0,0.0,0.0,0.0,0.0,0.0,0.0,0.0,0.0,0.0,0.0,0.0,0.0,0.0,1.321,1.3185,1.2162,1.1603,1.159,0.0,0.0,0.0,0.0,0.0,0.0,0.0,0.0,0.0,0.0,0.0,0.0,0.0,0.0,0.0,0.0,0.0,0.0,0.0,0.0,0.0,0.0,0.0,0.0,0.0,0.0,0.0,0.0,0.0,0.0,0.0,0.0,0.0,0.0,0.0,0.0,0.0,0.0,0.0,0.0,0.0,0.0,0.0,0.0,0.0,0.0,0.0,0.0,0.0,0.0,0.0,0.0,0.0,0.0,0.0,0.0,0.0,0.0,0.0,0.0,0.0,0.0,0.0,0.0,0.0,0.0,0.0,0.0,0.0,0.0,0.0,0.0,0.0,0.0,0.0,0.0,0.0,0.0,0.0,0.0,0.0,0.0,0.0,0.0,0.0,0.0,0.0,0.0,0.0,0.0,0.0,0.0,0.0,0.0,0.0,0.0,0.0,0.0,0.0,0.0,0.0,0.0,0.0,0.0,0.0,0.0,0.0,0.0,0.0,0.0,0.0,0.0,1.2388,1.1948,1.1913,0.0,0.0,0.0,0.0,0.0,0.0,0.0,0.0,0.0,0.0,0.0,0.0,0.0,0.0,0.0,0.0,0.0,0.0,0.0,0.0,0.0,0.0,0.0,0.0,0.0,0.0,0.0,0.0,0.0,0.0,0.0,0.0,0.0,0.0,0.0,0.0,0.0,0.0,0.0,0.0,0.0,0.0,0.0,0.0,0.0,0.0,0.0,0.0,0.0,0.0,0.0,0.0,0.0,0.0,0.0,0.0,0.0,0.0,0.0,0.0,0.0,0.0,0.0,0.0,0.0,0.0,0.0,0.0,0.0,0.0,0.0,0.0,0.0,0.0,0.0,0.0,0.0,0.0,0.0,0.0,0.0,0.0,0.0,0.0,0.0,0.0,0.0,0.0,0.0,0.0,0.0,0.0,0.0,0.0,0.0,0.0,0.0,0.0,0.0,0.0,0.0,0.0,0.0,0.0,0.0,0.0,0.0,0.0,0.0,0.0,1.321,1.3198,1.3085,0.0,1.2829,0.0,0.0,0.0,0.0,0.0,0.0,0.0,0.0,0.0,0.0,0.0,0.0,0.0,0.0,0.0,0.0,0.0,0.0,0.0,0.0,0.0,0.0,0.0,0.0,0.0,0.0,0.0,0.0,0.0,0.0,0.0,0.0,0.0,0.0,0.0,0.0,0.0,0.0,0.0,0.0,0.0,0.0,0.0,0.0,0.0,0.0,0.0,0.0,0.0,0.0,0.0,0.0,0.0,0.0,0.0,0.0,0.0,0.0,0.0,0.0,0.0,0.0,0.0,0.0,0.0,0.0,0.0,0.0,0.0,0.0,0.0,0.0,0.0,0.0,0.0,0.0,0.0,0.0,0.0,0.0,0.0,0.0,0.0,0.0,0.0,0.0,0.0,0.0,0.0,0.0,0.0,0.0,0.0,0.0,0.0,0.0,0.0,0.0,0.0,0.0,0.0,0.0,0.0,0.0,0.0,0.0,0.0,0.0,0.0,0.0,0.0,1.397,1.3667,1.3467,0.0,0.0,0.0,0.0,0.0,0.0,0.0,0.0,0.0,0.0,0.0,0.0,0.0,0.0,0.0,0.0,0.0,0.0,0.0,0.0,0.0,0.0,0.0,0.0,0.0,0.0,0.0,0.0,0.0,0.0,0.0,0.0,0.0,0.0,0.0,0.0,0.0,0.0,0.0,0.0,0.0,0.0,0.0,0.0,0.0,0.0,0.0,0.0,0.0,0.0,0.0,0.0,0.0,0.0,0.0,0.0,0.0,0.0,0.0,0.0,0.0,0.0,0.0,0.0,0.0,0.0,0.0,0.0,0.0,0.0,0.0,0.0,0.0,0.0,0.0,0.0,0.0,0.0,0.0,0.0,0.0,0.0,0.0,0.0,0.0,0.0,0.0,0.0,0.0,0.0,0.0,0.0,0.0,0.0,0.0,0.0,0.0,0.0,0.0,0.0,0.0,0.0,0.0,0.0,0.0,0.0,0.0,0.0,0.0,0.0,1.3801,0.0,1.4674,1.434,1.3923,1.3528,0.0,0.0,0.0,0.0,0.0,0.0,0.0,0.0,0.0,0.0,0.0,0.0,0.0,0.0,0.0,0.0,0.0,0.0,0.0,0.0,0.0,0.0,0.0,0.0,0.0,0.0,0.0,0.0,0.0,0.0,0.0,0.0,0.0,0.0,0.0,0.0,0.0,0.0,0.0,0.0,0.0,0.0,0.0,0.0,0.0,0.0,0.0,0.0,0.0,0.0,0.0,0.0,0.0,0.0,0.0,0.0,0.0,0.0,0.0,0.0,0.0,0.0,0.0,0.0,0.0,0.0,0.0,0.0,0.0,0.0,0.0,0.0,0.0,0.0,0.0,0.0,0.0,0.0,0.0,0.0,0.0,0.0,0.0,0.0,0.0,0.0,0.0,0.0,0.0,0.0,0.0,0.0,0.0,0.0,0.0,0.0,0.0,0.0,0.0,0.0,0.0,0.0,0.0,0.0,0.0,0.0,0.0,0.0,0.0,1.4239,1.4419,1.5263,1.5237,1.4544,0.0,0.0,0.0,0.0,0.0,0.0,0.0,0.0,0.0,0.0,0.0,0.0,0.0,0.0,0.0,0.0,0.0,0.0,0.0,0.0,0.0,0.0,0.0,0.0,0.0,0.0,0.0,0.0,0.0,0.0,0.0,0.0,0.0,0.0,0.0,0.0,0.0,0.0,0.0,0.0,0.0,0.0,0.0,0.0,0.0,0.0,0.0,0.0,0.0,0.0,0.0,0.0,0.0,0.0,0.0,0.0,0.0,0.0,0.0,0.0,0.0,0.0,0.0,0.0,0.0,0.0,0.0,0.0,0.0,0.0,0.0,0.0,0.0,0.0,0.0,0.0,0.0,0.0,0.0,0.0,0.0,0.0,0.0,0.0,0.0,0.0,0.0,0.0,0.0,0.0,0.0,0.0,0.0,0.0,0.0,0.0,0.0,0.0,0.0,0.0,0.0,0.0,0.0,0.0,0.0,0.0,0.0,0.0,0.0,1.2832,1.3516,1.4832,1.6681,1.5228,1.4473,0.0,0.0,0.0,0.0,0.0,0.0,0.0,0.0,0.0,0.0,0.0,0.0,0.0,0.0,0.0,0.0,0.0,0.0,0.0,0.0,0.0,0.0,0.0,0.0,0.0,0.0,0.0,0.0,0.0,0.0,0.0,0.0,0.0,0.0,0.0,0.0,0.0,0.0,0.0,0.0,0.0,0.0,0.0,0.0,0.0,0.0,0.0,0.0,0.0,0.0,0.0,0.0,0.0,0.0,0.0,0.0,0.0,0.0,0.0,0.0,0.0,0.0,0.0,0.0,0.0,0.0,0.0,0.0,0.0,0.0,0.0,0.0,0.0,0.0,0.0,0.0,0.0,0.0,0.0,0.0,0.0,0.0,0.0,0.0,0.0,0.0,0.0,0.0,0.0,0.0,0.0,0.0,0.0,0.0,0.0,0.0,0.0,0.0,0.0,0.0,0.0,0.0,0.0,0.0,0.0,0.0,0.0,0.0,0.0,1.2871,0.0,1.5725,0.0,1.5366,1.4466,0.0,0.0,0.0,0.0,0.0,0.0,0.0,0.0,0.0,0.0,0.0,0.0,0.0,0.0,0.0,0.0,0.0,0.0,0.0,0.0,0.0,0.0,0.0,0.0,0.0,0.0,0.0,0.0,0.0,0.0,0.0,0.0,0.0,0.0,0.0,0.0,0.0,0.0,0.0,0.0,0.0,0.0,0.0,0.0,0.0,0.0,0.0,0.0,0.0,0.0,0.0,0.0,0.0,0.0,0.0,0.0,0.0,0.0,0.0,0.0,0.0,0.0,0.0,0.0,0.0,0.0,0.0,0.0,0.0,0.0,0.0,0.0,0.0,0.0,0.0,0.0,0.0,0.0,0.0,0.0,0.0,0.0,0.0,0.0,0.0,0.0,0.0,0.0,0.0,0.0,0.0,0.0,0.0,0.0,0.0,0.0,0.0,0.0,0.0,0.0,0.0,0.0,0.0,0.0,0.0,0.0,0.0,0.0,1.3085,1.5197,1.675,1.6966,1.5888,1.5739,1.4539,0.0,0.0,0.0,0.0,0.0,0.0,0.0,0.0,0.0,0.0,0.0,0.0,0.0,0.0,0.0,0.0,0.0,0.0,0.0,0.0,0.0,0.0,0.0,0.0,0.0,0.0,0.0,0.0,0.0,0.0,0.0,0.0,0.0,0.0,0.0,0.0,0.0,0.0,0.0,0.0,0.0,0.0,0.0,0.0,0.0,0.0,0.0,0.0,0.0,0.0,0.0,0.0,0.0,0.0,0.0,0.0,0.0,0.0,0.0,0.0,0.0,0.0,0.0,0.0,0.0,0.0,0.0,0.0,0.0,0.0,0.0,0.0,0.0,0.0,0.0,0.0,0.0,0.0,0.0,0.0,0.0,0.0,0.0,0.0,0.0,0.0,0.0,0.0,0.0,0.0,0.0,0.0,0.0,0.0,0.0,0.0,0.0,0.0,0.0,0.0,0.0,0.0,0.0,0.0,0.0,0.0,0.0,0.0,0.0,1.4957,1.5905,1.6638,1.7011,1.5351,1.4466,0.0,0.0,0.0,0.0,0.0,0.0,0.0,0.0,0.0,0.0,0.0,0.0,0.0,0.0,0.0,0.0,0.0,0.0,0.0,0.0,0.0,0.0,0.0,0.0,0.0,0.0,0.0,0.0,0.0,0.0,0.0,0.0,0.0,0.0,0.0,0.0,0.0,0.0,0.0,0.0,0.0,0.0,0.0,0.0,0.0,0.0,0.0,0.0,0.0,0.0,0.0,0.0,0.0,0.0,0.0,0.0,0.0,0.0,0.0,0.0,0.0,0.0,0.0,0.0,0.0,0.0,0.0,0.0,0.0,0.0,0.0,0.0,0.0,0.0,0.0,0.0,0.0,0.0,0.0,0.0,0.0,0.0,0.0,0.0,0.0,0.0,0.0,0.0,0.0,0.0,0.0,0.0,0.0,0.0,0.0,0.0,0.0,0.0,0.0,0.0,0.0,0.0,0.0,0.0,0.0,0.0,0.0,0.0,0.0,1.6638,1.7027,1.749,1.8057,1.5995,1.5052,1.535,0.0,0.0,0.0,0.0,0.0,0.0,0.0,0.0,0.0,0.0,0.0,0.0,0.0,0.0,0.0,0.0,0.0,0.0,0.0,0.0,0.0,0.0,0.0,0.0,0.0,0.0,0.0,0.0,0.0,0.0,0.0,0.0,0.0,0.0,0.0,0.0,0.0,0.0,0.0,0.0,0.0,0.0,0.0,0.0,0.0,0.0,0.0,0.0,0.0,0.0,0.0,0.0,0.0,0.0,0.0,0.0,0.0,0.0,0.0,0.0,0.0,0.0,0.0,0.0,0.0,0.0,0.0,0.0,0.0,0.0,0.0,0.0,0.0,0.0,0.0,0.0,0.0,0.0,0.0,0.0,0.0,0.0,0.0,0.0,0.0,0.0,0.0,0.0,0.0,0.0,0.0,0.0,0.0,0.0,0.0,0.0,0.0,0.0,0.0,0.0,0.0,0.0,0.0,0.0,0.0,0.0,0.0,0.0,1.9798,1.9813,1.9483,1.8822,1.7458,1.6189,0.0,0.0,0.0,0.0,0.0,0.0,0.0,0.0,0.0,0.0,0.0,0.0,0.0,0.0,0.0,0.0,0.0,0.0,0.0,0.0,0.0,0.0,0.0,0.0,0.0,0.0,0.0,0.0,0.0,0.0,0.0,0.0,0.0,0.0,0.0,0.0,0.0,0.0,0.0,0.0,0.0,0.0,0.0,0.0,0.0,0.0,0.0,0.0,0.0,0.0,0.0,0.0,0.0,0.0,0.0,0.0,0.0,0.0,0.0,0.0,0.0,0.0,0.0,0.0,0.0,0.0,0.0,0.0,0.0,0.0,0.0,0.0,0.0,0.0,0.0,0.0,0.0,0.0,0.0,0.0,0.0,0.0,0.0,0.0,0.0,0.0,0.0,0.0,0.0,0.0,0.0,0.0,0.0,0.0,0.0,0.0,0.0,0.0,0.0,0.0,0.0,0.0,0.0,0.0,0.0,0.0,0.0,0.0,0.0,2.107,2.119,2.0857,2.0165,1.8401,1.7055,0.0,0.0,0.0,0.0,0.0,0.0,0.0,0.0,0.0,0.0,0.0,0.0,0.0,0.0,0.0,0.0,0.0,0.0,0.0,0.0,0.0,0.0,0.0,0.0,0.0,0.0,0.0,0.0,0.0,0.0,0.0,0.0,0.0,0.0,0.0,0.0,0.0,0.0,0.0,0.0,0.0,0.0,0.0,0.0,0.0,0.0,0.0,0.0,0.0,0.0,0.0,0.0,0.0,0.0,0.0,0.0,0.0,0.0,0.0,0.0,0.0,0.0,0.0,0.0,0.0,0.0,0.0,0.0,0.0,0.0,0.0,0.0,0.0,0.0,0.0,0.0,0.0,0.0,0.0,0.0,0.0,0.0,0.0,0.0,0.0,0.0,0.0,0.0,0.0,0.0,0.0,0.0,0.0,0.0,0.0,0.0,0.0,0.0,0.0,0.0,0.0,0.0,0.0,0.0,0.0,0.0,0.0,0.0,1.969,2.2074,2.2637,2.2607,2.1949,2.0001,1.8521,0.0,0.0,0.0,0.0,0.0,0.0,0.0,0.0,0.0,0.0,0.0,0.0,0.0,0.0,0.0,0.0,0.0,0.0,0.0,0.0,0.0,0.0,0.0,0.0,0.0,0.0,0.0,0.0,0.0,0.0,0.0,0.0,0.0,0.0,0.0,0.0,0.0,0.0,0.0,0.0,0.0,0.0,0.0,0.0,0.0,0.0,0.0,0.0,0.0,0.0,0.0,0.0,0.0,0.0,0.0,0.0,0.0,0.0,0.0,0.0,0.0,0.0,0.0,0.0,0.0,0.0,0.0,0.0,0.0,0.0,0.0,0.0,0.0,0.0,0.0,0.0,0.0,0.0,0.0,0.0,0.0,0.0,0.0,0.0,0.0,0.0,0.0,0.0,0.0,0.0,0.0,0.0,0.0,0.0,0.0,0.0,0.0,0.0,0.0,0.0,0.0,0.0,0.0,0.0,0.0,0.0,0.0,0.0,2.0891,2.2868,2.4088,2.441,2.3789,2.1859,2.0135,0.0,0.0,0.0,0.0,0.0,0.0,0.0,0.0,0.0,0.0,0.0,0.0,0.0,0.0,0.0,0.0,0.0,0.0,0.0,0.0,0.0,0.0,0.0,0.0,0.0,0.0,0.0,0.0,0.0,0.0,0.0,0.0,0.0,0.0,0.0,0.0,0.0,0.0,0.0,0.0,0.0,0.0,0.0,0.0,0.0,0.0,0.0,0.0,0.0,0.0,0.0,0.0,0.0,0.0,0.0,0.0,0.0,0.0,0.0,0.0,0.0,0.0,0.0,0.0,0.0,0.0,0.0,0.0,0.0,0.0,0.0,0.0,0.0,0.0,0.0,0.0,0.0,0.0,0.0,0.0,0.0,0.0,0.0,0.0,0.0,0.0,0.0,0.0,0.0,0.0,0.0,0.0,0.0,0.0,0.0,0.0,0.0,0.0,0.0,0.0,0.0,0.0,0.0,0.0,0.0,0.0,0.0,0.0,2.2218,2.4141,2.4963,2.5307,2.5181,2.2787,2.0602,0.0,0.0,0.0,0.0,0.0,0.0,0.0,0.0,0.0,0.0,0.0,0.0,0.0,0.0,0.0,0.0,0.0,0.0,0.0,0.0,0.0,0.0,0.0,0.0,0.0,0.0,0.0,0.0,0.0,0.0,0.0,0.0,0.0,0.0,0.0,0.0,0.0,0.0,0.0,0.0,0.0,0.0,0.0,0.0,0.0,0.0,0.0,0.0,0.8657,0.0,0.0,0.0,0.0,0.0,0.0,0.0,0.0,0.0,0.0,0.0,0.0,0.0,0.0,0.0,0.0,0.0,0.0,0.0,0.0,0.0,0.0,0.0,0.0,0.0,0.0,0.0,0.0,0.0,0.0,0.0,0.0,0.0,0.0,0.0,0.0,0.0,0.0,0.0,0.0,0.0,0.0,0.0,0.0,0.0,0.0,0.0,0.0,0.0,0.0,0.0,0.0,0.0,0.0,0.0,0.0,0.0,0.0,0.0,2.2652,2.4545,2.5546,2.5929,2.5555,2.3932,2.1844,0.0,0.0,0.0,0.0,0.0,0.0,0.0,0.0,0.0,0.0,0.0,0.0,0.0,0.0,0.0,0.0,0.0,0.0,0.0,0.0,0.0,0.0,0.0,0.0,0.0,0.0,0.0,0.0,0.0,0.0,0.0,0.0,0.0,0.0,0.0,0.0,0.0,0.0,0.0,0.0,0.0,0.0,0.0,0.0,0.0,0.0,0.0,0.0,0.0,0.0,0.0,0.0,0.0,0.0,0.0,0.0,0.0,0.0,0.0,0.0,0.0,0.0,0.0,0.0,0.0,0.0,0.0,0.0,0.0,0.0,0.0,0.0,0.0,0.0,0.0,0.0,0.0,0.0,0.0,0.0,0.0,0.0,0.0,0.0,0.0,0.0,0.0,0.0,0.0,0.0,0.0,0.0,0.0,0.0,0.0,0.0,0.0,0.0,0.0,0.0,0.0,0.0,0.0,0.0,0.0,0.0,0.0,2.0602,2.2802,2.4694,2.6063,2.6378,2.563,2.4948,2.305,1.9828,0.0,0.0,0.0,0.0,0.0,0.0,0.0,0.0,0.0,0.0,0.0,0.0,0.0,0.0,0.0,0.0,0.0,0.0,0.0,0.0,0.0,0.0,0.0,0.0,0.0,0.0,0.0,0.0,0.0,0.0,0.0,0.0,0.0,0.0,0.0,0.0,0.0,0.0,0.946,1.1172,0.0,0.0,0.0,0.0,0.0,0.0,0.0,0.0,1.0084,0.0,0.0,0.0,0.0,0.0,0.0,0.0,0.0,0.0,0.0,0.0,0.0,0.0,0.0,0.0,0.0,0.0,0.0,0.0,0.0,0.0,0.0,0.0,0.0,0.0,0.0,0.0,0.0,0.0,0.0,0.0,0.0,0.0,0.0,0.0,0.0,0.0,0.0,0.0,0.0,0.0,0.0,0.0,0.0,0.0,0.0,0.0,0.0,0.0,0.0,0.0,0.0,0.0,0.0,0.0,0.0,2.0183,2.1744,2.3482,2.5382,2.6761,2.6851,2.5636,2.4948,2.305,1.9857,0.0,0.0,0.0,0.0,0.0,0.0,0.0,0.0,0.0,0.0,0.0,0.0,0.0,0.0,0.0,0.0,0.0,0.0,0.0,0.0,0.0,0.0,0.0,0.0,0.0,0.0,0.0,0.0,0.0,0.0,0.0,0.0,0.0,0.0,0.0,0.0,0.0,0.0,0.0,1.3867,1.4944,0.0,0.0,0.0,0.0,0.0,0.0,0.0,0.0,1.0189,0.0,0.0,0.0,0.0,0.0,0.0,0.0,0.0,0.0,0.0,0.0,0.0,0.0,0.0,0.0,0.0,0.0,0.0,0.0,0.0,0.0,0.0,0.0,0.0,0.0,0.0,0.0,0.0,0.0,0.0,0.0,0.0,0.0,0.0,0.0,0.0,0.0,0.0,0.0,0.0,0.0,0.0,0.0,0.0,0.0,0.0,0.0,0.0,0.0,0.0,0.0,0.0,0.0,0.0,0.0,2.0079,2.2143,2.3954,2.5585,2.6911,2.6971,2.5644,2.4605,2.2691,0.0,0.0,0.0,0.0,0.0,0.0,0.0,0.0,0.0,0.0,0.0,0.0,0.0,0.0,0.0,0.0,0.0,0.0,0.0,0.0,0.0,0.0,0.0,0.0,0.0,0.0,0.0,0.0,0.0,0.0,0.0,0.0,0.0,0.0,0.0,0.0,0.0,0.0,0.0,0.0,1.4524,1.5559,1.4872,0.0,0.0,0.0,0.0,0.0,0.0,1.1506,1.0982,0.0,0.0,0.0,0.0,0.0,0.0,0.0,0.0,0.0,0.0,0.0,0.0,0.0,0.0,0.0,0.0,0.0,0.0,0.0,0.0,0.0,0.0,0.0,0.0,0.0,0.0,0.0,0.0,0.0,0.0,0.0,0.0,0.0,0.0,0.0,0.0,0.0,0.0,0.0,0.0,0.0,0.0,0.0,0.0,0.0,0.0,0.0,0.0,0.0,0.0,0.0,0.0,0.0,0.0,0.0,1.9678,2.2263,2.4238,2.5585,2.6791,2.6836,2.563,2.4298,2.2353,0.0,0.0,0.0,0.0,0.0,0.0,0.0,0.0,0.0,0.0,0.0,0.0,0.0,0.0,0.0,0.0,0.0,0.0,0.0,0.0,0.0,0.0,0.0,0.0,0.0,0.0,0.0,0.0,0.0,0.0,0.0,0.0,0.0,0.0,0.0,0.0,0.0,0.0,0.0,0.0,0.0,1.6349,1.5346,1.4741,0.0,0.0,0.0,0.0,1.3519,1.318,0.0,0.0,0.0,0.0,0.0,0.0,0.0,0.0,0.0,0.0,0.0,0.0,0.0,0.0,0.0,0.0,0.0,0.0,0.0,0.0,0.0,0.0,0.0,0.0,0.0,0.0,0.0,0.0,0.0,0.0,0.0,0.0,0.0,0.0,0.0,0.0,0.0,0.0,0.0,0.0,0.0,0.0,0.0,0.0,0.0,0.0,0.0,0.0,0.0,0.0,0.0,0.0,0.0,0.0,0.0,0.0,1.9693,2.2283,2.4238,2.557,2.6318,2.6348,2.5615,2.4298,2.2368,0.0,0.0,0.0,0.0,0.0,0.0,0.0,0.0,0.0,0.0,0.0,0.0,0.0,0.0,0.0,0.0,0.0,0.0,0.0,0.0,0.0,0.0,0.0,0.0,0.0,0.0,0.0,0.0,0.0,0.0,0.0,0.0,0.0,0.0,0.0,0.0,0.0,0.0,0.0,0.0,0.0,1.9014,1.6855,1.6458,1.6619,0.0,0.0,1.5327,1.6282,1.6397,0.0,0.0,0.0,0.0,0.0,0.0,0.0,0.0,0.0,0.0,0.0,0.0,0.0,0.0,0.0,0.0,0.0,0.0,0.0,0.0,0.0,0.0,0.0,0.0,0.0,0.0,0.0,0.0,0.0,0.0,0.0,0.0,0.0,0.0,0.0,0.0,0.0,0.0,0.0,0.0,0.0,0.0,0.0,0.0,0.0,0.0,0.0,0.0,0.0,0.0,0.0,0.0,0.0,0.0,0.0,1.743,1.9708,2.2652,2.4634,2.5561,2.6258,2.6273,2.5591,2.3822,2.1864,0.0,0.0,0.0,0.0,0.0,0.0,0.0,0.0,0.0,0.0,0.0,0.0,0.0,0.0,0.0,0.0,0.0,0.0,0.0,0.0,0.0,0.0,0.0,0.0,0.0,0.0,0.0,0.0,0.0,0.0,0.0,0.0,0.0,0.0,0.0,0.0,0.0,0.0,0.0,0.0,0.0,0.0,1.861,1.8266,0.0,0.0,0.0,1.7534,1.7729,0.0,0.0,0.0,0.0,0.0,0.0,0.0,0.0,0.0,0.0,0.0,0.0,0.0,0.0,0.0,0.0,0.0,0.0,0.0,0.0,0.0,0.0,0.0,0.0,0.0,0.0,0.0,0.0,0.0,0.0,0.0,0.0,0.0,0.0,0.0,0.0,0.0,0.0,0.0,0.0,0.0,0.0,0.0,0.0,0.0,0.0,0.0,0.0,0.0,0.0,0.0,0.0,0.0,0.0,0.0,0.0,0.0,1.9708,2.3101,2.5098,2.5576,2.6078,2.6108,2.557,2.336,0.0,0.0,0.0,0.0,0.0,0.0,0.0,0.0,0.0,0.0,0.0,0.0,0.0,0.0,0.0,0.0,0.0,0.0,0.0,0.0,0.0,0.0,0.0,0.0,0.0,0.0,0.0,0.8224,0.0,0.0,0.0,0.0,0.0,0.0,0.0,0.0,0.0,0.0,0.0,0.0,0.0,0.0,1.8914,2.0137,1.9853,1.9661,0.0,0.0,1.9382,1.9139,1.9107,1.8261,0.0,0.0,0.0,0.0,0.0,0.0,0.0,0.0,0.0,0.0,0.0,0.0,0.0,0.0,0.0,0.0,0.0,0.0,0.0,0.0,0.0,0.0,0.0,0.0,0.0,0.0,0.0,0.0,0.0,0.0,0.0,0.0,0.0,0.0,0.0,0.0,0.0,0.0,0.0,0.0,0.0,0.0,0.0,0.0,0.0,0.0,0.0,0.0,0.0,0.0,0.0,0.0,0.0,0.0,0.0,1.9783,2.355,2.5531,2.5615,2.5644,2.5659,2.557,2.3113,2.1105,0.0,0.0,0.0,0.0,0.0,0.0,0.0,0.0,0.0,0.0,0.0,0.0,0.0,0.0,0.0,0.0,0.0,0.0,0.0,0.0,0.0,0.0,0.0,0.0,0.0,0.0,0.0,0.0,0.0,0.0,0.0,0.0,0.0,0.0,0.0,0.0,0.0,0.0,0.0,0.0,0.0,2.1273,2.1137,2.1024,2.1465,0.0,0.0,2.0619,2.0942,2.1568,2.0773,1.7176,0.0,0.0,0.0,0.0,0.0,0.0,0.0,0.0,0.0,0.0,0.0,0.0,0.0,0.0,0.0,0.0,0.0,0.0,0.0,0.0,0.0,0.0,0.0,0.0,0.0,0.0,0.0,0.0,0.0,0.0,0.0,0.0,0.0,0.0,0.0,0.0,0.0,0.0,0.0,0.0,0.0,0.0,0.0,0.0,0.0,0.0,0.0,0.0,0.0,0.0,0.0,0.0,0.0,1.8551,2.0318,2.3804,2.5809,2.6198,2.6213,2.6019,2.5615,2.3948,2.2186,0.0,0.0,0.0,0.0,0.0,0.0,0.0,0.0,0.0,0.0,0.0,0.0,0.0,0.0,0.0,0.0,0.0,0.0,0.0,0.0,0.0,0.0,0.0,0.0,0.0,0.0,0.0,0.0,1.0733,1.061,1.0105,0.0,0.0,0.0,0.0,0.0,0.0,0.0,0.0,0.0,0.0,2.1449,2.2417,2.2932,0.0,0.0,2.3558,2.3137,2.1666,2.1936,2.1248,1.8173,1.7082,0.0,0.0,0.0,0.0,0.0,0.0,0.0,0.0,0.0,0.0,0.0,0.0,0.0,0.0,0.0,0.0,0.0,0.0,0.0,0.0,0.0,0.0,0.0,0.0,0.0,0.0,0.0,0.0,0.0,0.0,0.0,0.0,0.0,0.0,0.0,0.0,0.0,0.0,0.0,0.0,0.0,0.0,0.0,0.0,0.0,0.0,0.0,0.0,0.0,0.0,0.0,0.0,1.879,2.0991,2.4022,2.5929,2.6596,2.6602,2.6345,2.5825,2.4673,2.3136,0.0,0.0,0.0,0.0,0.0,0.0,0.0,0.0,0.0,0.0,0.0,0.0,0.0,0.0,0.0,0.0,0.0,0.0,0.0,0.0,0.0,0.0,0.0,0.0,0.0,0.0,0.0,0.0,1.2141,1.162,1.0859,0.0,0.0,0.0,0.0,0.0,0.0,0.0,0.0,0.0,0.0,2.1988,2.3148,2.4168,2.4581,2.3919,2.445,2.4298,2.2417,2.2411,2.1773,1.9216,0.0,0.0,0.0,0.0,0.0,0.0,0.0,0.0,0.0,0.0,0.0,0.0,0.0,0.0,0.0,0.0,0.0,0.0,0.0,0.0,0.0,0.0,0.0,0.0,0.0,0.0,0.0,0.0,0.0,0.0,1.5858,0.0,0.0,0.0,0.0,0.0,0.0,0.0,0.0,0.0,0.0,0.0,0.0,0.0,0.0,0.0,0.0,0.0,0.0,0.0,0.0,0.0,0.0,1.9014,2.165,2.4283,2.5929,2.6587,2.6602,2.6551,2.6363,2.5081,2.3666,2.2063,0.0,0.0,0.0,0.0,0.0,0.0,0.0,0.0,0.0,0.0,0.0,0.0,0.0,0.0,0.0,0.0,0.0,0.0,0.0,0.0,0.0,0.0,0.0,0.0,0.0,0.0,1.3252,1.2017,1.0876,0.0,0.0,0.0,0.0,0.0,0.0,0.0,0.0,0.0,0.0,2.1214,2.3276,2.3166,2.4547,2.5362,2.4843,2.4059,2.346,2.3378,2.3376,2.2584,0.0,0.0,0.0,0.0,0.0,0.0,0.0,0.0,0.0,0.0,0.0,0.0,0.0,0.0,0.0,0.0,0.0,0.0,0.0,0.0,0.0,0.0,0.0,0.0,0.0,0.0,0.0,2.0617,1.9418,0.0,0.0,0.0,0.0,0.0,0.0,0.0,0.0,0.0,0.0,0.0,2.2975,2.3879,0.0,0.0,0.0,0.0,0.0,0.0,0.0,0.0,0.0,0.0,0.0,0.0,1.969,2.2328,2.4507,2.6138,2.7225,2.7255,2.7015,2.6529,2.5531,2.3728,2.1063,0.0,0.0,0.0,0.0,0.0,0.0,0.0,0.0,0.0,0.0,0.0,0.0,0.0,0.0,0.0,0.0,0.0,0.0,0.0,0.0,0.0,0.0,0.0,0.0,0.0,1.2455,0.0,0.0,0.0,0.0,0.0,0.0,0.0,0.0,0.0,0.0,0.0,1.7637,1.9219,2.2155,2.4111,2.4047,2.5345,2.61,0.0,0.0,0.0,0.0,0.0,0.0,0.0,0.0,0.0,0.0,0.0,0.0,0.0,0.0,2.0023,1.5819,1.4561,1.426,1.4587,0.0,0.0,0.0,0.0,0.0,0.0,0.0,0.0,0.0,0.0,0.0,0.0,0.0,0.0,2.3206,0.0,2.2153,0.0,0.0,0.0,0.0,0.0,0.0,0.0,0.0,2.3924,2.5061,2.5674,2.6527,2.6123,0.0,2.4485,2.2373,0.0,0.0,0.0,0.0,0.0,0.0,0.0,0.0,2.0587,2.2972,2.5138,2.6773,2.7858,2.8116,2.79,2.7195,2.608,2.4316,2.1897,2.032,1.8755,0.0,0.0,0.0,0.0,0.0,0.0,0.0,0.0,0.0,0.0,0.0,0.0,0.0,0.0,0.0,0.0,0.0,0.0,0.0,0.0,0.0,0.0,0.0,1.3773,0.0,0.0,0.0,0.0,0.0,0.0,0.0,0.0,0.0,1.5954,1.7727,1.9571,2.1142,2.3403,2.4753,2.4447,0.0,0.0,0.0,0.0,0.0,0.0,0.0,2.4374,2.3866,2.3207,2.2716,2.2682,2.3291,2.365,2.3229,0.0,0.0,1.9042,1.7819,1.7506,1.7868,1.8613,1.9139,1.8882,2.0045,2.1015,0.0,0.0,0.0,0.0,0.0,0.0,0.0,0.0,2.591,2.5841,0.0,2.5107,0.0,0.0,0.0,0.0,0.0,2.326,0.0,0.0,2.7475,2.8381,2.7791,2.781,2.744,2.6816,2.733,2.6252,2.3565,1.9896,0.0,0.0,0.0,0.0,0.0,0.0,2.1739,2.3719,2.6189,2.7829,2.8504,2.9088,2.901,2.8275,2.6727,2.5456,2.453,2.3093,2.0995,1.8104,1.7009,0.0,0.0,0.0,0.0,0.0,0.0,0.0,0.0,0.0,0.0,0.0,0.0,0.0,0.0,0.0,0.0,0.0,0.0,0.0,0.0,1.5842,0.0,0.0,0.0,0.0,0.0,0.0,0.0,0.0,0.0,0.0,1.8981,2.0288,2.1914,2.3653,0.0,0.0,0.0,0.0,2.6841,2.7092,2.6902,2.6759,2.6725,2.6708,2.6234,2.4866,0.0,0.0,2.3772,2.4125,2.427,2.314,2.3687,2.4149,2.4515,2.2964,2.2107,2.2967,2.2444,2.2319,2.3154,2.3614,2.4231,3.1091,0.0,0.0,0.0,0.0,2.8671,3.0045,3.2849,3.1311,3.0135,2.9234,2.899,0.0,0.0,0.0,0.0,0.0,0.0,2.809,2.9062,3.0259,3.093,3.1155,3.115,3.0806,3.0161,2.938,2.8139,2.6447,2.4837,2.2188,1.8644,0.0,0.0,0.0,0.0,2.3287,2.5604,2.6893,2.8037,2.9118,2.9316,2.9054,2.8377,2.7769,2.6852,2.561,2.4471,2.2987,2.1079,1.92,0.0,0.0,0.0,0.0,0.0,0.0,0.0,0.0,0.0,0.0,0.0,0.0,0.0,0.0,0.0,0.0,0.0,0.0,0.0,1.5876,1.6462,1.6604,0.0,0.0,0.0,0.0,0.0,0.0,0.0,0.0,0.0,2.3319,2.3093,2.3161,0.0,0.0,2.6286,2.6015,2.6957,2.7725,2.7805,0.0,0.0,0.0,2.7576,2.738,2.7105,2.6894,2.6587,2.6183,2.6296,2.6457,2.6512,2.6749,2.7081,2.7415,2.5297,2.3602,2.3683,2.3739,2.3776,2.3965,2.4395,2.4794,3.4996,3.2946,3.0879,3.117,3.2876,3.2095,3.3284,3.576,3.4487,3.3446,3.2629,3.2369,3.085,2.8495,2.7747,0.0,0.0,0.0,3.005,3.1115,3.144,3.1821,3.2137,3.2155,3.1962,3.1521,3.0473,2.9535,2.8753,2.8098,2.6132,2.2912,0.0,0.0,2.1899,2.3452,2.5002,2.6497,2.7705,2.8787,2.9767,2.9774,2.9659,2.9514,2.8885,2.8117,2.7214,2.6017,2.4678,2.3224,2.1312,1.9369,0.0,0.0,0.0,0.0,0.0,0.0,0.0,0.0,0.0,0.0,0.0,1.123,0.0,0.0,0.0,0.0,1.409,1.5927,1.7828,1.7743,0.0,0.0,0.0,0.0,0.0,0.0,0.0,2.2223,2.3018,2.4137,2.6201,2.5964,2.5794,2.6217,2.7063,2.7622,2.7605,0.0,2.8538,2.8838,2.889,2.8907,2.889,2.8787,2.8679,2.8481,2.7958,2.766,2.7894,2.7737,2.7778,2.8288,2.8458,2.8569,2.8955,2.7278,2.5914,2.5931,2.6101,2.6236,2.6129,2.6285,2.6522,3.7933,3.8236,3.5369,3.4549,3.5171,3.5123,3.5535,3.6188,3.6073,3.5881,3.5653,3.5095,3.3713,3.1627,2.9952,0.0,3.0187,3.083,3.1488,3.2108,3.2108,3.2019,3.1928,3.19,3.1756,3.1667,3.0994,3.0638,3.0537,2.9998,2.9112,2.7794,2.5989,2.4679,2.4044,2.5794,2.684,2.7022,2.8722,2.9859,3.04,3.0332,3.0559,3.1095,2.9856,2.9107,2.8956,2.7503,2.6048,2.4626,2.3173,2.1414,1.9249,0.0,0.0,0.0,0.0,0.0,0.0,0.0,0.0,0.0,0.0,0.0,0.0,0.0,0.0,0.0,1.6707,0.0,2.0065,1.9519,0.0,0.0,0.0,1.9625,2.0369,2.1755,2.319,2.4609,0.0,0.0,2.7891,0.0,2.9111,2.9179,2.9128,2.9077,2.9094,2.909,2.936,2.9957,3.0097,3.0116,3.0003,2.9933,2.9638,2.897,2.8508,2.8319,2.8724,2.8572,2.8483,2.9005,2.9122,2.9158,2.9161,2.9127,2.9162,2.9076,2.8958,2.8908,2.8769,2.8735,2.8735,3.9093,3.9253,3.8515,3.8322,3.8482,3.7951,3.8464,3.957,3.8434,3.7343,3.6367,3.6167,3.5212,3.3787,3.3888,3.436,3.5102,3.577,3.6482,3.7199,3.7199,3.6621,3.5531,3.4966,3.4146,3.3119,3.2427,3.182,3.127,3.1107,3.0599,2.9819,2.9325,2.8278,2.6746,2.7619,2.8844,3.033,3.0283,3.032,3.0392,3.0332,3.0356,3.0518,2.9546,2.9033,2.8976,2.7503,2.6268,2.5372,2.3934,2.2649,2.1532,1.8814,0.0,0.0,0.0,0.0,0.0,0.0,0.0,0.0,0.0,1.5636,1.3017,0.0,1.7625,0.0,1.8527,2.0116,2.1603,2.1075,0.0,0.0,2.3171,2.3458,2.4205,2.5101,2.6015,2.6928,2.7317,2.806,2.9379,2.9719,3.0057,3.0565,3.0192,2.9837,2.9854,2.9928,3.0033,3.0203,3.0236,3.0269,3.0253,2.9856,2.9388,2.8719,2.8491,2.8478,2.8598,2.891,2.9297,2.9844,2.9984,3.0162,3.0538,3.0685,3.0649,3.0581,2.9805,2.8993,2.8993,2.901,2.901,3.9892,3.9923,3.9634,3.9547,3.9558,3.9242,3.9613,4.0306,3.9503,3.8528,3.7498,3.7141,3.6799,3.6436,3.6166,3.6287,3.6661,3.645,3.6565,3.6985,3.669,3.6126,3.5331,3.4913,3.414,3.3103,3.2729,3.2182,3.1525,3.1496,3.1301,3.0943,3.0943,3.0389,2.9385,2.9415,2.9997,3.1021,3.0933,3.0752,3.0462,3.0399,3.0451,3.0711,2.9982,2.9391,2.9008,2.7807,2.6708,2.5643,2.4188,2.3071,2.2313,2.0082,1.829,0.0,0.0,0.0,0.0,0.0,0.0,0.0,0.0,0.0,0.0,0.0,1.949,1.9778,2.1143,2.2496,2.3663,2.368,2.4152,2.5354,2.5778,2.6116,2.6539,2.7266,2.801,2.8737,2.8821,2.9151,3.0048,3.0195,3.0229,3.0385,3.0063,2.988,3.0112,3.0041,2.9978,3.0251,3.0293,3.0414,3.0638,3.0187,2.9695,2.9339,2.885,2.8567,2.8865,2.8943,2.9219,2.9761,3.0123,3.0393,3.0757,3.1035,3.119,3.1089,3.0548,3.0023,2.9991,2.9973,2.9974,4.0531,4.0472,3.9918,3.9619,3.9562,3.9805,3.9834,3.9739,3.9739,3.9328,3.8523,3.7847,3.7982,3.8596,3.7281,3.6739,3.6646,3.5457,3.4904,3.4892,3.4318,3.3985,3.3895,3.3895,3.3517,3.2751,3.2646,3.2286,3.1645,3.154,3.1496,3.1496,3.1496,3.1496,3.1481,3.0926,3.0627,3.0642,3.1151,3.1149,3.05,3.0445,3.0612,3.1,3.0402,2.9658,2.8824,2.8004,2.6977,2.5713,2.4394,2.3378,2.2736,2.1265,1.9828,0.0,1.7687,0.0,0.0,0.0,0.0,0.0,0.0,0.0,0.0,1.9896,2.1417,2.2753,2.4019,2.5117,2.5964,2.6607,2.708,2.7266,2.7925,2.8382,2.8398,2.9076,2.9753,3.0328,3.0321,3.0288,3.0278,3.0251,2.9957,2.9563,2.9352,2.9432,2.9876,2.9679,2.9629,3.0123,3.0187,3.023,3.0518,3.0293,2.9935,2.9805,2.9225,2.8779,2.915,2.8996,2.8919,2.9361,2.9827,3.0145,3.0187,3.0601,3.0935,3.0878,3.0871,3.0957,3.1052,3.1072,3.119,4.119,4.119,4.1055,4.0711,4.0239,4.0245,3.995,3.9466,3.9466,3.9078,3.8396,3.7733,3.7533,3.7637,3.7364,3.7332,3.7405,3.7156,3.7079,3.7162,3.7051,3.6672,3.6121,3.6105,3.5399,3.4152,3.3569,3.2962,3.2317,3.1765,3.1496,3.1496,3.1496,3.1496,3.1496,0.0,0.0,0.0,3.1481,3.1209,3.0531,3.0489,3.0276,2.9845,2.908,0.0,2.764,2.6792,2.6221,2.5939,2.5446,0.0,0.0,0.0,0.0,0.0,0.0,0.0,0.0,0.0,0.0,0.0,2.3987,2.3241,2.1671,2.39,2.5558,2.5845,2.6116,2.6877,2.8231,2.8467,2.9061,3.0209,3.1007,3.1427,3.1481,3.2087,3.2408,3.1918,3.1449,3.0919,3.0316,2.9892,2.954,2.9339,2.8973,2.8709,2.8826,2.9134,2.9429,2.9563,2.9585,2.9429,2.9081,2.8989,2.8803,2.8328,2.8857,2.8996,2.8803,2.9422,2.9695,2.9496,2.9496,2.9585,2.9585,2.9673,2.9848,2.9739,3.0145,3.0621,3.1092,3.119,3.119,4.1916,0.0,4.1557,4.119,0.0,4.0891,4.0696,4.0337,3.9694,3.9435,3.9482,3.8793,3.8723,3.9091,3.8353,3.8017,3.8085,3.768,3.7393,3.7173,3.7157,3.6801,3.612,3.6104,3.5537,3.4531,3.4151,3.3638,3.2976,3.2332,3.1989,3.1989,3.1675,3.1496,3.1496,3.1496,3.1496,3.1496,3.1533,3.1367,3.0986,3.0658,3.0337,2.9979,0.0,0.0,0.0,0.0,0.0,0.0,0.0,0.0,0.0,0.0,0.0,2.4458,2.412,2.4069,2.4458,2.4798,2.5508,2.659,2.774,2.7588,2.5744,2.6979,2.8147,2.8856,2.9228,2.9788,3.0533,3.0956,3.1478,3.2205,3.2628,3.2852,3.2844,3.2861,3.2644,3.1954,3.1298,3.0538,2.9547,2.918,2.8826,2.8567,2.8247,2.8067,2.8091,2.8319,2.8591,2.8919,2.9248,2.9293,2.8973,2.8638,2.8431,2.8174,2.8319,2.8496,2.8511,2.874,2.9027,2.9248,2.9157,2.9019,2.9361,2.9629,2.9761,2.954,2.987,3.023,3.0393,3.0777,3.119,4.2575,4.253,4.1968,4.1669,4.1587,4.1587,4.1527,4.1294,0.0,0.0,0.0,3.9874,3.9951,4.056,3.9296,3.8673,3.8517,3.7877,3.724,3.6656,3.6656,3.6297,3.5699,3.5669,3.5325,3.4713,3.4563,3.4188,3.3649,3.3006,3.2587,3.2467,3.1944,3.1615,3.1511,3.1496,3.1496,3.1496,3.1496,3.1496,3.1496,3.0957,3.0633,3.0494,2.9858,2.939,2.9092,2.8003,2.7109,2.6463,2.5828,2.5542,2.5758,2.618,2.6673,2.7262,2.7417,2.7519,2.7532,2.8068,2.8471,2.8605,3.0437,3.1021,2.9687,2.9704,3.0277,3.1498,3.2158,3.253,3.2682,3.3203,3.355,3.3465,3.3443,3.3371,3.3069,3.2618,3.1991,3.1335,3.0677,2.9817,2.8739,2.8415,2.8165,2.772,2.766,2.7585,2.7585,2.766,2.7845,2.8271,2.8685,2.9004,2.8996,2.8638,2.8383,2.8222,2.7993,2.7919,2.8165,2.8018,2.8149,2.8834,2.8654,2.8591,2.8973,2.9361,2.9651,2.918,2.9563,2.9848,2.9489,3.0102,3.0838,4.3155,4.314,4.305,4.2746,4.2261,4.2261,4.1931,4.1324,4.0591,4.0336,4.0407,3.9724,3.951,3.9602,3.9384,3.8988,3.8432,3.8327,3.7898,0.0,3.727,3.6941,3.6372,3.6342,3.6013,3.5355,3.4756,3.4459,3.4309,3.371,3.308,3.2557,3.2392,3.2064,3.154,3.1496,3.1496,3.1496,3.1496,3.1496,3.1496,3.1406,3.1089,3.0511,2.9907,2.9282,2.8693,2.8396,2.8194,2.8085,2.8331,2.8753,2.9391,2.9445,2.9617,2.972,3.0238,3.0586,3.0625,3.0764,3.1077,3.1726,3.2567,3.2713,3.1955,3.2408,3.2882,3.3085,3.3237,3.3508,3.4083,3.4247,3.4101,3.3649,3.358,3.3149,3.2097,3.1812,3.1427,3.0712,3.0093,2.941,2.8602,2.8042,2.7735,2.761,2.7585,2.7585,2.7585,2.7585,2.761,2.771,2.7785,2.7845,2.7968,2.7835,2.7785,2.771,2.8091,2.814,2.7894,2.8067,2.8198,2.7993,2.7919,2.7845,2.7953,2.7894,2.81,2.8052,2.8472,2.8779,2.8662,2.9225,2.9827,4.3305,4.3305,4.3305,4.3165,4.2895,4.288,4.2731,4.2387,4.1743,4.1302,4.0876,4.0232,3.9948,3.9918,3.9538,3.926,3.8945,3.8945,3.8586,3.7973,3.7928,3.7599,3.6985,3.6656,3.6327,3.5998,3.5355,3.5026,3.4981,3.4352,3.3873,3.3544,3.2886,3.2333,3.2049,3.169,3.1496,3.1496,3.1496,3.1496,3.1496,3.1496,3.1167,3.0522,3.0223,2.9949,2.9626,2.927,2.9047,2.8996,2.9119,2.9391,2.9798,3.0057,3.0551,3.1353,3.1691,3.1883,3.1896,3.2251,3.2662,3.304,3.4022,3.4114,3.3073,3.3612,3.4167,3.4556,3.4607,3.4555,3.4564,3.4574,3.4286,3.3673,3.3283,3.2813,3.2176,3.145,3.0779,3.0116,2.9429,2.8789,2.8109,2.776,2.76,2.7585,2.76,2.76,2.76,2.76,2.76,2.7585,2.7585,2.7585,2.7585,2.7585,2.7585,2.7585,2.7835,2.8018,2.7968,2.814,2.8149,2.8448,2.8076,2.7785,2.7968,2.8107,2.7984,2.7685,2.8091,2.8343,2.8213,2.8487,2.9088,4.3305,4.3305,4.3305,4.3305,4.3305,4.3305,4.3305,4.3245,4.2776,4.2336,4.1758,4.098,4.0621,4.0561,3.9933,3.9649,3.9619,3.9484,3.9089,3.8661,3.8616,3.8272,3.7644,3.712,3.6836,3.6641,3.6028,3.5729,3.5654,3.504,3.4653,3.4414,3.3305,3.2721,3.2721,3.2198,3.1884,3.1735,3.172,3.166,3.1511,3.1496,3.1241,3.0791,3.0703,3.0699,3.0711,3.0271,3.0003,2.9945,2.9858,2.9909,3.019,3.0535,3.1246,3.2319,3.2597,3.2597,3.2488,3.311,3.3494,3.3405,3.4464,3.4704,3.3804,3.401,3.4526,3.5038,3.5025,3.4861,3.4446,3.4366,3.4047,3.3256,3.2692,3.2187,3.1861,3.0974,3.0202,2.9617,2.9137,2.8648,2.8214,2.8049,2.8109,2.8139,2.8049,2.8004,2.7884,2.7824,2.7794,2.763,2.7585,2.7585,2.7585,2.7585,2.7585,2.7585,2.761,2.781,2.8042,2.786,2.7919,2.8543,2.8198,2.782,2.8149,2.8247,2.8067,2.771,2.7959,2.8116,2.7785,2.7968,2.8487,4.3305,4.3305,4.3305,4.3305,4.3305,4.3305,4.3305,4.329,4.3215,4.3185,4.2931,4.1848,4.1294,4.1205,4.0606,4.0322,4.0262,3.9694,3.9358,3.9334,3.932,3.896,3.8332,3.8212,3.7898,3.7315,3.6701,3.6372,3.6297,3.5699,3.5085,3.4503,3.3754,3.341,3.338,3.332,3.3006,3.2422,3.2437,3.2108,3.154,3.1496,3.1466,3.1421,3.1391,3.142,3.1369,3.136,3.13,3.1312,3.1281,3.1578,3.2153,3.233,3.2415,3.2596,3.3117,3.3226,3.2692,3.3212,3.3296,3.2799,3.3375,3.3744,3.3572,3.3604,3.3705,3.3786,3.3786,3.3853,3.37,3.3684,3.3195,3.2128,3.1778,3.1226,3.0278,2.9756,2.9669,2.9612,2.9495,2.9472,2.9292,2.9262,2.9322,2.9217,2.9187,2.9022,2.8607,2.8502,2.8263,2.7809,2.7615,2.7615,2.76,2.7585,2.7585,2.7585,2.7585,2.766,2.771,2.771,2.7685,2.7919,2.7795,2.7685,2.7685,2.7685,2.771,2.766,2.7685,2.7685,2.7625,2.77,2.7993,4.3305,4.3305,4.3305,4.3305,4.3305,4.3305,4.3305,4.3305,4.3305,4.3305,4.3245,4.2761,4.2327,4.1961,4.128,4.098,4.0935,4.0292,3.9993,3.9963,3.9604,3.926,3.899,3.8556,3.8227,3.7958,3.7345,3.6836,3.6432,3.5833,3.5355,3.504,3.4397,3.4099,3.4084,3.3694,3.335,3.311,3.3095,3.2961,3.2617,3.1899,3.1496,3.1496,3.1496,3.1496,3.1496,3.1496,3.1496,3.1496,3.1496,3.1625,3.1923,3.1951,3.2148,3.2559,3.2841,3.2895,3.2614,3.2853,3.2722,3.1979,3.2971,3.3271,3.2461,3.2745,3.2853,3.2528,3.3087,3.3469,3.3093,3.3013,3.2609,3.1708,3.1207,3.0719,3.0218,2.9819,2.9621,2.9621,2.9621,2.9636,2.9621,2.9621,2.9621,2.9621,2.9621,2.9517,2.9205,2.9175,2.8876,2.8353,2.8173,2.8004,2.7705,2.7585,2.7585,2.7585,2.7585,2.7585,2.7585,2.7585,2.7585,2.7585,2.7585,2.7585,2.761,2.7585,2.7585,2.7585,2.7585,2.7585,2.7585,2.7585,2.7735,4.3305,4.3305,4.3305,4.3305,4.3305,4.3305,4.3305,4.3305,4.3305,4.3305,4.3305,4.3305,4.3075,4.262,4.1938,4.1692,4.1602,4.0965,4.0666,4.0591,3.9993,3.9679,3.9604,3.899,3.8676,3.8571,3.8003,3.736,3.6731,3.6088,3.5774,3.5669,3.5132,3.4756,3.4711,3.4262,3.3948,3.3769,3.3769,3.3679,3.3395,3.2527,3.1944,3.1795,3.1765,3.1705,3.1511,3.1496,3.1496,3.1496,3.1496,3.1496,3.1496,3.1496,3.1754,3.2216,3.2299,3.2299,3.2299,3.2299,3.2064,3.1653,3.2516,3.261,3.1868,3.2175,3.2203,3.1741,3.2588,3.301,3.241,3.2299,3.2064,3.1552,3.1032,3.0791,3.0718,3.0357,3.0163,3.0103,3.0253,3.0118,3.0133,3.0178,3.0223,3.0208,3.0178,2.9983,2.9879,2.9819,2.9609,2.8981,2.8876,2.8513,2.7809,2.7585,2.7585,2.7585,2.7585,2.7585,2.7585,2.7585,2.7585,2.7585,2.7585,2.7585,2.7585,2.7585,2.7585,2.7585,2.7585,2.7585,2.7585,2.7585,2.7585,4.3305,4.3319,4.3305,4.3319,4.3305,4.3305,4.3305,4.3305,4.3305,4.3305,4.3305,4.3305,4.3275,4.317,4.262,4.2366,4.2276,4.1677,4.1339,4.1317,4.0666,4.0352,4.0307,3.9694,3.9328,3.932,3.8676,3.8018,3.7375,3.6746,3.6432,3.6435,3.5789,3.5459,3.5444,3.5355,3.507,3.4533,3.4442,3.4189,3.3634,3.3484,3.311,3.2602,3.2437,3.2168,3.166,3.1525,3.154,3.1525,3.1585,3.157,3.154,3.1555,3.1629,3.1657,3.1642,3.1642,3.1701,3.1731,3.1687,3.1614,3.1819,3.1656,3.1778,3.2271,3.2316,3.1615,3.2269,3.2358,3.1894,3.1772,3.164,3.1524,3.1466,3.1406,3.1421,3.1286,3.1391,3.1316,3.1241,3.1197,3.1316,3.1421,3.1271,3.1256,3.1331,3.1137,3.0612,3.0462,3.0193,2.9744,2.9487,2.9112,2.7944,2.775,2.772,2.769,2.775,2.76,2.76,2.7585,2.76,2.7585,2.7585,2.7585,2.7585,2.7585,2.7585,2.7585,2.7585,2.7585,2.7585,2.7585,2.7585,4.3932,4.3888,4.3469,4.3529,4.3873,4.3484,4.3305,4.3305,4.3305,4.3305,4.3305,4.3305,4.3305,4.3314,4.309,4.2985,4.2925,4.2336,4.2051,4.1976,4.1362,4.1025,4.095,4.0352,4.0038,3.9948,3.9349,3.8706,3.8018,3.7389,3.7075,3.6971,3.6447,3.6133,3.6058,3.5714,3.537,3.516,3.5145,3.4996,3.4771,3.4786,3.4457,3.3799,3.335,3.3036,3.2796,3.2781,3.2796,3.2781,3.2751,3.2796,3.2781,3.2796,3.2781,3.2751,3.2796,3.2781,3.2781,3.2796,3.2796,3.2796,3.2796,3.2736,3.2826,3.3006,3.3021,3.2826,3.2512,3.2527,3.2617,3.2034,3.1496,3.1496,3.1496,3.1496,3.1496,3.1496,3.1496,3.1496,3.1496,3.1496,3.1496,3.1496,3.1496,3.1496,3.1496,3.1376,3.1227,3.1137,3.0896,3.0357,3.0148,2.9879,2.9082,2.8483,2.8203,2.8083,2.8019,2.775,2.7645,2.7675,2.7705,2.76,2.7585,2.7585,2.7585,2.7585,2.7585,2.7585,2.7585,2.7585,2.7585,2.7585,2.7585,4.4631,4.4556,4.4152,4.4212,4.4526,4.3888,4.3604,4.3589,4.3394,4.3305,4.3305,4.3305,4.3305,4.3305,4.3305,4.3305,4.326,4.2865,4.271,4.2626,4.1998,4.1737,4.1617,4.1025,4.0591,4.0322,3.9723,3.9155,3.8691,3.8048,3.7734,3.7689,3.709,3.6791,3.6701,3.6327,3.6058,3.5878,3.5818,3.5729,3.5549,3.5489,3.5295,3.4816,3.4367,3.3918,3.3544,3.3499,3.3499,3.3499,3.3499,3.3499,3.3499,3.3499,3.3499,3.3499,3.3484,3.3499,3.3499,3.3499,3.3484,3.3484,3.3499,3.3499,3.3499,3.371,3.3709,3.3499,3.338,3.3335,3.3245,3.2677,3.2064,3.1839,3.163,3.1511,3.1496,3.1496,3.1496,3.1496,3.1496,3.1496,3.1496,3.1496,3.1496,3.1496,3.1496,3.1496,3.1496,3.1481,3.1391,3.0913,3.0823,3.0687,3.0193,2.9699,2.9116,2.8906,2.8667,2.8274,2.7944,2.7929,2.7824,2.7675,2.7585,2.7585,2.7585,2.7585,2.7585,2.7585,2.7585,2.7585,2.7585,2.7585,2.7585,4.5304,4.5289,4.5274,4.5214,4.52,4.4601,4.4317,4.4227,4.3678,4.3484,4.3454,4.3364,4.3379,4.3305,4.3305,4.3305,4.329,4.3215,4.32,4.314,4.2641,4.2425,4.2351,4.1722,4.1055,4.0487,3.9768,3.9454,3.9379,3.8751,3.8392,3.8287,3.7734,3.7434,3.7404,3.727,3.703,3.6611,3.6477,3.6207,3.5624,3.5609,3.5579,3.5504,3.5415,3.4801,3.3664,3.3619,3.3694,3.3649,3.3634,3.3529,3.3679,3.3679,3.3589,3.3679,3.3604,3.3574,3.3604,3.3664,3.3724,3.3724,3.3619,3.3739,3.3844,3.4188,3.4309,3.3918,3.4038,3.4219,3.3724,3.3425,3.3095,3.2587,3.2064,3.175,3.16,3.1511,3.1496,3.1496,3.1496,3.1496,3.1496,3.1496,3.1496,3.1496,3.1496,3.1496,3.1496,3.1496,3.1496,3.1451,3.1331,3.1137,3.1062,3.0941,3.0328,2.9789,2.949,2.9157,2.8753,2.8603,2.8304,2.8109,2.766,2.763,2.7585,2.7585,2.7585,2.7585,2.7585,2.7585,2.7585,2.7585,2.7585,4.6007,4.5933,4.5484,4.5574,4.5888,4.5274,4.5005,4.4975,4.4751,4.4436,4.4062,4.4003,4.3723,4.3364,4.3305,4.3305,4.3305,4.3305,4.3305,4.326,4.312,4.3015,4.2895,4.2396,4.1737,4.1055,4.0397,4.0098,3.9978,3.9424,3.9095,3.8975,3.8422,3.8108,3.8063,3.7644,3.727,3.715,3.712,3.7,3.6776,3.6387,3.6193,3.6118,3.5744,3.5265,3.4906,3.4876,3.4876,3.4846,3.4891,3.4891,3.4876,3.4876,3.4891,3.4876,3.4876,3.4876,3.4876,3.4846,3.4831,3.4861,3.4846,3.4876,3.4876,3.5011,3.5055,3.4801,3.4681,3.4502,3.4681,3.4008,3.3499,3.3215,3.2991,3.2632,3.2213,3.1824,3.154,3.1496,3.1496,3.1496,3.1511,3.1511,3.1496,3.1496,3.1496,3.1496,3.1496,3.1496,3.1496,3.1496,3.1496,3.1496,3.1346,3.1241,3.0943,3.0492,3.0193,2.9834,2.9475,2.9247,2.8891,2.8442,2.8004,2.772,2.7675,2.7585,2.7585,2.7585,2.7585,2.7585,2.7585,2.7585,2.7585,4.6681,4.6636,4.6232,4.6277,4.6591,4.5963,4.5678,4.5633,4.5394,4.5065,4.4721,4.4676,4.4466,4.4082,4.4022,4.3873,4.3733,4.3663,4.3514,4.3319,4.3305,4.3305,4.32,4.2671,4.2216,4.1752,4.1085,4.0771,4.0726,4.0127,3.9798,3.9664,3.9095,3.8766,3.8751,3.8377,3.8063,3.7823,3.7778,3.7659,3.7389,3.703,3.6821,3.6761,3.6417,3.6237,3.6207,3.6207,3.5983,3.5609,3.5489,3.5489,3.5489,3.5474,3.5489,3.5489,3.5489,3.5474,3.5489,3.5415,3.5489,3.5489,3.5489,3.5474,3.5489,3.5489,3.5489,3.5415,3.5145,3.504,3.5265,3.4831,3.4277,3.4233,3.3739,3.335,3.2886,3.2497,3.2317,3.2287,3.2079,3.1914,3.1869,3.1585,3.1525,3.1496,3.1496,3.1496,3.1496,3.1496,3.1525,3.1525,3.1496,3.1496,3.1496,3.1481,3.1481,3.1152,3.0823,3.0447,3.0058,2.9924,2.9699,2.9056,2.8573,2.8218,2.8113,2.7735,2.7585,2.7585,2.766,2.7585,2.7585,2.7585,2.7585,4.7294,4.7309,4.7294,4.7219,4.7174,4.6621,4.6339,4.6277,4.5768,4.5469,4.5379,4.5364,4.5289,4.5244,4.508,4.4796,4.4466,4.4377,4.4107,4.3648,4.3469,4.3409,4.3215,4.2776,4.253,4.2327,4.1758,4.1444,4.1399,4.0771,4.0457,4.0382,3.9813,3.9454,3.9424,3.9388,3.8975,3.8527,3.8452,3.8167,3.7659,3.7494,3.7464,3.7449,3.7345,3.724,3.721,3.718,3.6731,3.5759,3.5639,3.5609,3.5519,3.5489,3.5489,3.5489,3.5489,3.5489,3.5489,3.5489,3.5489,3.5489,3.5489,3.5489,3.5489,3.5489,3.5489,3.5489,3.5429,3.5444,3.5489,3.5385,3.534,3.5295,3.4337,3.3679,3.3574,3.3455,3.326,3.323,3.2931,3.2557,3.2512,3.2064,3.1839,3.178,3.1809,3.1869,3.1869,3.1944,3.169,3.1675,3.175,3.1585,3.1615,3.1496,3.1496,3.1406,3.1167,3.0928,3.0582,3.0462,3.0298,2.9669,2.9131,2.8816,2.8577,2.8304,2.7974,2.7914,2.7854,2.7675,2.76,2.7615,2.766,4.7309,4.7309,4.7309,4.7309,4.7294,4.71,4.704,4.7025,4.6845,4.6426,4.6142,4.6067,4.5798,4.5349,4.5334,4.5185,4.508,4.505,4.499,4.4721,4.4257,4.3738,4.3364,4.318,4.306,4.2955,4.2417,4.2141,4.2096,4.1482,4.113,4.11,4.0472,4.0142,4.0098,3.9694,3.9364,3.9185,3.9104,3.9065,3.8811,3.8347,3.8138,3.8093,3.7704,3.7479,3.7419,3.7404,3.7075,3.6342,3.6237,3.5983,3.5639,3.5579,3.5624,3.5609,3.5564,3.5534,3.5534,3.5564,3.5534,3.5489,3.5639,3.5504,3.5489,3.5504,3.5504,3.5489,3.5489,3.5519,3.5519,3.5504,3.5504,3.54,3.4711,3.4249,3.4143,3.3784,3.3499,3.3469,3.3365,3.326,3.3185,3.3021,3.2856,3.2871,3.2856,3.2841,3.2721,3.2736,3.2617,3.2347,3.2258,3.1914,3.1705,3.157,3.1496,3.1496,3.1406,3.1361,3.1032,3.0821,3.0597,3.0208,2.9699,2.934,2.931,2.9202,2.8843,2.8378,2.8364,2.8304,2.7824,2.766,2.7764,4.7309,4.7309,4.7309,4.7309,4.7309,4.7309,4.7309,4.7309,4.7294,4.7115,4.6785,4.6683,4.6516,4.6157,4.6142,4.5963,4.5753,4.5723,4.5559,4.5214,4.4885,4.4227,4.3499,4.3305,4.3305,4.326,4.2955,4.2791,4.2656,4.2156,4.1871,4.1707,4.113,4.0831,4.0771,4.0187,3.9828,3.9732,3.9568,3.9388,3.9328,3.905,3.8871,3.8766,3.8422,3.8257,3.8257,3.8257,3.7853,3.712,3.6851,3.6686,3.6372,3.6312,3.6312,3.6297,3.6312,3.6327,3.6297,3.6312,3.6312,3.6312,3.6312,3.6312,3.6327,3.6297,3.6297,3.6342,3.6103,3.5938,3.5863,3.5684,3.5519,3.5459,3.513,3.4906,3.4906,3.4607,3.4382,3.4292,3.4098,3.3934,3.3888,3.3694,3.3544,3.3469,3.338,3.3395,3.3395,3.3499,3.3455,3.311,3.2856,3.2602,3.2258,3.2064,3.1735,3.169,3.163,3.1615,3.1361,3.1135,3.1046,3.0746,3.0283,2.9968,2.9968,2.9819,2.9382,2.9082,2.9026,2.8876,2.8513,2.8154,2.8199,4.7309,4.7309,4.7309,4.7309,4.7309,4.7309,4.7309,4.7309,4.7309,4.7294,4.7249,4.7294,4.7174,4.7309,4.704,4.6935,4.6384,4.6426,4.5992,4.5648,4.5319,4.4811,4.3813,4.3574,4.3439,4.3319,4.3305,4.3245,4.312,4.2686,4.253,4.2351,4.1841,4.1542,4.1354,4.0846,4.0531,4.0427,4.0083,3.9747,3.9642,3.9544,3.9454,3.9239,3.9224,3.9164,3.9209,3.9209,3.8796,3.7689,3.7554,3.7434,3.7389,3.736,3.7345,3.727,3.721,3.724,3.733,3.721,3.73,3.724,3.727,3.7404,3.724,3.718,3.718,3.7165,3.6881,3.6626,3.6522,3.6073,3.5923,3.5893,3.5744,3.5609,3.5594,3.5549,3.5489,3.5474,3.4906,3.4683,3.4459,3.4128,3.3754,3.4247,3.4173,3.4188,3.4188,3.4218,3.4038,3.3694,3.3484,3.332,3.2976,3.2647,3.2243,3.1944,3.1869,3.178,3.154,3.1376,3.1436,3.1241,3.0808,3.0642,3.0612,3.0328,2.9939,2.9714,2.9669,2.9609,2.9475,2.9142,2.9037,4.7309,4.7309,4.7309,4.7309,4.7309,4.7309,4.7309,4.7309,4.7309,4.7309,4.7309,4.7309,4.7309,4.7309,4.7309,4.7219,4.7055,4.701,4.6726,4.613,4.6097,4.5648,4.487,4.4392,4.3813,4.3484,4.3319,4.3305,4.3215,4.314,4.312,4.3,4.2476,4.2186,4.2096,4.1519,4.116,4.1145,4.098,4.0621,4.0247,4.0172,3.9963,3.9559,3.9433,3.9439,3.9388,3.9388,3.9239,3.8931,3.8467,3.8003,3.7659,3.7524,3.7539,3.7554,3.7509,3.7464,3.7434,3.7524,3.7434,3.7505,3.7584,3.7404,3.7419,3.7494,3.7464,3.7404,3.727,3.721,3.7105,3.7075,3.6881,3.6761,3.6507,3.6267,3.6193,3.5818,3.5534,3.5459,3.537,3.528,3.5265,3.5115,3.4951,3.504,3.5011,3.504,3.4981,3.4876,3.4637,3.4307,3.4233,3.4038,3.3514,3.3155,3.2766,3.2467,3.2362,3.2064,3.1809,3.1615,3.166,3.1585,3.1406,3.1241,3.1047,3.1107,3.0778,3.0539,3.0298,3.0178,3.0058,2.9864,2.9849,4.7309,4.7309,4.7309,4.7309,4.7309,4.7309,4.7309,4.7309,4.7309,4.7309,4.7309,4.7309,4.7309,4.7309,4.7309,4.7309,4.7309,4.7309,4.713,4.683,4.6756,4.6411,4.5873,4.5364,4.4755,4.3958,4.3753,4.3618,4.3379,4.3319,4.326,4.329,4.297,4.2821,4.2716,4.2177,4.1916,4.1782,4.1542,4.119,4.092,4.0846,4.0546,4.0008,3.9858,3.9768,3.9469,3.9388,3.9388,3.9284,3.9065,3.8736,3.8452,3.8332,3.8332,3.8362,3.8327,3.8362,3.8362,3.8347,3.8377,3.8282,3.8347,3.8312,3.8312,3.8347,3.8347,3.8272,3.8063,3.7778,3.7449,3.7389,3.7404,3.736,3.7135,3.6926,3.6776,3.6103,3.5489,3.5489,3.5474,3.5459,3.5489,3.5489,3.5459,3.5265,3.5265,3.528,3.5295,3.522,3.5205,3.5011,3.4981,3.4711,3.4113,3.3664,3.3305,3.3095,3.3006,3.2632,3.2258,3.2049,3.1899,3.1705,3.1481,3.1481,3.1361,3.1466,3.1451,3.1167,3.0883,3.0746,3.0672,3.0687,3.0702,4.7309,4.7309,4.7309,4.7309,4.7309,4.7309,4.7309,4.7309,4.7309,4.7309,4.7309,4.7309,4.7309,4.7309,4.7309,4.7309,4.7309,4.7309,4.7234,4.7219,4.7189,4.692,4.6516,4.6292,4.5813,4.4706,4.4496,4.4152,4.3648,4.3424,4.3469,4.3334,4.329,4.3185,4.3095,4.2836,4.2506,4.2447,4.2102,4.1728,4.1602,4.1519,4.1227,4.0666,4.0531,4.0352,4.0023,3.9903,3.9798,3.9709,3.9597,3.9538,3.9508,3.9403,3.9388,3.9343,3.9209,3.9164,3.9134,3.9239,3.9254,3.9388,3.9343,3.9328,3.9284,3.9209,3.9179,3.9074,3.8841,3.8377,3.7808,3.7883,3.7853,3.7764,3.7689,3.7569,3.736,3.6492,3.6013,3.5729,3.5789,3.5804,3.5594,3.5489,3.5489,3.5489,3.5489,3.5489,3.5489,3.5489,3.5415,3.5385,3.5295,3.525,3.4726,3.4472,3.4083,3.3739,3.3649,3.326,3.2826,3.2677,3.2422,3.172,3.1496,3.1511,3.1511,3.1481,3.1481,3.1496,3.1406,3.1152,3.1241,3.1466,3.1391,4.7309,4.7309,4.7309,4.7309,4.7309,4.7309,4.7309,4.7309,4.7309,4.7309,4.7309,4.7309,4.7309,4.7309,4.7309,4.7309,4.7309,4.7309,4.7309,4.7309,4.7309,4.7145,4.7085,4.6995,4.6621,4.6022,4.5484,4.487,4.4287,4.4097,4.3858,4.3454,4.3349,4.3349,4.329,4.317,4.3075,4.3045,4.2851,4.2611,4.2336,4.2201,4.1916,4.1294,4.1257,4.1085,4.1025,4.1048,4.1093,4.1025,4.0531,4.0292,4.0142,3.9798,3.9523,3.9388,3.9388,3.9388,3.9388,3.9388,3.9388,3.9388,3.9388,3.9388,3.9388,3.9388,3.9388,3.9358,3.9284,3.9104,3.9089,3.885,3.897,3.8916,3.8542,3.8242,3.8078,3.7599,3.6881,3.6552,3.6387,3.6118,3.5863,3.5609,3.5489,3.5489,3.5489,3.5489,3.5489,3.5489,3.5474,3.5474,3.5459,3.5444,3.5325,3.522,3.4966,3.4487,3.4262,3.3994,3.3619,3.341,3.3006,3.2318,3.178,3.16,3.1585,3.1525,3.1496,3.1496,3.1496,3.1496,3.1496,3.1496,3.1496,4.7309,4.7309,4.7309,4.7309,4.7309,4.7309,4.7309,4.7309,4.7309,4.7309,4.7309,4.7309,4.7309,4.7309,4.7309,4.7309,4.7309,4.7309,4.7309,4.7309,4.7309,4.7309,4.7309,4.7309,4.7145,4.6815,4.6441,4.5738,4.49,4.4825,4.4411,4.3962,4.3798,4.3648,4.3364,4.329,4.3305,4.3305,4.3275,4.3155,4.2895,4.2851,4.2491,4.2111,4.1886,4.1752,4.1452,4.1422,4.1407,4.1347,4.107,4.0935,4.0801,4.0576,4.0113,3.9582,3.9418,3.9388,3.9388,3.9388,3.9388,3.9388,3.9388,3.9388,3.9388,3.9388,3.9388,3.9388,3.9388,3.9388,3.9343,3.9388,3.9388,3.9343,3.9095,3.8931,3.8841,3.8601,3.8078,3.7404,3.6866,3.6477,3.6118,3.5863,3.5579,3.5489,3.5489,3.5489,3.5489,3.5489,3.5489,3.5489,3.5489,3.5489,3.5489,3.5474,3.5444,3.5085,3.4831,3.4578,3.4322,3.4083,3.3589,3.2976,3.2452,3.2093,3.1615,3.154,3.1511,3.1511,3.1496,3.1496,3.1496,3.1496,3.1496,4.7309,4.7309,4.7309,4.7309,4.7309,4.7309,4.7309,4.7309,4.7309,4.7309,4.7309,4.7309,4.7309,4.7309,4.7309,4.7309,4.7309,4.7309,4.7309,4.7309,4.7309,4.7309,4.7309,4.7309,4.7264,4.7204,4.7145,4.6666,4.5723,4.5514,4.5125,4.4691,4.4511,4.4142,4.3678,4.3604,4.3469,4.3305,4.3305,4.3305,4.3305,4.326,4.3105,4.2626,4.259,4.2351,4.1998,4.1953,4.1938,4.1863,4.1698,4.1632,4.1549,4.1482,4.0891,4.0008,3.9687,3.9574,3.9403,3.9388,3.9388,3.9388,3.9388,3.9388,3.9388,3.9388,3.9388,3.9388,3.9388,3.9388,3.9388,3.9388,3.9388,3.9388,3.9373,3.9358,3.9298,3.9149,3.8975,3.8272,3.7419,3.6836,3.6492,3.6163,3.5893,3.5504,3.5489,3.5489,3.5489,3.5489,3.5489,3.5489,3.5489,3.5489,3.5489,3.5489,3.5474,3.5355,3.522,3.507,3.4876,3.4696,3.4173,3.3679,3.341,3.3006,3.2273,3.166,3.1705,3.169,3.157,3.1496,3.1496,3.1496,3.1496,4.7309,4.7309,4.7309,4.7309,4.7309,4.7309,4.7309,4.7309,4.7309,4.7309,4.7309,4.7309,4.7309,4.7309,4.7309,4.7309,4.7309,4.7309,4.7309,4.7309,4.7309,4.7309,4.7309,4.7309,4.7309,4.7309,4.7309,4.6905,4.6352,4.6202,4.5843,4.5319,4.514,4.4855,4.4272,4.4212,4.3858,4.3439,4.3319,4.3305,4.3305,4.3305,4.323,4.3155,4.3095,4.306,4.288,4.2851,4.2856,4.2871,4.2491,4.2321,4.2201,4.1707,4.1414,4.1025,4.0621,4.0053,3.9642,3.9612,3.9664,3.9694,3.9582,3.9433,3.9597,3.9612,3.9597,3.9388,3.9433,3.9403,3.9403,3.9388,3.9388,3.9388,3.9388,3.9388,3.9388,3.9388,3.9224,3.9074,3.8257,3.7449,3.6866,3.6537,3.6207,3.5804,3.5519,3.5594,3.5624,3.5729,3.5519,3.5504,3.5504,3.5489,3.5489,3.5489,3.5489,3.5489,3.5474,3.5444,3.528,3.507,3.4936,3.4502,3.4233,3.3769,3.3021,3.2452,3.2123,3.1959,3.1929,3.172,3.1496,3.1496,3.1525,4.7309,4.7309,4.7309,4.7309,4.7309,4.7309,4.7309,4.7309,4.7309,4.7309,4.7309,4.7309,4.7309,4.7309,4.7309,4.7309,4.7309,4.7309,4.7309,4.7309,4.7309,4.7309,4.7309,4.7309,4.7309,4.7309,4.7294,4.7234,4.6905,4.6785,4.6531,4.5978,4.5843,4.5529,4.4945,4.487,4.4481,4.3962,4.3544,4.3319,4.3305,4.3305,4.3305,4.3305,4.3305,4.3305,4.3305,4.3305,4.3305,4.326,4.3,4.2925,4.288,4.2626,4.2372,4.1946,4.1737,4.122,4.0681,4.0546,4.0457,4.0502,4.0502,4.0576,4.0531,4.0472,4.0277,3.9993,3.9978,3.9828,3.9544,3.9388,3.9388,3.9403,3.9493,3.9403,3.9403,3.9388,3.9328,3.9224,3.9074,3.8302,3.7584,3.73,3.7015,3.6626,3.6462,3.6537,3.6447,3.6357,3.5998,3.5519,3.5504,3.5489,3.5489,3.5489,3.5489,3.5489,3.5489,3.5474,3.5474,3.5355,3.5205,3.519,3.5011,3.4427,3.3709,3.326,3.2916,3.2602,3.2333,3.2183,3.2004,3.163,3.163,4.7309,4.7309,4.7309,4.7309,4.7309,4.7309,4.7309,4.7309,4.7309,4.7309,4.7309,4.7309,4.7309,4.7309,4.7309,4.7309,4.7309,4.7309,4.7309,4.7309,4.7309,4.7309,4.7309,4.7309,4.7309,4.7309,4.7309,4.7264,4.7279,4.7219,4.698,4.6591,4.6561,4.6172,4.5723,4.5499,4.5229,4.4586,4.4127,4.3828,4.3633,4.3629,4.3454,4.3364,4.3305,4.3305,4.3305,4.3305,4.3305,4.329,4.326,4.32,4.32,4.311,4.2946,4.2671,4.2521,4.2342,4.1833,4.1549,4.1482,4.1422,4.1422,4.1227,4.1302,4.1407,4.1302,4.0666,4.0651,4.0382,4.0068,3.9993,3.9918,3.9873,3.9702,3.9568,3.9469,3.9403,3.9388,3.9328,3.9224,3.917,3.8556,3.8197,3.7853,3.7479,3.7404,3.7449,3.724,3.6971,3.6537,3.6013,3.5908,3.5804,3.5549,3.5534,3.5519,3.5519,3.5519,3.5489,3.5489,3.5489,3.54,3.5444,3.5489,3.519,3.4532,3.4098,3.3649,3.3245,3.2901,3.2826,3.2602,3.2153,3.1884,4.7309,4.7309,4.7309,4.7309,4.7309,4.7309,4.7309,4.7309,4.7309,4.7309,4.7309,4.7309,4.7309,4.7309,4.7309,4.7309,4.7309,4.7309,4.7309,4.7309,4.7309,4.7309,4.7309,4.7309,4.7309,4.7309,4.7309,4.7309,4.7309,4.7309,4.7264,4.7234,4.707,4.6756,4.6396,4.6112,4.5828,4.5304,4.496,4.4646,4.4377,4.4197,4.3962,4.3514,4.3364,4.3305,4.3319,4.3319,4.3305,4.3305,4.3305,4.3305,4.3305,4.3305,4.317,4.311,4.3105,4.2961,4.2761,4.2147,4.1564,4.1467,4.1557,4.1669,4.1743,4.1519,4.1354,4.1369,4.1362,4.122,4.1145,4.116,4.0711,4.0442,4.0187,3.9903,3.9709,3.9454,3.9403,3.9388,3.9328,3.9275,3.9245,3.879,3.8527,3.8153,3.7973,3.8003,3.7689,3.7404,3.7045,3.6656,3.6492,3.6222,3.5714,3.5669,3.5789,3.5699,3.5624,3.5549,3.5489,3.5489,3.5489,3.5489,3.5489,3.5444,3.5355,3.4801,3.4262,3.3739,3.3425,3.3365,3.3245,3.2931,3.2677,4.7309,4.7309,4.7309,4.7309,4.7309,4.7309,4.7309,4.7309,4.7309,4.7309,4.7309,4.7309,4.7309,4.7309,4.7309,4.7309,4.7309,4.7309,4.7309,4.7309,4.7309,4.7309,4.7309,4.7309,4.7309,4.7309,4.7309,4.7309,4.7309,4.7309,4.7309,4.7309,4.7309,4.7189,4.6905,4.6518,4.6202,4.5933,4.5544,4.5125,4.5035,4.4915,4.4796,4.4586,4.4047,4.3973,4.3858,4.3469,4.3349,4.3305,4.3319,4.3305,4.3305,4.3305,4.3305,4.3305,4.3305,4.3305,4.3305,4.2796,4.2611,4.2581,4.2596,4.2521,4.2447,4.2536,4.2312,4.2216,4.2021,4.1908,4.1429,4.1369,4.1175,4.095,4.0696,4.0397,4.0098,3.9858,3.9604,3.9627,3.9493,3.9343,3.9358,3.9328,3.9059,3.8826,3.8676,3.8497,3.8212,3.7958,3.7629,3.73,3.712,3.6956,3.6492,3.6282,3.6118,3.5968,3.5818,3.5714,3.5654,3.5489,3.5489,3.5489,3.5489,3.5459,3.54,3.5265,3.4936,3.4532,3.4173,3.3918,3.3769,3.3664,3.344,4.713,4.7294,4.7309,4.7309,4.7309,4.7309,4.7309,4.7309,4.7309,4.7309,4.7309,4.7309,4.7309,4.7309,4.7309,4.7309,4.7309,4.7309,4.7309,4.7309,4.7309,4.7309,4.7309,4.7309,4.7309,4.7309,4.7309,4.7309,4.7309,4.7309,4.7309,4.7309,4.7309,4.7279,4.7174,4.689,4.6578,4.6471,4.6217,4.5723,4.5678,4.5603,4.5379,4.5244,4.4781,4.4631,4.4436,4.4077,4.3733,4.3574,4.3469,4.3319,4.3305,4.3305,4.3305,4.3305,4.3305,4.3305,4.3305,4.329,4.3275,4.3125,4.317,4.32,4.3305,4.329,4.2955,4.2731,4.2626,4.2432,4.1923,4.2102,4.1953,4.1758,4.1504,4.1227,4.0801,4.0502,4.0142,3.9918,3.9798,3.9723,3.9403,3.9418,3.9313,3.9119,3.9044,3.896,3.8841,3.8586,3.8362,3.8033,3.7719,3.7569,3.7375,3.7045,3.6731,3.6596,3.6402,3.6043,3.5893,3.5729,3.5534,3.5489,3.5489,3.5489,3.5444,3.537,3.54,3.54,3.4996,3.4562,3.4607,3.4487,3.4158,4.6741,4.7279,4.7309,4.7309,4.7309,4.7309,4.7309,4.7309,4.7309,4.7309,4.7309,4.7309,4.7309,4.7309,4.7309,4.7309,4.7309,4.7309,4.7309,4.7309,4.7309,4.7309,4.7309,4.7309,4.7309,4.7309,4.7309,4.7309,4.7309,4.7309,4.7309,4.7309,4.7309,4.7309,4.7309,4.7294,4.7279,4.7264,4.713,4.6756,4.6426,4.6292,4.6022,4.5723,4.5409,4.5289,4.5155,4.4646,4.4332,4.4257,4.3748,4.3514,4.3454,4.3334,4.3305,4.3305,4.3305,4.3305,4.3305,4.3305,4.3305,4.3305,4.3305,4.3305,4.3305,4.329,4.3275,4.3075,4.311,4.317,4.314,4.3095,4.2731,4.2462,4.2231,4.1886,4.1482,4.1025,4.0651,4.0442,4.0352,4.0187,3.9753,3.9469,3.9469,3.9424,3.9373,3.9328,3.926,3.9125,3.8871,3.8706,3.8377,3.8272,3.8063,3.7644,3.7345,3.7225,3.6985,3.6611,3.6267,3.6043,3.5833,3.5624,3.5489,3.5489,3.5489,3.5474,3.5489,3.5489,3.5489,3.5265,3.534,3.5235,3.4831,4.6711,4.7309,4.7309,4.7309,4.7309,4.7309,4.7309,4.7309,4.7309,4.7309,4.7309,4.7309,4.7309,4.7309,4.7309,4.7309,4.7309,4.7309,4.7309,4.7309,4.7309,4.7309,4.7309,4.7309,4.7309,4.7309,4.7309,4.7309,4.7309,4.7309,4.7309,4.7309,4.7309,4.7309,4.7309,4.7309,4.7309,4.7309,4.7264,4.7174,4.698,4.6935,4.6815,4.6531,4.6172,4.5992,4.5933,4.5319,4.5005,4.4885,4.4347,4.3977,4.3828,4.3693,4.3349,4.3319,4.3305,4.3305,4.3305,4.3305,4.3305,4.3305,4.3305,4.3305,4.3305,4.3305,4.3305,4.3305,4.3305,4.3305,4.326,4.3245,4.3045,4.294,4.2686,4.2366,4.1961,4.1542,4.1145,4.11,4.1025,4.0681,4.0277,4.0038,3.9963,3.9664,3.9568,3.9433,3.9364,3.9349,3.9179,3.9215,3.905,3.896,3.8751,3.8317,3.8078,3.7988,3.7629,3.718,3.6836,3.6522,3.6252,3.6088,3.5774,3.5489,3.5489,3.5489,3.5489,3.5489,3.5489,3.5489,3.5444,3.5429,3.5325,4.6486,4.7279,4.7309,4.7309,4.7309,4.7309,4.7309,4.7309,4.7309,4.7309,4.7309,4.7309,4.7309,4.7309,4.7309,4.7309,4.7309,4.7309,4.7309,4.7309,4.7309,4.7309,4.7309,4.7309,4.7309,4.7309,4.7309,4.7309,4.7309,4.7309,4.7309,4.7309,4.7309,4.7309,4.7309,4.7309,4.7309,4.7309,4.7294,4.7294,4.7249,4.7264,4.7264,4.7115,4.689,4.6651,4.6429,4.6112,4.5648,4.5454,4.5095,4.4676,4.4466,4.4067,4.3693,4.3618,4.3379,4.3349,4.3305,4.3305,4.3305,4.3305,4.3305,4.3305,4.3305,4.3305,4.3305,4.3305,4.3305,4.3305,4.3305,4.3305,4.326,4.314,4.306,4.2686,4.2566,4.2147,4.1908,4.1848,4.1669,4.1294,4.0891,4.0711,4.0561,4.0172,3.9798,3.9649,3.9484,3.9403,3.9388,3.9373,3.9394,3.926,3.914,3.8975,3.8796,3.8751,3.8302,3.7778,3.7524,3.724,3.6896,3.657,3.6237,3.5908,3.5594,3.5504,3.5549,3.5534,3.5489,3.5489,3.5489,3.5489,3.5489,4.6082,4.7189,4.7309,4.7309,4.7309,4.7309,4.7309,4.7309,4.7309,4.7309,4.7309,4.7309,4.7309,4.7309,4.7309,4.7309,4.7309,4.7309,4.7309,4.7309,4.7309,4.7309,4.7309,4.7309,4.7309,4.7309,4.7309,4.7309,4.7309,4.7309,4.7309,4.7309,4.7309,4.7309,4.7309,4.7309,4.7309,4.7309,4.7309,4.7309,4.7309,4.7309,4.7309,4.7249,4.7174,4.713,4.6965,4.6651,4.6411,4.6127,4.5708,4.5439,4.5125,4.4706,4.4466,4.4157,4.3738,4.3648,4.3604,4.3663,4.3618,4.3738,4.3604,4.3439,4.3305,4.3305,4.3305,4.3305,4.3305,4.3305,4.3305,4.3305,4.329,4.3275,4.3275,4.317,4.317,4.2961,4.2791,4.2626,4.2432,4.2126,4.1617,4.1324,4.1175,4.0651,4.0262,3.9963,3.9783,3.9418,3.9403,3.9388,3.9373,3.9388,3.9298,3.9245,3.9215,3.9065,3.8841,3.8407,3.8182,3.7913,3.7539,3.7135,3.6731,3.6417,3.6237,3.5938,3.5669,3.5639,3.5669,3.5489,3.5489,3.5489,3.5489,4.5813,4.6636,4.71,4.7309,4.7309,4.7309,4.7309,4.7309,4.7309,4.7309,4.7309,4.7309,4.7309,4.7309,4.7309,4.7309,4.7309,4.7309,4.7309,4.7309,4.7309,4.7309,4.7309,4.7309,4.7309,4.7309,4.7309,4.7339,4.7354,4.7339,4.7354,4.7309,4.7324,4.7324,4.7309,4.7309,4.7309,4.7309,4.7309,4.7309,4.7309,4.7309,4.7309,4.7309,4.7309,4.7309,4.7189,4.71,4.695,4.686,4.6352,4.6052,4.5978,4.5409,4.5005,4.5005,4.4825,4.4751,4.4721,4.4721,4.4646,4.4556,4.4601,4.4062,4.3678,4.3394,4.3409,4.3424,4.3334,4.3305,4.3305,4.3305,4.3305,4.3305,4.3305,4.3305,4.3305,4.3245,4.309,4.3045,4.288,4.2686,4.2192,4.2111,4.1848,4.1235,4.0771,4.0487,4.0038,3.9672,3.9418,3.9388,3.9388,3.9388,3.9388,3.9313,3.9343,3.9313,3.911,3.896,3.8841,3.8556,3.8153,3.7704,3.7255,3.709,3.7015,3.6656,3.6207,3.6013,3.5983,3.5699,3.5504,3.5549,3.5519,4.5454,4.6294,4.6741,4.7055,4.7294,4.7309,4.7309,4.7309,4.7309,4.7309,4.7309,4.7309,4.7309,4.7309,4.7309,4.7309,4.7309,4.7309,4.7309,4.7309,4.7309,4.7309,4.7309,4.7309,4.7309,4.7309,4.7369,4.7474,4.7608,4.7698,4.7713,4.7713,4.7519,4.7354,4.7309,4.7309,4.7309,4.7309,4.7309,4.7309,4.7309,4.7309,4.7309,4.7309,4.7309,4.7309,4.7309,4.7309,4.7309,4.7309,4.6815,4.6726,4.6563,4.6097,4.5454,4.5379,4.5214,4.5155,4.514,4.5185,4.5259,4.5304,4.5334,4.49,4.4392,4.4047,4.3913,4.3768,4.3499,4.3305,4.3305,4.3305,4.3305,4.3305,4.3305,4.3305,4.3305,4.3305,4.329,4.3275,4.3185,4.309,4.291,4.2806,4.2536,4.2006,4.1572,4.1287,4.0606,3.9852,3.9553,3.9388,3.9388,3.9388,3.9388,3.9388,3.9388,3.9388,3.9328,3.926,3.9284,3.9125,3.8676,3.8212,3.7734,3.7599,3.7479,3.718,3.6821,3.6656,3.6552,3.6462,3.6148,3.5744,3.5684,4.5039,4.6204,4.6352,4.6815,4.7264,4.7309,4.7309,4.7309,4.7309,4.7309,4.7309,4.7309,4.7309,4.7309,4.7309,4.7309,4.7309,4.7309,4.7309,4.7309,4.7309,4.7309,4.7309,4.7309,4.7414,4.7384,4.7519,4.7848,4.8237,4.8356,4.8356,4.8327,4.7908,4.7683,4.7578,4.7549,4.7489,4.7309,4.7309,4.7309,4.7309,4.7309,4.7309,4.7309,4.7309,4.7309,4.7309,4.7309,4.7309,4.7309,4.7294,4.7249,4.7025,4.6741,4.6112,4.5858,4.5783,4.5768,4.5798,4.5798,4.5723,4.5633,4.5454,4.5589,4.5394,4.4721,4.4451,4.4092,4.3783,4.3469,4.3394,4.3334,4.3305,4.3305,4.3305,4.3305,4.3305,4.3305,4.3305,4.3305,4.3275,4.317,4.3155,4.3045,4.297,4.2575,4.2186,4.1901,4.1369,4.0457,3.9993,3.9694,3.9418,3.9418,3.9388,3.9388,3.9388,3.9388,3.9388,3.9388,3.9343,3.9254,3.9149,3.8766,3.8377,3.8033,3.7823,3.7629,3.7524,3.7419,3.7345,3.733,3.6956,3.6372,3.6028,4.4796,4.5633,4.6651,4.7174,4.7294,4.7309,4.7309,4.7309,4.7309,4.7309,4.7309,4.7309,4.7309,4.7309,4.7309,4.7309,4.7309,4.7309,4.7309,4.7309,4.7309,4.7399,4.7354,4.7444,4.7623,4.7923,4.8147,4.8416,4.888,4.9075,4.9075,4.906,4.8686,4.8446,4.8057,4.8042,4.7893,4.7489,4.7429,4.7369,4.7309,4.7309,4.7309,4.7309,4.7309,4.7309,4.7309,4.7309,4.7309,4.7309,4.7309,4.7309,4.7279,4.713,4.6995,4.6845,4.6666,4.6621,4.6606,4.6591,4.6591,4.6696,4.6711,4.6785,4.6486,4.5603,4.4945,4.4526,4.4137,4.3783,4.3499,4.3424,4.3319,4.3319,4.3305,4.3305,4.3305,4.3305,4.3305,4.3305,4.3305,4.3305,4.3305,4.3275,4.3254,4.2955,4.256,4.2246,4.2066,4.1399,4.0816,4.0397,3.9649,3.9514,3.9418,3.9388,3.9388,3.9388,3.9388,3.9388,3.9388,3.9328,3.9254,3.9254,3.905,3.8691,3.8437,3.8362,3.8257,3.8153,3.7988,3.7913,3.7689,3.718,3.6761,4.4257,4.5005,4.6307,4.704,4.7279,4.7309,4.7309,4.7309,4.7309,4.7309,4.7309,4.7309,4.7309,4.7309,4.7309,4.7309,4.7309,4.7309,4.7309,4.7309,4.7399,4.7563,4.7608,4.7743,4.8207,4.8581,4.9045,4.9404,4.9658,4.9688,4.9688,4.9643,4.9494,4.9179,4.873,4.8671,4.8401,4.7803,4.7743,4.7593,4.7414,4.7324,4.7309,4.7309,4.7309,4.7309,4.7309,4.7309,4.7309,4.7309,4.7309,4.7309,4.7309,4.7264,4.7279,4.7249,4.7219,4.7309,4.7309,4.7309,4.7309,4.7309,4.7309,4.7115,4.7115,4.6322,4.6022,4.5589,4.4945,4.4571,4.4052,4.3858,4.3544,4.3424,4.3349,4.3305,4.3305,4.3305,4.3305,4.3305,4.3305,4.3305,4.3305,4.3305,4.3245,4.323,4.2851,4.2776,4.2566,4.2252,4.1698,4.1197,4.0442,3.9709,3.9418,3.9388,3.9388,3.9388,3.9388,3.9388,3.9388,3.9388,3.9373,3.9343,3.9328,3.9284,3.911,3.8916,3.8916,3.8841,3.8631,3.8437,3.8182,3.7988,3.7674,4.3753,4.4571,4.5813,4.6711,4.7249,4.7309,4.7309,4.7309,4.7309,4.7309,4.7309,4.7309,4.7309,4.7309,4.7309,4.7309,4.7309,4.7309,4.7309,4.7354,4.7474,4.7758,4.8087,4.8371,4.8835,4.9404,4.9942,5.0167,5.0315,5.0315,5.0316,5.0227,4.9898,4.9524,4.9464,4.9314,4.9075,4.8581,4.8312,4.8027,4.7713,4.7339,4.7324,4.7309,4.7309,4.7309,4.7309,4.7309,4.7309,4.7309,4.7309,4.7309,4.7309,4.7309,4.7309,4.7309,4.7309,4.7309,4.7309,4.7309,4.7309,4.7309,4.7309,4.7294,4.7279,4.713,4.6815,4.6441,4.5783,4.5214,4.4721,4.4242,4.3913,4.3559,4.3454,4.3305,4.3305,4.3305,4.3305,4.3305,4.3305,4.3305,4.3305,4.3305,4.3305,4.3305,4.3305,4.3305,4.317,4.2806,4.2342,4.1916,4.1377,4.0591,3.9798,3.9433,3.9448,3.9388,3.9388,3.9388,3.9388,3.9388,3.9388,3.9388,3.9388,3.9388,3.9388,3.9224,3.9284,3.932,3.9104,3.885,3.8886,3.8706,3.8586,4.3992,4.517,4.6007,4.6696,4.7249,4.7309,4.7309,4.7309,4.7309,4.7309,4.7309,4.7309,4.7309,4.7309,4.7309,4.7309,4.7309,4.7309,4.7309,4.7339,4.7773,4.8087,4.8521,4.9105,4.9494,5.0047,5.0616,5.0945,5.0808,5.0868,5.1005,5.0915,5.0945,5.0541,5.0016,4.9957,4.9763,4.9284,4.8985,4.876,4.8132,4.7743,4.7354,4.7309,4.7309,4.7309,4.7309,4.7309,4.7309,4.7309,4.7309,4.7309,4.7309,4.7309,4.7309,4.7309,4.7309,4.7309,4.7309,4.7309,4.7309,4.7309,4.7309,4.7309,4.7294,4.7294,4.7085,4.701,4.6411,4.5828,4.5304,4.4721,4.4317,4.3973,4.3723,4.3454,4.3305,4.3305,4.3305,4.3305,4.3305,4.3305,4.3305,4.3305,4.3305,4.3305,4.3305,4.3305,4.3305,4.312,4.291,4.2506,4.2111,4.1309,4.0457,3.9738,3.9538,3.9463,3.9388,3.9388,3.9388,3.9388,3.9388,3.9388,3.9388,3.9388,3.9388,3.9388,3.9373,3.9343,3.9358,3.9298,3.9328,3.9254,3.905]}]]